[[{"header":{"parameterUnit":"m.s-1","parameterCategory":1,"la1":30.6,"la2":29.2853,"lo1":-89.7004,"lo2":-87.6739,"dy":0.0162,"dx":0.0183,"nx":112,"ny":82,"refTime":"2026-05-10T12:00:00:Z","depth":0,"parameterNumber":2,"parameterNumberName":"U-component_of_WINDS"},"data":[0.0,0.0,0.0,0.0,0.0,0.0,0.0,0.0,0.0,0.0,0.0,0.0,0.0,0.0,0.0,0.0,0.0,0.0,0.0,0.0,0.0,0.0,0.0,0.0,0.0,0.0,0.0,0.0,0.0,0.0,0.0,0.0,0.0,0.0,0.0,0.0,0.0,0.0,0.0,0.0,0.0,0.0,0.0,0.0,0.0,0.0,0.0,0.0,0.0,0.0,0.0,0.0,0.0,0.0,0.0,0.0,0.0,0.0,0.0,0.0,0.0,0.0,0.0,0.0,0.0,0.0,0.0,0.0,0.0,0.0,0.0,0.0,0.0,0.0,0.0,0.0,0.0,0.0,0.0,0.0,0.0,0.0,0.0,0.0,0.0,0.0,0.0,0.0,0.0,0.0,0.0,-2.4518,-2.7585,-2.8709,-2.7037,-2.6275,-2.477,-2.2163,0.0,0.0,0.0,0.0,0.0,0.0,0.0,0.0,0.0,0.0,0.0,0.0,0.0,0.0,0.0,0.0,0.0,0.0,0.0,0.0,0.0,0.0,0.0,0.0,0.0,0.0,0.0,0.0,0.0,0.0,0.0,0.0,0.0,0.0,0.0,0.0,0.0,0.0,0.0,0.0,0.0,0.0,0.0,0.0,0.0,0.0,0.0,0.0,0.0,0.0,0.0,0.0,0.0,0.0,0.0,0.0,0.0,0.0,0.0,0.0,0.0,0.0,0.0,0.0,0.0,0.0,0.0,0.0,0.0,0.0,0.0,0.0,0.0,0.0,0.0,0.0,0.0,0.0,0.0,0.0,0.0,0.0,0.0,0.0,0.0,0.0,0.0,0.0,0.0,0.0,0.0,0.0,0.0,0.0,0.0,0.0,0.0,0.0,0.0,0.0,0.0,0.0,0.0,0.0,-2.2134,-2.6108,-2.8244,-2.8709,-2.7037,-2.6795,-2.5374,-2.22,0.0,0.0,0.0,0.0,0.0,0.0,0.0,0.0,0.0,0.0,0.0,0.0,0.0,0.0,0.0,0.0,0.0,0.0,0.0,0.0,0.0,0.0,0.0,0.0,0.0,0.0,0.0,0.0,0.0,0.0,0.0,0.0,0.0,0.0,0.0,0.0,0.0,0.0,0.0,0.0,0.0,0.0,0.0,0.0,0.0,0.0,0.0,0.0,0.0,0.0,0.0,0.0,0.0,0.0,0.0,0.0,0.0,0.0,0.0,0.0,0.0,0.0,0.0,0.0,0.0,0.0,0.0,0.0,0.0,0.0,0.0,0.0,0.0,0.0,0.0,0.0,0.0,0.0,0.0,0.0,0.0,0.0,0.0,0.0,0.0,0.0,0.0,0.0,0.0,0.0,0.0,0.0,0.0,0.0,0.0,0.0,0.0,0.0,0.0,0.0,0.0,0.0,0.0,-2.1874,-2.4175,-2.6052,-2.7724,-2.8021,-2.6386,-2.5856,-2.4379,-2.1532,-1.9022,0.0,0.0,0.0,0.0,0.0,0.0,0.0,0.0,0.0,0.0,0.0,0.0,0.0,0.0,0.0,0.0,0.0,0.0,0.0,0.0,0.0,0.0,0.0,0.0,0.0,0.0,0.0,0.0,0.0,0.0,0.0,0.0,0.0,0.0,0.0,0.0,0.0,0.0,0.0,0.0,0.0,0.0,0.0,0.0,0.0,0.0,0.0,0.0,0.0,0.0,0.0,0.0,0.0,0.0,0.0,0.0,0.0,0.0,0.0,0.0,0.0,0.0,0.0,0.0,0.0,0.0,0.0,0.0,0.0,0.0,0.0,0.0,0.0,0.0,0.0,0.0,0.0,0.0,0.0,0.0,0.0,0.0,0.0,0.0,0.0,0.0,0.0,0.0,0.0,0.0,0.0,0.0,0.0,0.0,0.0,0.0,0.0,0.0,0.0,0.0,0.0,0.0,-2.3795,-2.5708,-2.5708,-2.6962,-2.7167,-2.5559,-2.4658,-2.3145,-2.0667,-1.817,0.0,0.0,0.0,0.0,0.0,0.0,0.0,0.0,0.0,0.0,0.0,0.0,0.0,0.0,0.0,0.0,0.0,0.0,0.0,0.0,0.0,0.0,0.0,0.0,0.0,0.0,0.0,0.0,0.0,0.0,0.0,0.0,0.0,0.0,0.0,0.0,0.0,0.0,0.0,0.0,0.0,0.0,0.0,0.0,0.0,0.0,0.0,0.0,0.0,0.0,0.0,0.0,0.0,0.0,0.0,0.0,0.0,0.0,0.0,0.0,0.0,0.0,0.0,0.0,0.0,0.0,0.0,0.0,0.0,0.0,0.0,0.0,0.0,0.0,0.0,0.0,0.0,0.0,0.0,0.0,0.0,0.0,0.0,0.0,0.0,0.0,0.0,0.0,0.0,0.0,0.0,0.0,0.0,0.0,0.0,0.0,0.0,0.0,0.0,0.0,0.0,0.0,-2.4129,-2.5708,-2.5708,-2.6461,-2.633,-2.4723,-2.3795,-2.2256,-1.985,-1.7293,0.0,0.0,0.0,0.0,0.0,0.0,0.0,0.0,0.0,0.0,0.0,0.0,0.0,0.0,0.0,0.0,0.0,0.0,0.0,0.0,0.0,0.0,0.0,0.0,0.0,0.0,0.0,0.0,0.0,0.0,0.0,0.0,0.0,0.0,0.0,0.0,0.0,0.0,0.0,0.0,0.0,0.0,0.0,0.0,0.0,0.0,0.0,0.0,0.0,0.0,0.0,0.0,0.0,0.0,0.0,0.0,0.0,0.0,0.0,0.0,0.0,0.0,0.0,0.0,0.0,0.0,0.0,0.0,0.0,0.0,0.0,0.0,0.0,0.0,0.0,0.0,0.0,0.0,0.0,0.0,0.0,0.0,0.0,0.0,0.0,0.0,0.0,0.0,0.0,0.0,0.0,0.0,0.0,0.0,0.0,0.0,0.0,0.0,0.0,0.0,0.0,0.0,-2.4166,-2.5503,0.0,-2.5671,-2.5476,-2.3832,-2.2932,-2.1402,-1.8933,0.0,0.0,0.0,0.0,0.0,0.0,0.0,0.0,0.0,0.0,0.0,0.0,0.0,0.0,0.0,0.0,0.0,0.0,0.0,0.0,0.0,0.0,0.0,0.0,0.0,0.0,0.0,0.0,0.0,0.0,0.0,0.0,0.0,0.0,0.0,0.0,0.0,0.0,0.0,0.0,0.0,0.0,0.0,0.0,0.0,0.0,0.0,0.0,0.0,0.0,0.0,0.0,0.0,0.0,0.0,0.0,0.0,0.0,0.0,0.0,0.0,0.0,0.0,0.0,0.0,0.0,0.0,0.0,0.0,0.0,0.0,0.0,0.0,0.0,0.0,0.0,0.0,0.0,0.0,0.0,0.0,0.0,0.0,0.0,0.0,0.0,0.0,0.0,0.0,0.0,0.0,0.0,0.0,0.0,0.0,0.0,0.0,0.0,0.0,0.0,0.0,0.0,-2.1235,-2.3776,-2.5113,0.0,-2.4983,-2.464,-2.2961,-2.2089,-2.0567,-1.8079,0.0,0.0,0.0,0.0,0.0,0.0,0.0,0.0,0.0,0.0,0.0,0.0,0.0,0.0,0.0,0.0,0.0,0.0,0.0,0.0,0.0,0.0,0.0,0.0,0.0,0.0,0.0,0.0,0.0,0.0,0.0,0.0,0.0,0.0,0.0,0.0,0.0,0.0,0.0,0.0,0.0,0.0,0.0,0.0,0.0,0.0,0.0,0.0,0.0,0.0,0.0,0.0,0.0,0.0,0.0,0.0,0.0,0.0,0.0,0.0,0.0,0.0,0.0,0.0,0.0,0.0,0.0,0.0,0.0,0.0,0.0,0.0,0.0,0.0,0.0,0.0,0.0,0.0,0.0,0.0,0.0,0.0,0.0,0.0,0.0,0.0,0.0,0.0,0.0,0.0,0.0,0.0,0.0,0.0,0.0,0.0,0.0,0.0,0.0,0.0,0.0,0.0,-2.0481,-2.2967,-2.4481,-2.45,-2.45,-2.3822,-2.2145,-2.1272,-1.975,0.0,0.0,0.0,0.0,0.0,0.0,0.0,0.0,0.0,0.0,0.0,0.0,0.0,0.0,0.0,0.0,0.0,0.0,0.0,0.0,0.0,0.0,0.0,0.0,0.0,0.0,0.0,0.0,0.0,0.0,0.0,0.0,0.0,0.0,0.0,0.0,0.0,0.0,0.0,0.0,0.0,0.0,0.0,0.0,0.0,0.0,0.0,0.0,0.0,0.0,0.0,0.0,0.0,0.0,0.0,0.0,0.0,0.0,0.0,0.0,0.0,0.0,0.0,0.0,0.0,0.0,0.0,0.0,0.0,0.0,0.0,0.0,0.0,0.0,0.0,0.0,0.0,0.0,0.0,0.0,0.0,0.0,0.0,0.0,0.0,0.0,0.0,0.0,0.0,0.0,0.0,0.0,0.0,0.0,0.0,0.0,0.0,0.0,0.0,0.0,0.0,0.0,0.0,0.0,-2.2498,-2.387,-2.4431,-2.4498,-2.3822,-2.2145,-2.1773,-2.0344,-1.73,0.0,0.0,0.0,0.0,0.0,0.0,0.0,0.0,0.0,0.0,0.0,0.0,0.0,0.0,0.0,0.0,0.0,0.0,0.0,0.0,0.0,0.0,0.0,0.0,0.0,0.0,0.0,0.0,0.0,0.0,0.0,0.0,0.0,0.0,0.0,0.0,0.0,0.0,0.0,0.0,0.0,0.0,0.0,0.0,0.0,0.0,0.0,0.0,0.0,0.0,0.0,0.0,0.0,0.0,0.0,0.0,0.0,0.0,0.0,0.0,0.0,0.0,0.0,0.0,0.0,0.0,0.0,0.0,0.0,0.0,0.0,0.0,0.0,0.0,0.0,0.0,0.0,0.0,0.0,0.0,0.0,0.0,0.0,0.0,0.0,0.0,0.0,0.0,0.0,0.0,0.0,0.0,0.0,0.0,0.0,0.0,0.0,0.0,0.0,0.0,0.0,0.0,-1.9401,-2.1931,-2.3646,-2.4454,-2.4515,-2.3952,-2.259,-2.2182,-2.0734,-1.7764,0.0,0.0,0.0,0.0,0.0,0.0,0.0,0.0,0.0,0.0,0.0,0.0,0.0,0.0,0.0,0.0,0.0,0.0,0.0,0.0,0.0,0.0,0.0,0.0,0.0,0.0,0.0,0.0,0.0,0.0,0.0,0.0,0.0,0.0,0.0,0.0,0.0,0.0,0.0,0.0,0.0,0.0,0.0,0.0,0.0,0.0,0.0,0.0,0.0,0.0,0.0,0.0,0.0,0.0,0.0,0.0,0.0,0.0,0.0,0.0,0.0,0.0,0.0,0.0,0.0,0.0,0.0,0.0,0.0,0.0,0.0,0.0,0.0,0.0,0.0,0.0,0.0,0.0,0.0,0.0,0.0,0.0,0.0,0.0,0.0,0.0,0.0,0.0,0.0,0.0,0.0,0.0,0.0,0.0,0.0,0.0,0.0,0.0,0.0,0.0,0.0,0.0,-1.8193,-2.1364,-2.3649,-2.4511,-2.4549,-2.4128,-2.3174,-2.2423,-2.0901,-1.8364,0.0,0.0,0.0,0.0,0.0,0.0,0.0,0.0,0.0,0.0,0.0,0.0,0.0,0.0,0.0,0.0,0.0,0.0,0.0,0.0,0.0,0.0,0.0,0.0,0.0,0.0,0.0,0.0,0.0,0.0,0.0,0.0,0.0,0.0,0.0,0.0,0.0,0.0,0.0,0.0,0.0,0.0,0.0,0.0,0.0,0.0,0.0,0.0,0.0,0.0,0.0,0.0,0.0,0.0,0.0,0.0,0.0,0.0,0.0,0.0,-2.3263,0.0,0.0,0.0,0.0,0.0,0.0,0.0,0.0,0.0,0.0,0.0,0.0,0.0,0.0,0.0,0.0,0.0,0.0,0.0,0.0,0.0,0.0,0.0,0.0,0.0,0.0,0.0,0.0,0.0,0.0,0.0,0.0,0.0,0.0,0.0,0.0,0.0,0.0,0.0,0.0,0.0,-1.9006,-2.1362,-2.316,-2.4606,-2.4647,-2.3969,-2.2464,-2.2139,-2.0693,-1.7628,0.0,0.0,0.0,0.0,0.0,0.0,0.0,0.0,0.0,0.0,0.0,0.0,0.0,0.0,0.0,0.0,0.0,0.0,0.0,0.0,0.0,0.0,0.0,0.0,0.0,0.0,0.0,0.0,0.0,0.0,0.0,0.0,0.0,0.0,0.0,0.0,0.0,0.0,0.0,0.0,0.0,0.0,0.0,0.0,0.0,0.0,0.0,0.0,0.0,0.0,0.0,0.0,0.0,0.0,0.0,0.0,0.0,0.0,0.0,0.0,0.0,-2.4156,0.0,0.0,0.0,0.0,0.0,0.0,0.0,0.0,0.0,0.0,0.0,0.0,0.0,0.0,0.0,0.0,0.0,0.0,0.0,0.0,0.0,0.0,0.0,0.0,0.0,0.0,0.0,0.0,0.0,0.0,0.0,0.0,0.0,0.0,0.0,0.0,0.0,0.0,0.0,0.0,-1.826,-2.0934,-2.2955,-2.4131,-2.414,-2.3712,-2.2798,-2.192,-2.0559,-1.8522,-1.6479,0.0,0.0,0.0,0.0,0.0,0.0,0.0,0.0,0.0,0.0,0.0,0.0,0.0,0.0,0.0,0.0,0.0,0.0,0.0,0.0,0.0,0.0,0.0,0.0,0.0,0.0,0.0,0.0,0.0,0.0,0.0,0.0,0.0,0.0,0.0,0.0,0.0,0.0,0.0,0.0,0.0,0.0,0.0,0.0,0.0,0.0,0.0,0.0,0.0,0.0,0.0,0.0,0.0,0.0,-3.111,-3.1027,-3.1128,-3.1109,-3.0924,-2.8877,-2.6901,-2.516,0.0,0.0,0.0,0.0,0.0,0.0,0.0,0.0,0.0,0.0,0.0,0.0,0.0,0.0,0.0,0.0,0.0,0.0,0.0,0.0,0.0,0.0,0.0,0.0,0.0,-2.0901,-1.9954,0.0,0.0,0.0,0.0,0.0,0.0,0.0,0.0,0.0,0.0,0.0,0.0,-1.761,-2.0556,-2.2686,-2.3424,-2.34,-2.322,-2.3027,-2.1667,-2.046,-1.9551,-1.6972,-1.5042,0.0,0.0,0.0,0.0,0.0,0.0,0.0,0.0,0.0,0.0,0.0,0.0,0.0,0.0,0.0,0.0,0.0,0.0,0.0,0.0,0.0,0.0,0.0,0.0,0.0,0.0,0.0,0.0,0.0,0.0,0.0,0.0,-2.2408,-2.2528,0.0,0.0,0.0,0.0,0.0,0.0,0.0,0.0,0.0,0.0,0.0,0.0,0.0,0.0,-3.1453,-3.2116,-3.2502,-3.2689,-3.3437,-3.3418,-3.2708,-3.3459,-3.3411,-3.2745,-3.2416,0.0,-2.8519,-2.7004,0.0,0.0,0.0,0.0,0.0,0.0,0.0,0.0,0.0,0.0,0.0,0.0,0.0,0.0,0.0,0.0,0.0,0.0,0.0,0.0,0.0,0.0,-2.3767,-2.3712,-2.3114,-2.2242,0.0,-1.9571,-1.796,-1.6319,0.0,0.0,0.0,0.0,0.0,0.0,0.0,0.0,-1.9338,-2.0804,-2.1861,-2.2663,-2.2621,-2.2231,-2.1475,-2.114,-2.0339,-1.8832,-1.8383,-1.7492,-1.5915,-1.487,0.0,0.0,0.0,0.0,0.0,0.0,0.0,0.0,0.0,0.0,0.0,0.0,0.0,0.0,0.0,0.0,0.0,0.0,0.0,0.0,0.0,0.0,0.0,0.0,0.0,0.0,0.0,0.0,0.0,-2.3517,-2.4993,-2.5466,-2.5904,-2.5845,0.0,0.0,0.0,0.0,0.0,0.0,0.0,0.0,0.0,-2.9984,-3.1696,-3.2998,-3.3871,-3.5194,-3.583,-3.5817,-3.6202,-3.5913,-3.5085,-3.5477,-3.5238,-3.4513,-3.4499,-3.3626,-3.2003,-2.9795,-2.7643,-2.5568,0.0,0.0,0.0,0.0,0.0,-2.2812,-2.3301,0.0,0.0,0.0,0.0,0.0,0.0,0.0,0.0,0.0,0.0,0.0,0.0,0.0,0.0,-2.4936,-2.464,-2.4002,-2.2652,-2.1761,-2.0581,0.0,-1.6945,-1.5806,-1.4883,0.0,0.0,0.0,0.0,0.0,-1.9175,-2.0604,-2.1578,-2.1895,-2.1871,-2.1678,-2.1256,-2.0694,-2.0102,-1.9435,-1.8992,-1.8221,-1.7035,-1.5735,-1.4258,0.0,0.0,0.0,0.0,0.0,0.0,0.0,0.0,0.0,0.0,0.0,0.0,0.0,0.0,0.0,0.0,0.0,0.0,0.0,0.0,0.0,0.0,0.0,0.0,0.0,0.0,0.0,0.0,-2.6082,-2.7746,-2.8568,-2.8931,-2.8756,0.0,0.0,0.0,0.0,0.0,0.0,-2.9121,-2.9954,-3.1198,-3.2929,-3.418,-3.5257,-3.6135,-3.7373,-3.8007,-3.8007,-3.8238,-3.7757,-3.6712,-3.6923,-3.651,-3.5596,-3.5621,-3.5161,-3.4247,-3.1907,-2.9726,-2.777,-2.6745,-2.5951,-2.5398,-2.5408,-2.539,-2.5488,-2.6133,-2.6367,-2.6269,-2.5605,0.0,-2.3262,-2.1972,0.0,0.0,0.0,0.0,-2.2651,-2.3944,0.0,-2.5494,-2.5495,-2.5499,-2.5085,-2.3557,-2.3234,-2.2465,0.0,-1.8689,-1.7896,-1.7192,0.0,0.0,0.0,0.0,-1.8252,-1.9116,-2.0369,-2.118,-2.1098,-2.1081,-2.0981,-2.0698,-2.0038,-1.9552,-1.9393,-1.8847,-1.8147,-1.7328,-1.6103,-1.48,0.0,0.0,0.0,0.0,0.0,0.0,0.0,0.0,0.0,0.0,0.0,0.0,0.0,0.0,0.0,0.0,0.0,0.0,0.0,0.0,0.0,0.0,0.0,0.0,0.0,0.0,0.0,0.0,0.0,0.0,-3.1216,-3.2095,0.0,0.0,0.0,0.0,-3.0135,-3.0942,-3.1795,-3.2602,-3.3474,-3.4699,-3.6404,-3.6519,-3.6988,-3.7873,-3.7969,-3.8007,-3.8007,-3.8834,-3.8334,-3.6731,-3.7565,-3.7082,-3.5606,-3.5669,-3.5241,-3.4369,-3.2566,-3.132,-3.0345,-2.8706,-2.8086,-2.8103,-2.8098,-2.8102,-2.8102,-2.8142,-2.8163,-2.8163,-2.8125,-2.6406,-2.4316,-2.4236,-2.2982,0.0,0.0,-2.3549,-2.4161,-2.4203,-2.4844,-2.5492,-2.5492,-2.5511,-2.526,-2.4331,-2.4123,-2.335,0.0,-1.9547,-1.8922,-1.8889,0.0,-1.7834,-1.8651,-1.8812,-1.9154,-2.0015,-2.0261,-2.0323,-2.0269,-2.0263,-1.9926,-1.9088,-1.8924,-1.8533,-1.7771,-1.7742,-1.7378,-1.6504,-1.6389,-1.5171,-1.2697,-1.2408,0.0,0.0,0.0,0.0,0.0,0.0,0.0,0.0,0.0,0.0,0.0,0.0,0.0,0.0,0.0,0.0,0.0,0.0,0.0,0.0,0.0,0.0,0.0,0.0,0.0,0.0,0.0,0.0,-3.3016,-3.4355,0.0,0.0,-3.3752,-3.3621,-3.3621,-3.4429,-3.5038,-3.5334,-3.6161,-3.6911,-3.7526,-3.8084,-3.8527,-3.8834,-3.9361,-3.9611,-3.9611,-3.9919,-3.9477,-3.8354,-3.8104,-3.7423,-3.6408,-3.5907,-3.5586,-3.5304,-3.417,-3.3197,-3.2311,-3.1164,-3.0711,-3.074,-3.0753,-3.0424,-3.0054,-3.0564,-3.0409,-2.9882,-2.9316,-2.7754,-2.6074,-2.6073,-2.5251,-2.4367,-2.4697,-2.4955,-2.5123,-2.5056,-2.5277,-2.5507,-2.5507,-2.5507,-2.526,-2.4389,-2.42,-2.376,-2.2268,-2.1266,-2.0669,-2.0677,-1.9946,-1.9465,-1.975,-1.9792,-1.9912,-2.0227,-2.0281,-2.0292,-2.0269,-2.0265,-1.9904,-1.9043,-1.8931,-1.8578,-1.7718,-1.7687,-1.7329,-1.6503,-1.6465,-1.5744,-1.4239,-1.3631,-1.2608,0.0,0.0,0.0,0.0,0.0,0.0,0.0,0.0,0.0,0.0,0.0,0.0,0.0,0.0,0.0,0.0,0.0,0.0,0.0,0.0,0.0,0.0,0.0,0.0,0.0,0.0,-3.4304,-3.5152,-3.6504,-3.7045,-3.623,-3.6205,-3.625,-3.625,-3.6805,-3.7276,-3.7565,-3.8123,-3.8565,-3.8834,-3.94,-3.9708,-3.9708,-4.0227,-4.0496,-4.0496,-4.0496,-4.0073,-3.9284,-3.87,-3.7892,-3.6872,-3.6333,-3.6017,-3.5822,-3.5326,-3.4788,-3.415,-3.2994,-3.2533,-3.2537,-3.2546,-3.2197,-3.1788,-3.2026,-3.1579,-3.0799,-3.0234,-2.9062,-2.7871,-2.7871,-2.7265,-2.6579,-2.6582,-2.632,-2.6026,-2.5951,-2.5714,-2.5507,-2.5507,-2.5507,-2.5333,-2.4757,-2.4629,-2.4467,-2.3887,-2.2593,-2.1609,-2.1609,-2.0877,-2.0307,-2.0295,-2.0307,-2.0307,-2.0295,-2.0306,-2.0297,-2.0297,-2.0045,-1.9514,-1.867,-1.8325,-1.7776,-1.6907,-1.6849,-1.6619,-1.608,-1.6061,-1.576,-1.5143,-1.3694,-1.2654,-1.206,0.0,0.0,0.0,0.0,0.0,0.0,0.0,0.0,0.0,0.0,0.0,0.0,0.0,0.0,0.0,0.0,0.0,0.0,0.0,0.0,0.0,0.0,0.0,-3.2508,-3.4934,-3.6844,-3.7636,-3.8569,-3.8805,-3.7964,-3.7942,-3.797,-3.797,-3.8035,-3.845,-3.9284,-3.9342,-3.9688,-4.0477,-4.0496,-4.0496,-4.0496,-4.0496,-4.0496,-4.0496,-4.0496,-4.0092,-3.9342,-3.9304,-3.8457,-3.6978,-3.6922,-3.6496,-3.5846,-3.5887,-3.5931,-3.5825,-3.4135,-3.3474,-3.3474,-3.3474,-3.3455,-3.3319,-3.2408,-3.1593,-3.0933,-3.0914,-3.0329,-2.9647,-2.9647,-2.9042,-2.8379,-2.8348,-2.768,-2.6942,-2.6826,-2.6174,-2.553,-2.5511,-2.5492,-2.5492,-2.5492,-2.5492,-2.5492,-2.5492,-2.3431,-2.1667,-2.1648,-2.09,-2.0292,-2.0294,-2.0299,0.0,-2.0294,-2.0297,-2.0297,-2.0297,-1.9524,-1.8689,-1.787,-1.7,-1.6138,-1.525,-1.5192,-1.5192,-1.5192,-1.5192,-1.5206,-1.5194,-1.2698,-1.1348,-1.1281,0.0,0.0,0.0,0.0,0.0,0.0,0.0,0.0,0.0,0.0,0.0,0.0,0.0,0.0,0.0,0.0,0.0,0.0,0.0,0.0,0.0,0.0,-3.3116,-3.3586,-3.5783,-3.7693,-3.8534,-3.9441,-3.988,-3.9632,-3.9663,-3.9714,-3.9714,-3.9776,-3.9919,-4.0169,-4.0169,-4.0265,-4.0496,-4.0496,-4.0496,-4.0496,-4.0496,-4.0496,-4.0496,-4.0496,-4.0381,-4.015,-3.9573,-3.9097,-3.8633,-3.7433,-3.6808,-3.6631,-3.6108,-3.5914,-3.5875,-3.544,-3.529,-3.529,-3.529,-3.4884,-3.4127,-3.2624,-3.1963,-3.1675,-3.109,-3.0739,-3.0545,-3.0545,-3.0371,-3.0058,-2.9427,-2.9021,-2.8489,-2.722,-2.6665,-2.6295,-2.5709,-2.5573,-2.557,-2.5518,-2.5508,-2.5494,-2.5495,-2.4409,-2.3272,-2.2654,-2.1306,-2.0292,-2.0299,0.0,0.0,-2.0299,-2.0344,-2.037,-2.037,-1.9593,-1.8728,-1.7863,-1.6993,-1.6134,0.0,-1.5196,-1.5196,-1.5196,-1.5201,-1.5209,-1.5206,-1.3879,-1.316,0.0,0.0,0.0,0.0,0.0,0.0,0.0,0.0,0.0,0.0,0.0,0.0,0.0,0.0,0.0,0.0,0.0,0.0,0.0,0.0,0.0,0.0,-3.4541,-3.6222,-3.6585,-3.7578,-3.8572,-3.9451,-3.9995,-4.0301,-4.0301,-4.0354,-4.0407,-4.0407,-4.046,-4.0496,-4.0496,-4.0496,-4.0496,-4.0496,-4.0496,-4.0496,-4.0496,-4.0496,-4.0496,-4.0496,-4.0496,-4.0496,-4.0477,-4.0015,-3.9449,0.0,-3.7816,-3.7041,-3.641,-3.6015,-3.5872,0.0,0.0,0.0,0.0,0.0,-3.5448,-3.4555,-3.3539,-3.2703,-3.2023,-3.1555,-3.1167,-3.0896,-3.0896,-3.0897,-3.0781,-3.0251,-2.9812,-2.9269,-2.825,-2.742,-2.6712,-2.6264,-2.5873,-2.5593,-2.5554,-2.5514,-2.5509,-2.5498,0.0,0.0,-2.3538,-2.2,-2.0733,-2.0389,-2.0328,-2.0308,0.0,-2.0376,-2.0402,-2.0402,-1.9294,-1.8352,-1.784,-1.6678,0.0,0.0,0.0,-1.5202,-1.5193,-1.5198,0.0,0.0,0.0,0.0,0.0,0.0,0.0,0.0,-1.1208,-1.1351,0.0,0.0,0.0,0.0,0.0,0.0,0.0,0.0,0.0,0.0,0.0,0.0,0.0,0.0,0.0,0.0,-3.7082,-3.9431,-4.0186,-3.9718,-3.9565,-4.0339,-4.0358,-4.0301,-4.0301,-4.0345,-4.0379,-4.0379,-4.0452,-4.0508,-4.0508,0.0,0.0,0.0,0.0,-4.0496,-4.0496,-4.0496,-4.0496,-4.0496,-4.0496,-4.0496,-4.0496,-4.0419,-3.9549,-3.8134,-3.8008,-3.7133,-3.582,-3.5803,-3.5833,-3.5919,-3.5985,-3.5992,-3.5992,-3.5992,-3.5504,0.0,0.0,0.0,0.0,-3.2018,-3.1476,-3.0894,-3.0894,-3.0895,-3.0897,-3.0839,-3.0249,-2.9634,-2.9525,-2.8299,-2.7036,-2.6938,-2.6254,-2.5603,-2.5602,-2.5556,-2.5504,-2.5515,-2.4897,-2.4326,-2.4226,-2.2777,-2.1375,-2.065,-2.0412,0.0,-2.0399,-2.0402,-2.0402,-2.0402,0.0,0.0,-1.7819,-1.6287,-1.5309,-1.5223,-1.5215,-1.5202,-1.5198,-1.5198,-1.5198,-1.5195,-1.4442,-1.4049,-1.4035,-1.3266,-1.3211,-1.3849,-1.3633,-1.3999,0.0,0.0,0.0,0.0,0.0,0.0,0.0,0.0,0.0,0.0,0.0,0.0,0.0,0.0,0.0,-3.6566,-3.8706,-4.011,-4.0282,-4.0711,-4.1074,-4.1246,-4.0711,-4.0301,-4.0301,-4.0299,-4.0316,-4.0316,-4.043,-4.0499,-4.0499,-4.0492,0.0,-4.0496,-4.0496,-4.0496,-4.0496,-4.0496,-4.0496,-4.0496,0.0,0.0,-4.0477,-3.9823,-3.9361,-3.8965,-3.7579,-3.6858,-3.6616,-3.5983,-3.583,-3.5986,-3.5991,-3.5992,-3.5992,-3.5992,-3.5895,-3.5543,-3.4138,-3.3421,-3.2916,-3.1506,-3.0985,-3.0894,-3.089,-3.0894,0.0,-3.0879,-3.0721,-3.0404,-2.9755,-2.881,-2.7847,-2.7146,-2.6307,-2.5677,-2.5684,-2.5625,-2.5583,-2.5578,-2.5432,-2.5114,-2.4406,-2.2837,-2.1627,-2.1472,-2.0847,-2.0399,-2.0399,-2.0402,-2.0402,-2.0402,-1.9461,-1.8566,-1.7857,-1.6841,-1.5967,-1.5313,-1.5272,-1.5264,-1.5193,-1.5193,-1.521,-1.5199,-1.5025,-1.4959,-1.4956,-1.4737,-1.4699,-1.4804,-1.4031,-1.4446,0.0,0.0,0.0,0.0,0.0,0.0,0.0,0.0,0.0,0.0,0.0,-3.0782,-3.3325,0.0,-3.6353,-3.8039,-3.9757,-4.0903,-4.0903,-4.1246,-4.1342,-4.096,-4.053,-4.0301,-4.0301,-4.0299,-4.0307,-4.0307,-4.0413,-4.0502,-4.0502,-4.0511,-4.0496,-4.0496,-4.0496,-4.0496,-4.0496,-4.0496,-4.0496,-4.0496,-4.0496,-4.0496,-4.0477,-3.9669,-3.9073,-3.8584,-3.7276,-3.6537,-3.6215,-3.5899,-3.5836,-3.5941,-3.5985,-3.6009,-3.5992,-3.5992,-3.5992,-3.5817,-3.451,-3.3753,-3.3171,-3.188,-3.1199,-3.0891,-3.0908,-3.0891,-3.0894,-3.0895,-3.0878,-3.0762,-3.0351,-2.9276,-2.8182,-2.7752,-2.6657,-2.5698,-2.5691,-2.5679,-2.5644,-2.5607,-2.5604,-2.5464,-2.5038,-2.3492,-2.2199,-2.1765,-2.0953,-2.0402,-2.0402,-2.0402,-2.0402,-2.0402,-1.9619,-1.8746,-1.7863,-1.6626,-1.5731,-1.5335,-1.5296,-1.5272,-1.5204,-1.5201,-1.5198,-1.5207,-1.5207,-1.5196,-1.5192,-1.5174,-1.513,-1.5085,-1.4622,-1.5249,0.0,0.0,0.0,0.0,0.0,0.0,0.0,0.0,-2.8927,-3.0606,-3.2148,-3.372,-3.5438,-3.6929,-3.8184,-3.9023,-4.0482,-4.1437,-4.1285,-4.1399,-4.1189,-4.0396,-4.0301,-4.0301,-4.0301,-4.0309,-4.0289,-4.0289,-4.0388,-4.0458,-4.0458,-4.046,-4.0484,-4.0484,-4.05,-4.05,-4.05,-4.0489,-4.0496,-4.0496,-4.0496,-4.0496,-4.0477,-3.9496,-3.8661,-3.793,-3.6925,-3.6138,-3.561,-3.5736,-3.5833,-3.5901,-3.5953,-3.5985,-3.5992,-3.5992,-3.5992,-3.5856,-3.4803,-3.3987,-3.323,-3.2194,-3.1413,-3.0907,-3.0887,-3.0887,-3.0907,-3.0907,-3.0892,-3.0894,-3.0894,-2.9607,-2.8299,-2.8299,-2.6972,-2.5703,-2.5701,-2.5696,-2.5688,-2.5638,-2.5624,-2.5625,-2.5624,-2.4161,-2.277,-2.2058,-2.1075,-2.0402,-2.0402,-2.0402,-2.0402,-2.0402,-1.9777,-1.8926,-1.7891,-1.6251,-1.5299,-1.5304,-1.5304,-1.5279,-1.5211,-1.5211,-1.5226,-1.5212,-1.5212,-1.5202,-1.5201,-1.5192,-1.5257,-1.5376,-1.5376,-1.6117,-2.7828,-2.8464,-2.965,-2.9715,-3.0189,-3.0682,0.0,0.0,-3.233,-3.4017,-3.5126,-3.6321,-3.8052,-3.8547,-3.9004,-3.9977,-4.0922,-4.1246,-4.053,-4.1055,-4.1189,-4.0396,-4.0301,-4.0301,-4.0301,-4.031,-4.0291,-4.0291,-4.0308,-4.0325,-4.0325,-4.0379,-4.0405,-4.0405,-4.0466,-4.0491,-4.0491,-4.0492,-4.0496,-4.0496,-4.0496,-4.0496,-4.0458,-3.8873,-3.8084,-3.7918,-3.6382,-3.568,-3.5612,-3.5745,-3.5833,-3.5897,-3.5901,-3.5958,-3.5992,-3.5992,-3.5992,-3.5758,-3.4118,-3.3479,-3.3132,-3.1487,-3.0923,-3.0887,-3.0823,-3.0845,-3.0907,-3.0907,-3.0892,-3.0894,-3.0894,-2.9607,-2.8299,-2.8299,-2.6972,-2.5703,-2.5702,-2.5701,-2.5698,-2.5693,-2.5687,-2.5697,-2.5692,-2.4189,-2.2967,-2.2868,-2.1452,-2.0402,-2.0402,-2.0402,-2.0402,-2.0402,-2.0302,-1.959,-1.7949,-1.6251,-1.5306,-1.5303,-1.5303,-1.5301,-1.5282,-1.5282,-1.5292,-1.5294,-1.5294,-1.5267,-1.5196,-1.5196,-1.559,-1.6342,-1.6339,-1.6793,-3.053,-3.0833,0.0,0.0,-3.3486,-3.3619,-3.4586,-3.4699,-3.5078,-3.6775,-3.7421,-3.8087,-3.9286,-3.9556,-3.9748,0.0,-4.0559,-4.0692,-4.0339,-4.0597,-4.0692,-4.0339,-4.0301,-4.0301,-4.0301,-4.0301,-4.0301,-4.0301,-4.0299,-4.0307,-4.0307,-4.0362,-4.0407,-4.0407,-4.0477,-4.0502,-4.0502,-4.0492,-4.0496,-4.0496,-4.0496,-4.0496,-4.0439,-3.8757,-3.7469,-3.6507,-3.583,-3.5553,-3.5606,-3.5698,-3.5782,-3.5852,-3.588,-3.5914,-3.596,-3.5989,-3.5992,-3.5817,-3.4588,-3.3828,-3.3205,-3.1954,-3.1232,-3.0844,-3.0801,-3.0822,-3.0844,-3.0844,-3.0846,-3.0731,-3.0263,-2.923,-2.8177,-2.7651,-2.6599,-2.5702,-2.5703,-2.5703,-2.5703,-2.5703,-2.5702,-2.5697,-2.5699,-2.4196,-2.2995,-2.2998,-2.1526,-2.0402,-2.0402,-2.0402,-2.0402,-2.0402,-1.9957,-1.9145,-1.791,-1.6733,-1.5845,-1.5325,-1.5306,-1.5306,-1.5306,-1.5306,-1.5296,-1.5296,-1.5296,-1.5272,-1.5201,-1.5705,-1.6138,-1.6503,-1.701,-1.7664,-3.2341,0.0,0.0,-3.5685,-3.5893,-3.5912,-3.7106,-3.7135,-3.723,-3.8443,-3.875,-3.9057,-3.9884,-3.9927,0.0,-4.0196,-4.0263,-4.0301,-4.0301,-4.0301,-4.0301,-4.0301,-4.0301,-4.0301,-4.0301,-4.0301,-4.0301,-4.0301,-4.03,-4.0308,-4.0308,-4.0354,-4.0372,-4.0372,-4.0424,-4.0449,-4.0449,-4.0487,-4.0492,-4.05,-4.0508,-4.0496,-4.0439,-3.8757,-3.7084,-3.55,-3.5495,-3.5522,-3.5573,-3.5643,-3.5698,-3.5745,-3.5841,-3.5878,-3.5901,-3.5941,-3.5988,-3.5875,-3.4998,-3.4139,-3.326,-3.2383,-3.1504,-3.08,-3.08,-3.08,-3.08,-3.08,-3.08,-3.0606,-2.9807,-2.895,-2.8075,-2.7217,-2.6322,-2.57,-2.57,-2.5701,-2.5702,-2.5702,-2.5703,-2.5703,-2.5694,-2.4214,-2.3038,-2.3039,-2.1543,-2.0423,-2.0402,-2.0402,-2.0402,-2.0402,-1.9628,-1.8835,-1.8219,-1.741,-1.6655,-1.6039,-1.5981,-1.5981,-1.5981,-1.5981,-1.5995,-1.5999,-1.5999,-1.5975,-1.5928,-1.6546,-1.6979,-1.7205,-1.7831,-1.8573,0.0,0.0,-3.504,-3.5979,-3.6775,-3.7344,-3.7401,-3.8026,-3.8633,-3.869,-3.875,-3.9067,-3.9944,-3.9452,-3.9242,-4.0139,-4.0301,-4.0301,-4.0301,-4.0301,-4.0301,-4.0301,-4.0301,-4.0301,0.0,-4.0301,-4.0301,-4.0301,-4.0301,-4.031,-4.031,-4.031,-4.031,-4.031,-4.0299,-4.0307,-4.0307,-4.0441,-4.0502,-4.0502,-4.0492,-4.0496,-4.0439,-3.8757,-3.7084,-3.55,-3.55,-3.55,-3.5507,-3.5573,-3.5601,-3.5623,-3.5745,-3.5849,-3.5894,-3.5899,-3.5939,-3.5875,-3.4998,-3.4139,-3.326,-3.2383,-3.1504,-3.08,-3.08,-3.08,-3.08,-3.08,-3.08,-3.0606,-2.9807,-2.895,-2.8075,-2.7217,-2.6322,-2.57,-2.57,-2.5701,-2.5702,-2.5702,-2.5703,-2.5703,-2.57,-2.4245,-2.3093,-2.3097,-2.1619,-2.0475,-2.0411,-2.0402,-2.0402,-2.0402,-1.9628,-1.9087,-1.9067,-1.8258,-1.7755,-1.7736,-1.7716,-1.7716,-1.7716,-1.7716,-1.7716,-1.7716,-1.7716,-1.7716,-1.7716,-1.7755,-1.8164,-1.8924,-1.8944,-1.9424,-3.3676,0.0,-3.6898,-3.83,-3.8858,-3.9199,-3.9797,-3.9702,-3.9342,-3.8803,-3.8752,-3.8736,-3.8489,-3.8261,-3.8401,-3.9289,-3.9451,-3.9642,-4.0225,-4.0301,-4.0301,-4.0301,-4.0301,0.0,0.0,0.0,0.0,-4.0301,-4.0301,-4.0301,-4.0301,-4.0301,-4.0301,-4.0301,-4.0299,-4.0307,-4.0307,-4.0441,-4.0502,-4.0502,-4.0492,-3.9919,-3.8815,-3.8257,-3.7084,-3.55,-3.55,-3.55,-3.5507,-3.5522,-3.5553,-3.562,-3.5693,-3.5778,-3.5845,-3.5875,-3.5912,-3.59,-3.5658,-3.4606,-3.3357,-3.3064,-3.1971,-3.08,-3.08,-3.08,-3.08,-3.08,-3.08,-3.0606,-2.9807,-2.8948,-2.8071,-2.7213,-2.6336,-2.5693,-2.5693,-2.5696,-2.5698,-2.5698,-2.57,-2.5703,-2.5703,-2.4255,-2.2703,-2.155,-2.0885,-2.049,-2.047,-2.0421,-2.041,-2.0399,-2.0136,-1.9737,-1.9148,-1.8835,-1.8413,-1.7833,-1.7794,-1.7794,-1.7794,-1.7794,-1.7794,-1.7794,-1.7794,-1.7794,-1.7794,-1.8374,-1.8782,-1.9001,-1.9583,-2.0022,-3.4529,-3.6557,-3.849,-3.9267,-3.9919,-4.0355,-4.0328,-3.9873,-3.9153,-3.8045,-3.7632,-3.7405,-3.7186,-3.6963,-3.7292,-3.8763,-3.9011,-3.9298,-4.0186,-4.0301,-4.0301,-4.0301,-4.0301,0.0,0.0,0.0,0.0,-4.0301,-4.0301,-4.0301,-4.0301,-4.0301,-4.0301,-4.0301,-4.03,-4.0299,-4.0299,-4.0398,-4.0441,-4.0458,-4.0471,-3.9584,-3.7959,-3.7959,-3.7062,-3.55,-3.55,-3.55,-3.55,-3.5495,-3.5534,-3.5566,-3.5631,-3.5688,-3.5736,-3.5834,-3.5677,-3.5448,-3.5513,-3.4605,-3.3357,-3.3045,-3.1971,-3.08,-3.08,-3.08,-3.08,-3.08,-3.08,-3.0606,-2.9807,-2.8947,-2.8088,-2.7211,-2.6333,-2.5707,-2.5707,-2.5691,-2.5694,-2.5694,-2.5698,-2.5701,-2.5703,-2.4258,-2.2517,-2.0766,-2.0492,-2.0508,-2.0494,-2.0461,-2.0424,-2.0398,-2.0399,-2.0164,-1.9612,-1.9551,-1.9338,-1.8758,-1.8719,-1.8719,-1.8719,-1.8719,-1.8719,-1.8719,-1.8719,-1.8719,-1.8719,-1.928,-1.9539,-1.9478,-2.0037,-2.0303,-3.4927,-3.7532,-3.9843,-3.9088,-4.0025,-4.0726,-3.9126,-3.8652,-3.8102,-3.6472,-3.5504,-3.5207,0.0,0.0,-3.5916,-3.8457,-3.8916,-3.926,-4.0167,-4.0301,-4.0301,0.0,0.0,0.0,0.0,0.0,0.0,-4.0301,0.0,-4.0301,-4.0301,-4.0301,-4.0301,-4.0301,-4.0301,-4.0301,-4.0301,-4.0299,-4.0325,-4.0407,-4.0349,-3.9484,-3.7894,-3.7855,-3.6975,-3.55,-3.55,-3.55,-3.55,-3.55,-3.55,-3.5507,-3.5566,-3.5595,-3.5618,-3.5756,-3.5313,-3.4659,-3.4642,-3.4053,-3.3201,-3.2363,-3.1504,-3.08,-3.08,-3.08,-3.08,-3.08,-3.08,-3.0626,-2.9866,-2.8986,-2.8088,-2.7269,-2.6372,-2.5707,-2.5707,-2.569,-2.5694,-2.5694,-2.5697,-2.5661,-2.5582,-2.4198,-2.2519,-2.0779,-2.0505,-2.0501,-2.0503,-2.051,-2.0471,-2.0418,-2.0415,-2.0404,-2.0411,-2.0405,-2.0405,-2.0405,-2.0405,-2.0405,-2.0405,-2.0405,-2.0405,-2.0405,-2.0405,-2.0405,-2.0402,-2.0402,-2.0376,-2.0305,-2.0305,-2.0304,-3.8233,-4.0165,-4.17,-4.1522,-4.0828,-4.0127,-3.9692,-3.8167,-3.6529,-3.5438,-3.4166,-3.3295,0.0,0.0,0.0,-3.671,-3.7636,0.0,-4.0091,-4.0301,0.0,-4.0301,0.0,-4.0301,-4.0301,-4.0301,0.0,0.0,-4.0301,-4.0301,-4.0301,-4.0301,-4.0301,-4.0301,-4.0301,-4.0301,-4.0301,-4.0299,-4.0325,-4.0388,-3.9736,-3.8898,-3.7874,-3.7287,-3.6464,-3.55,-3.55,-3.55,-3.55,-3.55,-3.55,-3.5507,-3.5522,-3.5566,-3.5614,-3.5688,-3.5629,-3.5329,-3.4077,-3.3113,-3.2383,-3.2168,-3.1504,-3.08,-3.08,-3.08,-3.08,-3.08,-3.08,-3.0742,-3.0548,-2.9396,-2.8244,-2.801,-2.682,-2.5707,-2.5707,-2.5708,-2.5709,-2.5709,-2.569,-2.5282,-2.3993,-2.339,-2.2532,-2.0835,-2.0562,-2.0566,-2.0502,-2.0494,-2.0482,-2.0477,-2.046,-2.0476,-2.048,-2.0475,-2.0475,-2.0475,-2.0475,-2.0475,-2.0475,-2.0475,-2.0475,-2.0475,-2.0426,-2.0394,-2.0402,-2.0407,-2.0369,-2.0305,-2.0305,-2.0304,-3.954,-4.1113,-4.2211,-4.1491,-4.0601,-3.9502,-3.8043,-3.6367,-3.4643,-3.3051,-3.1756,0.0,0.0,0.0,0.0,0.0,0.0,0.0,-3.9489,-4.0053,-4.0301,0.0,-4.0301,0.0,-4.0301,-4.0301,-4.0301,0.0,-4.0301,-4.0301,-4.0301,-4.0301,-4.0301,-4.0301,-4.0301,-4.0301,-4.0301,-4.03,-4.0136,-3.9771,-3.9301,-3.8418,-3.7271,-3.6819,-3.617,-3.5412,0.0,-3.5412,-3.5412,-3.5412,-3.5412,-3.5412,-3.5402,-3.5456,-3.5515,-3.5583,-3.541,-3.502,-3.4128,-3.3051,-3.1991,-3.1634,-3.1209,-3.08,-3.08,-3.08,-3.08,-3.08,-3.08,-3.08,-3.08,-2.9551,-2.8303,-2.8303,-2.6976,-2.5707,-2.5707,-2.5707,-2.5707,-2.5707,-2.5707,-2.5278,-2.3891,-2.3345,-2.2662,-2.1374,-2.0847,-2.0598,-2.0546,-2.0547,-2.0524,-2.0493,-2.0503,-2.0509,-2.0501,-2.0499,-2.0499,-2.0499,-2.0499,-2.0498,-2.0492,-2.0492,-2.049,-2.0508,-2.045,-2.0432,-2.0395,-2.0391,-2.0385,-2.0334,-2.0334,-2.0337,-4.0014,-4.1283,-4.2022,-4.0449,-3.9748,-3.8593,-3.5457,-3.3866,-3.2387,-3.0067,0.0,-2.8198,-2.8425,-2.9084,-3.0493,-3.3215,0.0,-3.6748,-3.8438,-3.9499,-4.0129,-4.0129,-4.0225,-4.0301,-4.0301,-4.0301,-4.0301,-4.0301,-4.0301,-4.0301,-4.0301,-4.0301,-4.0301,-4.0301,-4.0301,-4.0301,-4.0301,-4.0301,-3.9862,-3.9011,-3.8877,-3.8006,-3.6506,-3.6391,-3.5967,-3.5308,0.0,0.0,-3.5308,-3.5308,-3.5308,-3.5308,-3.5308,-3.533,-3.5412,-3.5476,-3.5064,-3.4469,-3.4346,-3.3377,-3.2038,-3.1228,-3.0893,-3.08,-3.08,-3.08,-3.08,-3.08,-3.08,-3.0781,-3.0664,-2.9474,-2.8264,-2.8147,-2.6878,-2.5707,-2.5707,-2.5707,-2.5707,-2.5707,-2.5707,-2.5414,-2.4553,-2.3676,-2.2838,-2.2017,-2.1159,-2.0594,-2.0594,-2.0598,-2.0584,-2.0527,-2.0505,-2.0519,-2.0504,-2.0503,-2.0503,-2.0503,-2.0503,-2.05,-2.0493,-2.0493,-2.049,-2.0506,-2.0506,-2.0467,-2.0409,-2.04,-2.0408,-2.0414,-2.0392,-2.0366,-4.1738,-4.2174,-4.2174,-4.1207,-3.8888,-3.6329,-3.4358,-3.1667,0.0,0.0,0.0,-2.5094,-2.6488,-2.691,-2.8101,-3.1333,0.0,0.0,0.0,0.0,-3.924,0.0,0.0,0.0,0.0,0.0,0.0,0.0,0.0,0.0,-4.0301,-4.0301,-4.0301,-4.0301,-4.0301,-4.0301,-4.0301,-4.0301,-3.9862,-3.8992,-3.8266,-3.7413,-3.6487,-3.5809,-3.5423,-3.5308,0.0,0.0,-3.5308,-3.5308,-3.5308,-3.5308,-3.5308,-3.533,-3.5412,-3.5474,-3.5445,-3.5178,-3.3814,-3.3191,-3.2872,-3.2125,-3.1394,-3.08,-3.08,-3.08,-3.08,-3.08,-3.08,-3.0645,-2.9982,-2.9064,-2.8127,-2.7406,-2.645,-2.5707,-2.5707,-2.5707,-2.5707,-2.5707,-2.5707,-2.5414,-2.4553,-2.3676,-2.2838,-2.2017,-2.1159,-2.0594,-2.0594,-2.0598,-2.0602,-2.0585,-2.0586,-2.0565,-2.0502,-2.0501,-2.0501,-2.0501,-2.0501,-2.05,-2.0498,-2.0498,-2.0535,-2.059,-2.0538,-2.0485,-2.0471,-2.0488,-2.0485,-2.0483,-2.0432,-2.0391,-4.1776,-4.2079,-4.1996,-4.0328,-3.8035,-3.5533,-3.2975,0.0,0.0,0.0,0.0,-2.336,-2.4176,0.0,0.0,0.0,0.0,0.0,0.0,0.0,0.0,0.0,0.0,0.0,0.0,0.0,0.0,0.0,0.0,0.0,-4.0301,-4.0301,-4.0301,-4.0301,-4.0301,-4.0301,-4.0301,-4.0301,-3.9632,-3.8323,-3.7903,-3.7041,-3.5815,-3.5433,-3.525,-3.5246,0.0,0.0,-3.5246,-3.5246,-3.5246,-3.5246,-3.5246,-3.5289,-3.5346,-3.5388,-3.5446,-3.5309,-3.4098,-3.3421,-3.2979,-3.223,-3.1459,-3.0796,-3.0801,-3.0806,-3.0791,-3.0795,-3.0799,-3.0606,-2.9807,-2.8947,-2.8088,-2.7211,-2.6333,-2.5707,-2.5707,-2.5707,-2.5707,-2.5707,-2.5707,-2.557,-2.5159,-2.3989,-2.2974,-2.2584,-2.1432,-2.0594,-2.0594,-2.0595,-2.0598,-2.06,-2.0601,-2.0583,-2.0546,-2.0546,-2.0546,-2.0546,-2.0546,-2.0546,-2.0547,-2.0547,-2.0566,-2.0604,-2.056,-2.0533,-2.0501,-2.0506,-2.0508,-2.0492,-2.0474,-2.0432,-4.1321,-4.1662,-4.1598,-3.9277,-3.7306,-3.504,-3.1705,-2.8881,0.0,0.0,-2.3127,-2.2008,-2.2189,0.0,-2.3895,0.0,0.0,0.0,0.0,0.0,0.0,0.0,0.0,0.0,0.0,0.0,0.0,0.0,0.0,0.0,0.0,-4.0301,-4.0301,-4.0301,-4.0301,-4.0301,-4.0301,-4.011,-3.924,-3.7693,-3.7521,-3.6661,-3.5209,-3.5209,-3.5209,-3.5209,0.0,0.0,0.0,-3.5209,-3.5209,-3.5209,-3.5209,-3.5234,-3.5312,-3.5312,-3.5339,-3.5259,-3.4276,-3.3521,-3.2845,-3.1907,-3.1211,-3.0767,-3.0765,-3.078,-3.0776,-3.0806,-3.0678,-3.0353,-2.9534,-2.8674,-2.7795,-2.6938,-2.6196,-2.5707,-2.5707,-2.5707,-2.5707,-2.5707,-2.5707,-2.5707,-2.5707,-2.4419,-2.3326,-2.313,-2.1823,-2.0808,-2.0613,-2.0594,-2.0594,-2.0594,-2.0594,-2.0594,-2.0594,-2.0594,-2.0594,-2.0594,-2.0594,-2.0596,-2.0599,-2.0599,-2.0601,-2.0604,-2.0605,-2.0564,-2.0518,-2.0529,-2.0519,-2.0528,-2.051,-2.0471,-4.0999,-4.1245,-4.0896,-3.9145,-3.6851,-3.4169,-3.0871,0.0,0.0,-2.3089,-2.1396,-2.0448,-2.1187,-2.1428,-2.2329,0.0,0.0,-2.7912,0.0,0.0,0.0,0.0,0.0,0.0,0.0,0.0,0.0,0.0,0.0,0.0,0.0,-4.0301,-4.0301,-4.0301,-4.0301,-4.0301,-4.0301,-3.9508,-3.8648,-3.7693,-3.6967,-3.6118,-3.5209,-3.5209,-3.5209,-3.5209,0.0,0.0,0.0,-3.5209,-3.5209,-3.5209,-3.5209,-3.5234,-3.5312,-3.5312,-3.5339,-3.5163,-3.357,-3.3011,-3.2742,-3.1153,-3.0613,-3.063,-3.07,-3.0711,-3.0717,-3.0776,-3.0265,-2.9514,-2.8635,-2.7776,-2.6899,-2.6039,-2.5765,-2.5707,-2.5707,-2.5707,-2.5707,-2.5707,-2.5707,-2.5707,-2.5707,-2.4906,-2.4008,-2.3228,-2.2349,-2.149,-2.0691,-2.0594,-2.0594,-2.0594,-2.0594,-2.0594,-2.0594,-2.0594,-2.0594,-2.0594,-2.0594,-2.0596,-2.0599,-2.0599,-2.0601,-2.0604,-2.0605,-2.0605,-2.0581,-2.0599,-2.0596,-2.0591,-2.0521,-2.0507,-3.8812,-3.9304,-3.9286,-3.7609,-3.5666,-3.3449,-3.0644,0.0,-2.4529,-2.2861,-2.0751,-1.9325,-1.9647,-1.9741,-2.0295,-2.1839,-2.3664,-2.5907,-2.8803,0.0,0.0,0.0,0.0,0.0,0.0,0.0,0.0,0.0,0.0,0.0,0.0,-4.0301,-4.0301,-4.0301,-4.0301,-4.0053,-3.9527,-3.9164,-3.8323,-3.6967,-3.6653,-3.6042,-3.5209,-3.5209,-3.5209,-3.5209,0.0,0.0,0.0,-3.5209,-3.5209,-3.5209,-3.5209,-3.5218,-3.5234,-3.5234,-3.4948,-3.4388,-3.3245,-3.2538,-3.1968,-3.0769,-3.0392,-3.0447,-3.0591,-3.0678,-3.07,-3.0737,-3.0165,-2.9331,-2.847,-2.7204,-2.6073,-2.5722,-2.5642,-2.5642,-2.5642,-2.5666,-2.569,-2.5697,-2.5701,-2.5704,-2.5706,-2.4984,-2.4105,-2.3228,-2.2427,-2.1587,-2.0707,-2.0609,-2.0588,-2.0545,-2.0571,-2.0594,-2.0594,-2.0594,-2.0594,-2.0594,-2.0594,-2.0594,-2.0596,-2.0596,-2.0598,-2.0602,-2.0603,-2.0604,-2.0605,-2.0605,-2.0605,-2.0605,-2.0562,-2.0534,-3.6908,-3.7666,-3.7912,-3.6244,-3.4567,-3.2672,0.0,-2.7024,-2.4207,-2.2779,-2.0462,-1.8694,-1.8694,-1.8744,-1.9077,-1.9934,-2.1793,-2.4114,-2.6918,0.0,0.0,0.0,0.0,0.0,0.0,0.0,0.0,0.0,0.0,0.0,0.0,-4.0301,-4.0301,-4.0301,-4.0053,-3.9623,-3.9011,-3.8514,-3.7665,-3.65,-3.6233,-3.5793,-3.5209,-3.5209,-3.5209,0.0,0.0,0.0,0.0,-3.5209,-3.5209,-3.5209,-3.5209,-3.5209,-3.5171,-3.4923,-3.4488,-3.3838,-3.2785,-3.2067,-3.1469,-3.058,-3.0292,-3.0324,-3.0479,-3.0558,-3.0626,-3.0649,-2.9878,-2.8807,-2.7697,-2.6491,-2.5576,-2.5561,-2.5561,-2.5561,-2.5561,-2.5613,-2.5666,-2.568,-2.569,-2.5699,-2.5706,-2.5198,-2.4398,-2.3267,-2.2621,-2.1858,-2.0742,-2.0584,-2.0543,-2.0517,-2.0545,-2.057,-2.0591,-2.0593,-2.0594,-2.0594,-2.0594,-2.0594,-2.0594,-2.0594,-2.0596,-2.0599,-2.0599,-2.06,-2.0601,-2.0601,-2.0603,-2.0604,-2.0605,-2.0564,-3.577,-3.6813,-3.7011,-3.5325,-3.3657,-3.1753,0.0,-2.6107,-2.348,-2.2665,-2.0462,-1.8694,-1.8694,-1.8744,-1.9049,-1.9865,-2.0754,-2.2525,-2.5926,0.0,0.0,0.0,0.0,0.0,0.0,0.0,0.0,0.0,0.0,0.0,0.0,0.0,-4.0301,-4.0301,-3.947,-3.9011,-3.9011,-3.734,-3.6519,-3.6481,-3.5621,-3.5209,-3.5209,-3.5209,0.0,0.0,0.0,0.0,0.0,-3.5209,-3.5209,-3.5209,-3.5209,-3.5209,-3.5095,-3.4312,-3.4018,-3.3761,-3.2096,-3.155,-3.1469,-3.058,-3.0292,-3.0292,-3.0292,-3.0352,-3.0418,-3.0487,-2.9298,-2.7635,-2.5962,-2.5502,-2.5505,-2.5501,-2.5504,-2.5504,-2.5504,-2.5549,-2.5595,-2.5598,-2.5658,-2.5694,-2.5705,-2.5687,-2.5102,-2.3365,-2.3088,-2.2498,-2.08,-2.0542,-2.0498,-2.0498,-2.0498,-2.0521,-2.0586,-2.059,-2.0594,-2.0594,-2.0594,-2.0594,-2.0594,-2.0594,-2.0596,-2.0599,-2.0599,-2.06,-2.0601,-2.0601,-2.0603,-2.0604,-2.0605,-2.0605,-3.2482,-3.3373,-3.3714,-3.2634,-3.1526,-3.0048,-2.7555,-2.5281,-2.3291,-2.1907,-1.9628,-1.788,-1.788,-1.7406,-1.7307,-1.8156,-1.9976,0.0,0.0,0.0,0.0,0.0,0.0,0.0,0.0,0.0,0.0,0.0,0.0,0.0,0.0,0.0,-3.9328,-3.9403,-3.9145,-3.8457,-3.7302,-3.6767,-3.6194,-3.5602,-3.5335,-3.5209,-3.5209,-3.5209,0.0,0.0,0.0,0.0,0.0,-3.5209,-3.5209,-3.5209,-3.5209,-3.4866,-3.435,-3.409,-3.3268,-3.2213,-3.1632,-3.1092,-3.0609,-3.0315,-3.0219,-3.0219,-3.0219,-3.0318,-3.029,-2.9771,-2.8796,-2.7679,-2.6605,-2.5882,-2.5445,-2.5483,-2.5506,-2.5506,-2.5506,-2.5527,-2.5557,-2.5582,-2.5625,-2.5626,-2.5634,-2.5639,-2.5054,-2.3359,-2.3098,-2.2486,-2.0745,-2.0501,-2.0494,-2.0509,-2.0492,-2.0531,-2.0584,-2.0607,-2.061,-2.0594,-2.0594,-2.0594,-2.0594,-2.0594,-2.0594,-2.0596,-2.0596,-2.0596,-2.0596,-2.0596,-2.0598,-2.0601,-2.0603,-2.0604,-2.9926,-3.0844,-3.1261,-3.0465,-2.9366,-2.8029,-2.6178,-2.4207,-2.2457,-2.1415,-1.9476,-1.7956,-1.7956,-1.726,-1.6966,-1.7814,-1.9556,0.0,0.0,0.0,0.0,0.0,0.0,0.0,0.0,0.0,0.0,0.0,0.0,0.0,0.0,0.0,-3.8233,-3.7983,-3.7983,-3.7487,-3.6429,-3.6141,-3.5738,-3.5204,-3.5201,-3.5201,-3.5204,0.0,0.0,0.0,0.0,0.0,0.0,-3.5209,-3.5209,-3.5209,-3.5209,-3.4713,-3.3956,-3.3624,-3.2649,-3.1408,-3.1064,-3.0624,-3.0211,-3.0211,-3.0211,-3.0211,-3.0211,-3.0266,-3.0151,-2.9317,-2.8695,-2.8014,-2.69,-2.6217,-2.5746,-2.5465,-2.5397,-2.5397,-2.5397,-2.5419,-2.5437,-2.5475,-2.5502,-2.5511,-2.5515,-2.5522,-2.4958,-2.3285,-2.3023,-2.2389,-2.065,-2.0422,-2.0412,-2.0426,-2.041,-2.0437,-2.0483,-2.0527,-2.056,-2.0564,-2.0589,-2.0591,-2.0591,-2.0593,-2.0594,-2.0594,-2.0594,-2.0594,-2.0594,-2.0595,-2.0597,-2.0599,-2.0601,-2.0601,0.0,-2.9039,-2.952,-2.8706,-2.7294,-2.5861,-2.5009,-2.2937,0.0,-2.1119,-1.9831,-1.8689,-1.8689,-1.8046,-1.778,-1.8633,0.0,0.0,0.0,0.0,0.0,0.0,0.0,0.0,0.0,0.0,0.0,0.0,0.0,0.0,0.0,0.0,0.0,-3.6302,-3.6235,-3.6197,-3.6215,-3.5536,-3.52,-3.52,-3.5196,-3.5196,-3.52,0.0,0.0,0.0,0.0,0.0,0.0,-3.5209,-3.5209,-3.5209,-3.5209,-3.4674,-3.3815,-3.3005,-3.2107,-3.1209,-3.0452,-3.0211,-3.0211,-3.0211,-3.0211,-3.0211,-3.0211,-3.0211,-3.0032,-2.9223,-2.8949,-2.8542,-2.6993,-2.6546,-2.6284,-2.5417,-2.5192,-2.5192,-2.5192,-2.5248,-2.5298,-2.5296,-2.5354,-2.5395,-2.5401,-2.5408,-2.4846,-2.3237,-2.2988,-2.2378,-2.0688,-2.0421,-2.0392,-2.0392,-2.0334,-2.0302,-2.0301,-2.0413,-2.0497,-2.0483,-2.0556,-2.0603,-2.0605,-2.059,-2.0593,-2.0594,-2.0594,-2.0594,-2.0594,-2.0597,-2.0599,-2.0599,-2.0601,-2.0601,-2.53,0.0,-2.7646,-2.6847,-2.5838,-2.467,0.0,-2.1926,-2.0879,-2.0263,-1.9337,-1.8618,-1.8618,-1.7971,-1.7914,-1.9381,0.0,0.0,0.0,0.0,0.0,0.0,0.0,0.0,0.0,0.0,0.0,0.0,0.0,0.0,0.0,0.0,0.0,-3.6079,-3.5513,-3.5287,-3.5378,-3.5215,-3.5147,-3.52,-3.5155,-3.5155,-3.52,0.0,0.0,0.0,0.0,0.0,-3.5209,-3.5209,-3.5209,-3.5209,-3.5209,-3.4304,-3.2986,-3.2776,-3.1763,-3.0452,-3.0268,-3.0211,-3.0211,-3.0211,-3.0211,-3.0211,-3.0211,-3.0211,-3.0173,-2.9956,-2.9414,-2.8669,-2.7676,-2.6961,-2.6284,-2.5417,-2.5192,-2.5192,-2.5192,-2.5203,-2.5243,-2.5298,-2.5317,-2.534,-2.5393,-2.5401,-2.5034,-2.3979,-2.3828,-2.3426,-2.2342,-2.1637,-2.122,-2.122,-2.0662,-2.0307,-2.031,-2.038,-2.0422,-2.0418,-2.049,-2.0546,-2.0604,-2.0606,-2.0609,-2.0594,-2.0594,-2.0594,-2.0594,-2.0594,-2.0595,-2.0595,-2.0596,-2.0596,-2.3715,-2.463,-2.5358,-2.5286,-2.4369,-2.3229,-2.2316,-2.1176,-2.0199,-1.9794,-1.9394,-1.9092,-1.9105,-1.8742,0.0,0.0,0.0,0.0,0.0,0.0,0.0,0.0,0.0,0.0,0.0,0.0,0.0,0.0,0.0,0.0,0.0,0.0,0.0,0.0,-3.5004,-3.4878,-3.5011,-3.5048,-3.5075,-3.512,-3.5092,-3.5092,-3.512,0.0,0.0,0.0,0.0,0.0,-3.517,-3.5187,-3.5196,-3.5157,-3.4781,-3.3853,-3.2661,-3.2298,-3.1331,-3.0211,-3.0211,-3.0211,-3.0211,-3.0211,-3.0211,-3.0211,-3.0211,-3.0211,-3.0211,-3.0211,-2.986,-2.923,-2.8001,-2.7376,-2.6739,-2.5499,-2.5198,-2.5198,-2.5198,-2.5198,-2.5204,-2.525,-2.5255,-2.5271,-2.5302,-2.5307,-2.5019,-2.414,-2.4015,-2.3698,-2.2815,-2.2307,-2.1861,-2.1482,-2.106,-2.0638,-2.0248,-2.0273,-2.0334,-2.0403,-2.0433,-2.0478,-2.0543,-2.0547,-2.0554,-2.0543,-2.0546,-2.0568,-2.059,-2.0593,-2.0594,-2.0594,-2.0594,-2.0594,-2.2807,-2.31,-2.3318,-2.4169,-2.3334,-2.2296,-2.2166,-2.0849,-1.9669,-1.9741,0.0,-1.9701,-1.9838,-1.9962,0.0,0.0,0.0,0.0,0.0,0.0,0.0,0.0,0.0,0.0,0.0,0.0,0.0,0.0,0.0,0.0,0.0,0.0,0.0,0.0,-3.4623,-3.471,-3.4841,-3.4936,-3.4992,-3.5001,-3.5057,-3.5057,-3.5001,-3.5057,0.0,0.0,0.0,0.0,-3.4902,-3.4965,-3.4905,-3.4751,-3.4047,-3.3272,-3.2432,-3.1752,-3.0949,-3.0211,-3.0211,-3.0211,-3.0211,-3.0211,-3.0211,-3.0211,-3.0211,-3.0211,-3.0211,-3.0211,-3.0211,-2.9803,-2.8141,-2.7701,-2.7281,-2.5612,-2.5191,-2.5191,-2.5191,-2.5191,-2.5191,-2.5191,-2.5191,-2.5191,-2.5191,-2.5191,-2.4956,-2.4205,-2.411,-2.3823,-2.3097,-2.2887,-2.2486,-2.1674,-2.1464,-2.1058,-2.017,-2.0159,-2.0241,-2.0357,-2.0372,-2.041,-2.0474,-2.0467,-2.0462,-2.0477,-2.0489,-2.0537,-2.0583,-2.059,-2.0594,-2.0594,-2.0594,-2.0594,-2.2465,-2.2811,-2.301,-2.3997,-2.3998,-2.3593,-2.2914,-2.1499,-2.0365,0.0,0.0,0.0,0.0,-2.1139,0.0,0.0,0.0,0.0,0.0,0.0,0.0,0.0,0.0,0.0,0.0,0.0,0.0,0.0,0.0,0.0,0.0,0.0,0.0,0.0,0.0,-3.4517,-3.4636,-3.4831,-3.4945,-3.5001,-3.4945,-3.4964,-3.5001,-3.4945,-3.4955,0.0,0.0,-3.4639,-3.4008,-3.4016,-3.3604,-3.2996,-3.287,-3.2352,-3.1675,-3.1541,-3.0949,-3.0211,-3.0211,-3.0211,-3.0211,-3.0211,-3.0211,-3.0211,-3.0211,-3.0211,-3.0211,-3.0211,-3.0211,-2.9803,-2.8141,-2.7701,-2.7281,-2.5612,-2.5191,-2.5191,-2.5191,-2.5191,-2.5191,-2.5191,-2.5191,-2.5191,-2.5191,-2.5191,-2.5153,-2.5019,-2.5,-2.4943,-2.4828,-2.4167,-2.3365,-2.2505,-2.1803,-2.1058,-2.017,-2.0159,-2.0214,-2.0226,-2.0284,-2.0324,-2.0324,-2.0324,-2.0366,-2.0411,-2.0478,-2.0516,-2.0529,-2.0567,-2.0594,-2.0594,-2.0594,-2.0594,-2.1143,-2.1733,-2.2276,-2.3173,-2.3666,-2.3838,-2.3474,-2.2163,-2.1051,0.0,0.0,0.0,0.0,0.0,0.0,0.0,0.0,0.0,0.0,0.0,0.0,0.0,0.0,0.0,0.0,0.0,0.0,0.0,0.0,0.0,0.0,0.0,0.0,0.0,0.0,-3.4209,-3.4374,-3.452,-3.467,-3.4879,-3.4859,-3.4859,-3.4879,-3.483,-3.4781,-3.48,0.0,-3.4377,-3.3648,-3.3721,-3.3546,-3.3151,-3.2243,-3.1981,-3.197,-3.1032,-3.0449,-3.0147,-3.0098,-3.0132,-3.0147,-3.0147,-3.0142,-3.0157,-3.0157,-3.0171,-3.0211,-3.0211,-3.0211,-2.9803,-2.8141,-2.7701,-2.7281,-2.5612,-2.5191,-2.5191,-2.5191,-2.5191,-2.5191,-2.5191,-2.5191,-2.5191,-2.5191,-2.5191,-2.5191,-2.5191,-2.5191,-2.5191,-2.5191,-2.4841,-2.4096,-2.2734,-2.2281,-2.1512,-2.0208,-2.0126,-2.0158,-2.019,-2.0258,-2.0299,-2.0295,-2.0296,-2.0301,-2.0349,-2.0412,-2.0461,-2.0498,-2.0527,-2.0558,-2.0558,-2.0558,-2.0559,-1.9808,-2.0617,-2.1423,-2.221,-2.327,-2.4067,-2.4067,-2.3017,-2.2103,0.0,0.0,0.0,0.0,0.0,0.0,0.0,0.0,0.0,0.0,0.0,0.0,0.0,0.0,0.0,0.0,0.0,0.0,0.0,0.0,0.0,0.0,0.0,0.0,0.0,0.0,0.0,-3.4099,-3.4185,-3.4416,-3.4758,-3.4747,-3.4747,-3.4758,-3.4666,-3.4572,-3.4506,-3.4591,-3.4053,-3.3202,-3.3507,-3.3468,-3.3111,-3.2004,-3.186,-3.2072,-3.0514,-2.9964,-2.9999,-2.9956,-2.9972,-3.0038,-3.0087,-3.0091,-3.0094,-3.0101,-3.015,-3.0178,-3.0204,-3.0211,-2.986,-2.837,-2.7829,-2.7319,-2.5835,-2.5344,-2.5191,-2.5191,-2.5191,-2.5191,-2.5191,-2.5191,-2.5191,-2.5191,-2.5191,-2.5191,-2.5191,-2.5191,-2.5191,-2.5191,-2.5191,-2.4612,-2.3078,-2.2906,-2.2238,-2.0556,-2.0394,-2.0327,-2.0182,-2.0211,-2.0246,-2.0246,-2.0246,-2.0253,-2.0285,-2.0323,-2.038,-2.0444,-2.0443,-2.0441,-2.0441,-2.0441,-2.056,-1.8977,-1.9766,-2.0572,-2.1387,-2.327,-2.49,-2.49,-2.4248,-2.386,-2.4671,0.0,0.0,0.0,0.0,0.0,0.0,0.0,0.0,0.0,0.0,0.0,0.0,0.0,0.0,0.0,0.0,0.0,0.0,0.0,0.0,0.0,0.0,0.0,0.0,0.0,0.0,-3.3834,-3.3959,-3.4221,-3.4623,-3.4539,-3.455,-3.4612,-3.4484,-3.434,-3.4233,-3.4293,-3.3512,-3.2263,-3.3086,-3.2647,-3.1545,-3.218,-3.1956,-3.1166,-3.0115,-2.9724,-2.9735,-2.9724,-2.9775,-2.9861,-3.0038,-3.0102,-3.011,-3.0094,-3.0109,-3.0116,-3.0178,-3.0211,-2.9994,-2.9051,-2.8268,-2.7472,-2.6536,-2.574,-2.5191,-2.5191,-2.5191,-2.5191,-2.5191,-2.5191,-2.5191,-2.5191,-2.5191,-2.5191,-2.5191,-2.5191,-2.5191,-2.5191,-2.5191,-2.4841,-2.3919,-2.3799,-2.3135,-2.1445,-2.1248,-2.0895,-2.0155,-2.0102,-2.0107,-2.0107,-2.0107,-2.0134,-2.0205,-2.0208,-2.0259,-2.0318,-2.0305,-2.0305,-2.0305,-2.0305,-2.0759,-1.9023,-1.9685,-2.0499,-2.1296,-2.289,-2.4375,-2.4882,-2.5153,-2.5534,-2.636,-2.6311,0.0,0.0,0.0,0.0,0.0,0.0,0.0,0.0,0.0,0.0,0.0,0.0,0.0,0.0,0.0,0.0,0.0,0.0,0.0,0.0,0.0,0.0,0.0,0.0,0.0,0.0,-3.3629,-3.359,-3.3364,-3.4015,-3.4328,-3.434,-3.4209,-3.4074,-3.3941,-3.3537,-3.2792,-3.1893,-3.2347,-3.2246,-3.1836,-3.2138,-3.1723,-3.0829,-2.987,-2.9551,-2.9561,-2.9523,-2.9589,-2.9691,-2.9808,-2.9887,-2.9918,-2.9967,-2.9996,-3.0042,-3.0125,-3.014,-2.9956,-2.9114,-2.8662,-2.8096,-2.6727,-2.6179,-2.5816,-2.5306,-2.5191,-2.5191,-2.5191,-2.5191,-2.5191,-2.5191,-2.5191,-2.5191,-2.5191,-2.5191,-2.5191,-2.5191,-2.5191,-2.4861,-2.399,-2.3422,-2.2824,-2.2198,-2.213,-2.1961,-2.1616,-2.1128,-2.0613,-2.0112,-2.0614,-2.069,-2.0209,-2.0203,-2.0204,-2.0249,-2.0276,-2.0296,-2.0315,-2.0849,-2.1288,-1.8715,-1.9132,-1.9739,-2.0536,-2.2111,-2.3723,-2.4755,-2.6023,-2.72,-2.7997,-2.816,-2.816,0.0,0.0,0.0,0.0,0.0,0.0,0.0,0.0,0.0,0.0,0.0,0.0,0.0,0.0,0.0,0.0,0.0,0.0,0.0,0.0,0.0,0.0,0.0,0.0,0.0,-3.3212,-3.2917,-3.2538,-3.3012,-3.3401,-3.3704,-3.3823,-3.366,-3.3282,-3.2821,-3.2097,-3.1249,-3.1938,-3.2445,-3.2713,-3.2189,-3.1595,-3.0913,-2.971,-2.9299,-2.931,-2.9289,-2.9341,-2.9433,-2.954,-2.9626,-2.9691,-2.9789,-2.9874,-2.9967,-3.0072,-3.0095,-2.9977,-2.9429,-2.9074,-2.8571,-2.7433,-2.6753,-2.6219,-2.5671,-2.5347,-2.5175,-2.5175,-2.5175,-2.5175,-2.5175,-2.5175,-2.5175,-2.5175,-2.5175,-2.5175,-2.5175,-2.5175,-2.4946,-2.4343,-2.3751,-2.3269,-2.3004,-2.2974,-2.2842,-2.2509,-2.2233,-2.1727,-2.0919,-2.1225,-2.1144,-2.0584,-2.0314,-2.0178,-2.0167,-2.0204,-2.0373,-2.0662,-2.1254,-2.1824,-1.79,-1.7918,-1.8117,-1.8932,-2.0934,0.0,-2.4664,-2.688,-2.8835,-2.9639,-2.9821,-2.9821,-2.9802,0.0,0.0,0.0,0.0,0.0,0.0,0.0,0.0,0.0,0.0,0.0,0.0,0.0,0.0,0.0,0.0,0.0,0.0,0.0,0.0,0.0,0.0,0.0,0.0,-3.2664,-3.2315,-3.2379,-3.1589,-3.1691,-3.2627,-3.3273,-3.3065,-3.2198,-3.2246,-3.1448,-3.0234,-3.1967,-3.3278,-3.4011,-3.2358,-3.164,-3.1387,-2.9637,-2.8957,-2.8917,-2.8968,-2.9007,-2.9038,-2.9241,-2.9343,-2.9443,-2.9645,-2.9735,-2.9842,-3.0049,-3.0095,-3.0095,-3.0095,-2.9459,-2.8817,-2.8798,-2.753,-2.6313,-2.6294,-2.5666,-2.5101,-2.5101,-2.5101,-2.5101,-2.5101,-2.5101,-2.5101,-2.5101,-2.5101,-2.5101,-2.5101,-2.5101,-2.5101,-2.5101,-2.5101,-2.4759,-2.3883,-2.3815,-2.3442,-2.2585,-2.3334,-2.3447,-2.2634,-2.1845,-2.1426,-2.1407,-2.0556,-2.0131,-2.0131,-2.0131,-2.0575,-2.1407,-2.1426,-2.2315,-1.8733,-1.9168,-1.992,-2.1296,0.0,0.0,0.0,-2.7676,0.0,0.0,-3.1089,-3.1324,0.0,0.0,0.0,0.0,0.0,0.0,0.0,0.0,0.0,0.0,0.0,0.0,0.0,0.0,0.0,0.0,0.0,0.0,0.0,0.0,0.0,0.0,0.0,0.0,-3.1709,-3.1483,-3.1111,-3.0576,-3.0902,-3.1551,-3.2464,-3.2042,-3.1969,-3.2144,-3.107,-3.0394,-3.0112,-3.1311,-3.1949,-3.2176,-3.1685,-3.109,-3.0411,-2.9289,-2.8846,-2.8834,-2.8858,-2.8887,-2.8957,-2.9048,-2.9178,-2.9278,-2.9394,-2.9503,-2.9617,-2.9783,-2.9818,-2.9818,-2.9818,-2.9628,-2.9328,-2.8901,-2.7987,-2.7055,-2.6427,-2.5666,-2.5101,-2.5101,-2.5101,-2.5101,-2.5101,-2.5101,-2.5101,-2.5101,-2.5101,-2.5101,-2.5101,-2.5101,-2.5101,-2.5101,-2.5101,-2.4975,-2.467,-2.4638,-2.4531,-2.4265,-2.4493,-2.3999,-2.2584,-2.2892,-2.2802,-2.2182,-2.191,-2.1796,-2.1796,-2.1796,-2.191,-2.2182,-2.2802,-2.3383,-1.9395,-2.0155,0.0,-2.2745,-2.432,-2.5896,-2.7514,0.0,0.0,0.0,0.0,0.0,0.0,0.0,0.0,0.0,0.0,0.0,0.0,0.0,0.0,0.0,0.0,0.0,0.0,0.0,0.0,0.0,0.0,0.0,0.0,0.0,0.0,0.0,0.0,0.0,-3.0961,-3.0677,-3.0273,-2.9802,-2.997,-3.0499,-3.1315,-3.1138,-3.113,-3.1179,-2.9937,-2.959,-2.9968,-3.0531,-3.0953,-3.1208,-3.0898,-3.044,-2.9873,-2.9028,-2.8712,-2.8712,-2.8712,-2.8749,-2.8798,-2.8822,-2.8917,-2.9014,-2.9141,-2.9249,-2.9324,-2.9492,-2.955,-2.955,-2.955,-2.957,-2.9513,-2.9266,-2.8575,-2.7759,-2.6894,-2.6046,-2.535,-2.5014,-2.4938,-2.4938,-2.4938,-2.4938,-2.4938,-2.4938,-2.4938,-2.4938,-2.4971,-2.4984,-2.4985,-2.5024,-2.5037,-2.5037,-2.4999,-2.4992,-2.5004,-2.5003,-2.5004,-2.4537,-2.3506,-2.3688,-2.3554,-2.3034,-2.2686,-2.2509,-2.2509,-2.2509,-2.2686,-2.3034,-2.3554,-2.4016,-1.9775,-2.0898,-2.1984,-2.3524,-2.5172,0.0,-2.8274,-2.9789,-3.1125,0.0,0.0,0.0,0.0,0.0,0.0,0.0,0.0,0.0,0.0,0.0,0.0,0.0,0.0,0.0,0.0,0.0,0.0,0.0,0.0,0.0,0.0,0.0,0.0,0.0,0.0,0.0,-3.0676,-3.0021,-2.9681,0.0,-2.8944,-2.8941,-2.9611,-3.0414,-3.0369,-2.9631,-2.8895,-2.8998,-2.9681,-2.9753,-3.017,-3.0726,-3.0056,-2.9766,-2.9603,-2.8871,-2.86,-2.86,-2.8587,-2.8587,-2.86,-2.8587,-2.865,-2.8731,-2.8922,-2.8996,-2.9027,-2.922,-2.9262,-2.9262,-2.9262,-2.9322,-2.9453,-2.9691,-2.9151,-2.8368,-2.7565,-2.6704,-2.5828,-2.4947,-2.477,-2.4751,-2.4684,-2.4665,-2.4665,-2.4665,-2.4665,-2.47,-2.4757,-2.4776,-2.4827,-2.4877,-2.4957,-2.5003,-2.5003,-2.5003,-2.5003,-2.5003,-2.5003,-2.4971,-2.4891,-2.4252,-2.3878,-2.3897,-2.3119,-2.2695,-2.2714,-2.272,-2.3131,-2.3909,-2.3909,-2.4334,-1.9095,-2.088,0.0,-2.4357,-2.6439,-2.8165,-2.8527,-2.9355,-3.0292,0.0,0.0,0.0,0.0,0.0,0.0,0.0,0.0,0.0,0.0,0.0,0.0,0.0,0.0,0.0,0.0,0.0,0.0,0.0,0.0,0.0,0.0,0.0,0.0,0.0,0.0,-2.895,-2.9016,-2.8848,-2.8815,0.0,-2.8634,-2.8595,-2.8763,-2.8938,-2.8912,-2.8697,-2.8522,-2.8562,-2.8825,-2.9457,-2.9483,-2.9161,-2.9608,-2.9409,-2.8835,-2.8654,-2.86,-2.8587,-2.8549,-2.8562,-2.8587,-2.8549,-2.8594,-2.8706,-2.8822,-2.8875,-2.8945,-2.9044,-2.9067,-2.9067,-2.9067,-2.9156,-2.9267,-2.9384,-2.8877,-2.8332,-2.8189,-2.7453,-2.6514,-2.5595,-2.541,-2.5214,-2.4561,-2.4449,-2.4449,-2.4449,-2.4449,-2.4485,-2.4553,-2.4668,-2.4746,-2.4802,-2.4922,-2.5003,-2.5003,-2.5003,-2.5003,-2.5003,-2.5003,-2.495,-2.4834,-2.466,-2.4585,-2.4582,-2.4357,-2.4256,-2.4311,-2.4313,-2.4424,-2.4661,-2.4726,-2.4847,-1.8787,-2.0862,0.0,-2.5559,0.0,-2.86,-2.86,-2.9228,0.0,0.0,0.0,0.0,0.0,0.0,0.0,0.0,0.0,0.0,0.0,0.0,0.0,0.0,0.0,0.0,0.0,0.0,0.0,0.0,0.0,0.0,0.0,0.0,0.0,0.0,-2.8345,-2.8367,-2.8388,-2.8445,-2.8471,-2.8497,-2.8471,-2.8445,-2.8419,-2.8445,-2.8432,-2.8411,-2.8411,-2.8419,-2.8495,-2.8948,-2.8902,-2.8598,-2.9052,-2.8974,-2.86,-2.86,-2.8574,-2.8549,-2.8505,-2.851,-2.8497,-2.851,-2.8543,-2.8607,-2.8687,-2.8724,-2.8761,-2.8798,-2.8798,-2.8798,-2.8798,-2.8893,-2.8991,-2.913,-2.8967,-2.8679,-2.8334,-2.782,-2.7146,-2.6213,-2.5714,-2.5318,-2.4903,-2.4543,-2.4293,-2.4293,-2.4293,-2.4339,-2.4401,-2.4495,-2.4594,-2.4695,-2.4795,-2.4853,-2.4853,-2.4853,-2.4853,-2.4853,-2.4853,-2.4809,-2.4665,-2.458,-2.4599,-2.4695,-2.4602,-2.4586,-2.4653,-2.4723,-2.4783,-2.4853,-2.495,-2.4991,-1.8461,-2.0843,-2.3622,-2.6645,-2.7894,0.0,-2.8582,-2.9119,0.0,0.0,0.0,0.0,0.0,0.0,0.0,0.0,0.0,0.0,0.0,0.0,0.0,0.0,0.0,0.0,0.0,0.0,0.0,0.0,0.0,0.0,0.0,0.0,-2.8196,-2.8196,-2.8246,-2.8286,-2.83,-2.8353,-2.838,-2.8411,-2.838,-2.834,-2.8286,-2.8345,-2.8371,-2.8371,-2.8371,-2.8384,-2.838,-2.8427,-2.8466,-2.8497,-2.8549,-2.8562,-2.8562,-2.8562,-2.8536,-2.8484,-2.8466,-2.8445,-2.8411,-2.8458,-2.8466,-2.8479,-2.8549,-2.8562,-2.8562,-2.8562,-2.8562,-2.8562,-2.8562,-2.8625,-2.8706,-2.8887,-2.9064,-2.9003,-2.8378,-2.8146,-2.7779,-2.683,-2.5894,-2.5246,-2.5246,-2.4626,-2.4123,-2.4123,-2.4123,-2.4152,-2.4219,-2.4293,-2.4391,-2.4505,-2.4578,-2.4626,-2.4599,-2.4599,-2.4599,-2.4599,-2.4626,-2.4578,-2.4444,-2.4301,-2.4319,-2.4471,-2.4382,-2.4382,-2.4452,-2.4586,-2.4684,-2.4742,-2.4887,-2.4943,-1.7628,0.0,-2.4266,0.0,-2.7477,-2.7731,0.0,0.0,0.0,0.0,0.0,0.0,0.0,0.0,0.0,0.0,0.0,0.0,0.0,0.0,0.0,0.0,0.0,0.0,0.0,0.0,0.0,0.0,0.0,0.0,0.0,-2.8196,-2.8196,-2.8196,-2.8209,-2.825,-2.83,-2.8313,-2.834,-2.8411,-2.834,-2.8273,-2.8209,-2.8223,-2.8223,-2.8223,-2.8223,-2.8264,-2.8313,-2.8327,-2.8367,-2.8406,-2.8419,-2.8437,-2.8437,-2.8437,-2.8419,-2.8411,-2.8353,-2.8353,-2.838,-2.834,-2.8367,-2.8424,-2.8419,-2.8437,-2.8437,-2.8437,-2.8437,-2.8437,-2.8437,-2.8484,-2.8562,-2.8637,-2.8669,-2.8737,-2.8845,-2.8769,-2.839,-2.7459,-2.6057,-2.5034,-2.5034,-2.4381,-2.3847,-2.3847,-2.3847,-2.3886,-2.3947,-2.4058,-2.4154,-2.4164,-2.4284,-2.4336,-2.4264,-2.4273,-2.4273,-2.4273,-2.4317,-2.4283,-2.4164,-2.4088,-2.4011,-2.3909,-2.4047,-2.4172,-2.4248,-2.4382,-2.4476,-2.4537,-2.4684,-2.4738,-1.7773,-2.0825,-2.365,0.0,-2.6717,-2.7495,-2.7857,0.0,0.0,0.0,0.0,0.0,0.0,0.0,0.0,0.0,0.0,0.0,0.0,0.0,0.0,0.0,0.0,0.0,0.0,0.0,0.0,0.0,0.0,0.0,-2.8196,-2.8196,-2.8196,-2.8196,-2.8196,0.0,-2.825,-2.825,-2.8264,-2.8291,-2.8264,-2.8237,-2.8196,-2.8196,-2.8196,-2.8196,-2.8196,-2.8209,-2.825,-2.8286,-2.8313,-2.834,-2.8398,-2.8411,-2.8411,-2.8411,-2.8384,-2.834,-2.8313,-2.8286,-2.8291,-2.83,-2.8313,-2.834,-2.838,-2.8411,-2.8411,-2.8411,-2.8411,-2.8411,-2.8411,-2.8419,-2.8445,-2.8471,-2.8484,-2.8523,-2.865,-2.865,-2.8377,-2.7464,-2.6718,-2.6087,-2.5636,-2.5275,-2.5041,-2.5041,-2.5041,-2.4901,-2.4505,-2.4548,-2.4439,-2.4034,-2.4078,-2.4126,-2.4088,-2.4088,-2.4088,-2.4088,-2.4126,-2.4078,-2.3949,-2.387,-2.3798,-2.3757,-2.3871,-2.3943,-2.3976,-2.4098,-2.4201,-2.422,-2.4398,-2.4474,-1.7312,-1.9956,-2.2156,-2.3723,-2.5316,-2.6536,0.0,0.0,0.0,0.0,0.0,0.0,0.0,0.0,0.0,0.0,0.0,0.0,0.0,0.0,0.0,0.0,0.0,0.0,0.0,0.0,0.0,0.0,0.0,0.0,-2.8196,-2.8196,-2.8196,-2.8196,-2.8196,-2.8196,-2.8196,-2.8196,-2.8196,-2.8196,-2.8196,-2.8196,-2.8196,-2.8196,-2.8196,-2.8196,-2.8196,-2.8196,-2.8196,-2.8246,-2.8273,-2.8273,-2.8331,-2.8358,-2.8358,-2.8358,-2.8331,-2.8273,-2.8273,-2.825,-2.8196,-2.8264,-2.8273,-2.8273,-2.8327,-2.8358,-2.8358,-2.8358,-2.8358,-2.8358,-2.8358,-2.8358,-2.8358,-2.8358,-2.8358,-2.8371,-2.838,-2.8445,-2.8278,-2.762,-2.7338,-2.6997,-2.6404,-2.6135,-2.5991,-2.5991,-2.5991,-2.5787,-2.5241,-2.5041,-2.4736,-2.4183,-2.399,-2.3884,-2.3873,-2.3873,-2.3873,-2.3873,-2.3884,-2.3852,-2.3728,-2.3678,-2.3664,-2.3645,-2.3718,-2.3761,-2.3765,-2.3888,-2.3951,-2.3961,-2.4136,-2.422,-1.5415,-1.7457,-1.9666,-2.1278,-2.2835,0.0,0.0,0.0,0.0,0.0,0.0,0.0,0.0,0.0,0.0,0.0,0.0,0.0,0.0,0.0,0.0,0.0,0.0,0.0,0.0,0.0,0.0,0.0,0.0,0.0,-2.8196,-2.8196,-2.8196,-2.8196,-2.8196,-2.8196,-2.8196,-2.8196,-2.8196,-2.8196,-2.8196,-2.8196,-2.8196,-2.8196,-2.8196,-2.8196,-2.8196,-2.8196,-2.8196,-2.8196,-2.8196,-2.8196,-2.8196,-2.8209,-2.8209,-2.8209,-2.8196,-2.8196,-2.8196,-2.8196,-2.8196,-2.8196,-2.8196,-2.8196,-2.8196,-2.8209,-2.8209,-2.8209,-2.8209,-2.8209,-2.8209,-2.8209,-2.8209,-2.8209,-2.8209,-2.8237,-2.8384,-2.8393,-2.8393,-2.8357,-2.7728,-2.7189,-2.714,-2.6512,-2.5991,-2.5991,-2.5991,-2.5991,-2.5937,-2.5272,-2.4794,-2.4747,-2.4066,-2.3596,-2.3539,-2.3539,-2.3539,-2.3539,-2.3585,-2.3585,-2.3528,-2.3573,-2.3573,-2.3517,-2.3573,-2.3641,-2.37,-2.3782,-2.3816,-2.3816,-2.3947,-2.4026,-1.3739,-1.5719,0.0,-1.8914,-2.0771,0.0,0.0,0.0,0.0,0.0,0.0,0.0,0.0,0.0,0.0,0.0,0.0,0.0,0.0,0.0,0.0,0.0,0.0,0.0,0.0,0.0,0.0,0.0,0.0,0.0,-2.7879,-2.7922,-2.7979,-2.8071,-2.8112,-2.8154,-2.8196,-2.8196,-2.8196,-2.8196,-2.8196,-2.8196,-2.8196,-2.8196,-2.8196,-2.8196,-2.8196,-2.8196,-2.8196,-2.8196,-2.8196,-2.8196,-2.8196,-2.8196,-2.8196,-2.8196,-2.8196,-2.8196,-2.8196,-2.8196,-2.8196,-2.8196,-2.8196,-2.8196,-2.8196,-2.8196,-2.8196,-2.8196,-2.8196,-2.8196,-2.8196,-2.8196,-2.8196,-2.8196,-2.8196,-2.8209,-2.8264,-2.8277,-2.8277,-2.8277,-2.8031,-2.7835,-2.7835,-2.7602,-2.7406,-2.7406,-2.7406,-2.7227,-2.6703,-2.6381,-2.5832,-2.4837,-2.4468,-2.4081,-2.3541,-2.3505,-2.3505,-2.3505,-2.3528,-2.3528,-2.3505,-2.3528,-2.3528,-2.3505,-2.3528,-2.3551,-2.3567,-2.3645,-2.3638,-2.3605,-2.37,-2.3743,-1.255,-1.4451,0.0,0.0,0.0,0.0,0.0,0.0,0.0,0.0,0.0,0.0,0.0,0.0,0.0,0.0,0.0,0.0,0.0,0.0,0.0,0.0,0.0,0.0,0.0,0.0,0.0,0.0,0.0,0.0,-2.7552,-2.7595,-2.773,-2.794,-2.8053,-2.8154,-2.8196,-2.8196,-2.8196,-2.8196,-2.8196,-2.8196,-2.8196,-2.8196,-2.8196,-2.8196,-2.8196,-2.8196,-2.8196,-2.8196,-2.82,-2.8154,-2.814,-2.8112,-2.8067,-2.8039,-2.8039,-2.8039,-2.8039,-2.8039,-2.8039,-2.8039,-2.8053,-2.8067,-2.8126,-2.814,-2.8168,-2.8182,-2.8196,-2.8196,-2.8196,-2.8168,-2.8126,-2.8126,-2.8126,-2.814,-2.8154,-2.8182,-2.8196,-2.8196,-2.8196,-2.8196,-2.8196,-2.8196,-2.8196,-2.8196,-2.8196,-2.7999,-2.7478,-2.7157,-2.6616,-2.5569,-2.5015,-2.448,-2.3951,-2.3666,-2.3505,-2.3505,-2.3505,-2.3505,-2.3505,-2.3505,-2.3505,-2.3505,-2.3505,-2.3505,-2.3505,-2.3539,-2.3539,-2.3505,-2.3539,-2.3562,0.0,0.0,0.0,0.0,0.0,0.0,0.0,0.0,0.0,0.0,0.0,0.0,0.0,0.0,0.0,0.0,0.0,0.0,0.0,0.0,0.0,0.0,0.0,0.0,0.0,0.0,0.0,0.0,0.0,-2.7386,-2.7197,-2.7274,-2.7441,-2.7789,-2.8053,-2.82,-2.82,-2.82,-2.82,-2.82,-2.82,-2.82,-2.82,-2.82,-2.82,-2.82,-2.82,-2.82,-2.82,-2.8213,-2.8154,-2.8085,-2.8028,-2.7908,-2.7789,-2.7716,-2.7686,-2.7686,-2.7686,-2.7686,-2.7686,-2.7686,-2.773,-2.7803,-2.7954,-2.8042,-2.8112,-2.8168,-2.8196,-2.8196,-2.8213,-2.8099,-2.8,-2.8,-2.8,-2.8014,-2.8085,-2.814,-2.8196,-2.8196,-2.8196,-2.8196,-2.8196,-2.8196,-2.8196,-2.8196,-2.8196,-2.8196,-2.8213,-2.75,-2.7014,-2.6996,-2.564,-2.473,-2.4712,-2.3969,-2.3505,-2.3505,-2.3505,-2.3505,-2.3494,-2.3494,-2.3494,-2.3494,-2.3494,-2.3494,-2.3494,-2.3494,-2.3505,-2.3505,-2.3505,-2.3505,-1.1903,0.0,0.0,0.0,0.0,0.0,0.0,0.0,0.0,0.0,0.0,0.0,0.0,0.0,0.0,0.0,0.0,0.0,0.0,0.0,0.0,0.0,0.0,0.0,0.0,0.0,0.0,0.0,-2.7198,-2.7055,-2.6841,-2.7101,-2.7338,-2.7569,-2.7748,-2.785,-2.785,-2.785,-2.785,-2.785,-2.785,-2.785,-2.785,-2.785,-2.785,-2.785,-2.785,-2.785,-2.7864,-2.8112,-2.8126,-2.7996,-2.785,-2.7704,-2.7554,-2.74,-2.7338,-2.7338,-2.7338,-2.7338,-2.7338,-2.7338,-2.7382,-2.7472,-2.7716,-2.7836,-2.7922,-2.814,-2.8196,-2.8168,-2.8085,-2.7908,-2.7777,-2.7721,-2.7748,-2.7789,-2.7879,-2.8053,-2.8196,-2.8196,-2.8196,-2.8196,-2.8196,-2.8196,-2.8196,-2.8196,-2.8196,-2.8168,-2.8126,-2.7889,-2.7489,-2.6921,-2.5949,-2.5146,-2.4675,-2.3928,-2.3505,-2.3505,-2.3505,-2.3482,-2.3436,-2.3436,-2.3395,-2.3348,-2.3348,-2.3324,-2.3289,-2.3436,-2.3505,-2.3505,-2.3505,-2.3505,-1.3184,0.0,0.0,0.0,0.0,0.0,0.0,0.0,0.0,0.0,0.0,0.0,0.0,0.0,0.0,0.0,0.0,0.0,0.0,0.0,0.0,0.0,0.0,0.0,0.0,0.0,0.0,0.0,-2.6842,-2.6674,-2.6539,-2.6825,-2.7053,-2.7197,-2.7102,-2.7175,-2.7491,-2.719,-2.719,-2.7491,-2.7491,-2.7491,-2.7491,-2.7491,-2.7491,-2.7491,-2.7491,-2.7491,-2.7507,-2.7704,-2.7795,-2.778,-2.7567,-2.7417,-2.7263,-2.7021,-2.694,-2.694,-2.6891,-2.6874,-2.6874,-2.6874,-2.6955,-2.7099,-2.7367,-2.7519,-2.7639,-2.7922,-2.7996,-2.7954,-2.7745,-2.7582,-2.743,-2.7371,-2.74,-2.7491,-2.758,-2.7803,-2.8039,-2.8168,-2.8196,-2.8196,-2.8196,-2.8196,-2.8196,-2.8196,-2.791,-2.7794,-2.8035,-2.7671,-2.7307,-2.7155,-2.6134,-2.5345,-2.4994,-2.4058,-2.3505,-2.3505,-2.3505,-2.3471,-2.3395,-2.3372,-2.3324,-2.3265,-2.3229,-2.3168,-2.3022,-2.3247,-2.336,-2.3336,-2.3336,-2.3348,-1.512,-1.5302,0.0,0.0,0.0,0.0,-1.487,-1.5684,0.0,0.0,0.0,0.0,0.0,0.0,0.0,0.0,0.0,0.0,0.0,0.0,0.0,0.0,0.0,0.0,0.0,0.0,-2.6798,-2.6573,-2.6454,-2.6365,-2.6313,-2.6521,-2.6674,-2.6656,-2.6265,-2.6371,-2.7029,-2.6371,-2.6408,-2.7149,-2.7133,-2.7133,-2.7133,-2.7117,-2.7117,-2.7117,-2.7117,-2.7117,-2.7117,-2.7117,-2.7246,-2.7417,-2.7213,-2.7054,-2.6892,-2.6624,-2.6538,-2.6504,-2.64,-2.6349,-2.6349,-2.6349,-2.647,-2.6674,-2.6956,-2.7132,-2.7288,-2.7565,-2.7639,-2.758,-2.7319,-2.7148,-2.7005,-2.694,-2.6972,-2.7053,-2.7177,-2.7426,-2.7701,-2.8011,-2.8095,-2.814,-2.814,-2.814,-2.814,-2.814,-2.746,-2.7152,-2.7741,-2.701,-2.6656,-2.7225,-2.6068,-2.5281,-2.5319,-2.4187,-2.3459,-2.3459,-2.3459,-2.3407,-2.3348,-2.3289,-2.3217,-2.3156,-2.3052,-2.2922,-2.2769,-2.2998,-2.3102,-2.3028,-2.3028,-2.3077,-1.5896,-1.5913,-1.5624,0.0,0.0,0.0,0.0,-1.4254,0.0,0.0,0.0,0.0,0.0,0.0,0.0,0.0,0.0,0.0,0.0,0.0,0.0,0.0,0.0,0.0,0.0,0.0,-2.5263,-2.5631,-2.6013,-2.6258,-2.6295,-2.6401,-2.6236,-2.5764,-2.5724,-2.5771,-2.5907,-2.5771,-2.6077,-2.6791,-2.6741,-2.6725,-2.6708,-2.6607,-2.6556,-2.6556,-2.6556,-2.6556,-2.6556,-2.6556,-2.6775,-2.7086,-2.6874,-2.6641,-2.64,-2.6189,-2.6082,-2.6026,-2.6008,-2.6008,-2.6008,-2.6008,-2.6063,-2.6207,-2.6522,-2.6708,-2.6873,-2.7213,-2.7307,-2.7244,-2.6971,-2.6757,-2.659,-2.647,-2.6487,-2.6556,-2.664,-2.6872,-2.7082,-2.7145,-2.7502,-2.7789,-2.7789,-2.7789,-2.7789,-2.7789,-2.7151,-2.6673,-2.6632,-2.6266,-2.5837,-2.5394,-2.5085,-2.4709,-2.4249,-2.3591,-2.318,-2.318,-2.318,-2.3114,-2.299,-2.2977,-2.2932,-2.2803,-2.2628,-2.2521,-2.2477,-2.2643,-2.2647,-2.2546,-2.2582,-2.2704,-1.8078,-1.7703,-1.6833,-1.5714,0.0,0.0,0.0,0.0,0.0,0.0,0.0,0.0,0.0,0.0,0.0,0.0,0.0,0.0,0.0,0.0,0.0,0.0,0.0,0.0,0.0,0.0,-2.4519,-2.4679,-2.4946,-2.5127,-2.5145,-2.5179,-2.5063,-2.4746,-2.4426,-2.4609,-2.5346,-2.4978,-2.5313,-2.6349,-2.6313,-2.6278,-2.6242,-2.6171,-2.6154,-2.6154,-2.6154,-2.6154,-2.6154,-2.6154,-2.6278,-2.6452,-2.6452,-2.633,-2.6118,-2.5921,-2.5828,-2.5791,-2.5768,-2.5749,-2.5749,-2.5749,-2.5789,-2.5903,-2.6174,-2.6384,-2.659,-2.6741,-2.6791,-2.6741,-2.6556,-2.6383,-2.6227,-2.6118,-2.6154,-2.6226,-2.6332,-2.6505,-2.6657,-2.6657,-2.6873,-2.7099,-2.7272,-2.7317,-2.7332,-2.7319,-2.6365,-2.5717,-2.5935,-2.5101,-2.4504,-2.4492,-2.4169,-2.3837,-2.3559,-2.3047,-2.2747,-2.2747,-2.2747,-2.2712,-2.259,-2.2567,-2.2487,-2.2354,-2.2215,-2.2115,-2.2046,-2.2068,-2.2139,-2.2206,-2.2234,-2.2375,0.0,0.0,0.0,0.0,0.0,-1.4667,0.0,0.0,0.0,-1.4607,0.0,0.0,0.0,0.0,0.0,0.0,0.0,0.0,0.0,0.0,0.0,0.0,0.0,0.0,0.0,0.0,-2.3811,-2.3801,-2.3785,-2.3851,-2.4,-2.4,-2.3934,-2.3785,-2.3205,-2.3537,-2.4878,-2.4265,-2.4645,-2.5992,-2.5956,-2.5901,-2.5862,-2.586,-2.5842,-2.5842,-2.5842,-2.5842,-2.5842,-2.5842,-2.5842,-2.586,-2.6063,-2.6063,-2.5919,-2.5756,-2.5701,-2.568,-2.5619,-2.5597,-2.5597,-2.5597,-2.564,-2.5738,-2.5901,-2.6101,-2.6296,-2.6296,-2.6296,-2.6261,-2.6136,-2.601,-2.5919,-2.586,-2.5881,-2.5954,-2.6063,-2.6171,-2.626,-2.626,-2.6261,-2.6384,-2.674,-2.6856,-2.6821,-2.6636,-2.5479,-2.472,-2.5053,-2.3887,-2.3212,-2.3648,-2.3297,-2.2991,-2.2932,-2.2561,-2.2313,-2.2313,-2.2313,-2.2286,-2.2234,-2.215,-2.2068,-2.1969,-2.1853,-2.1751,-2.1632,-2.1542,-2.1617,-2.1868,-2.1882,-2.2013,0.0,0.0,0.0,0.0,-1.6218,0.0,0.0,0.0,-1.4412,-1.4523,0.0,0.0,0.0,0.0,0.0,0.0,0.0,0.0,0.0,0.0,0.0,0.0,0.0,0.0,0.0,0.0,0.0,-2.2973,-2.3023,-2.3305,-2.3967,-2.4,-2.3702,-2.304,-2.294,-2.3288,-2.4116,-2.3918,-2.456,-2.5992,-2.5811,-2.5738,-2.5719,-2.5659,-2.5635,-2.5635,-2.5635,-2.5635,-2.5635,-2.5635,-2.5635,-2.5637,-2.586,-2.5846,-2.5738,-2.5719,-2.5661,-2.5616,-2.5597,-2.5597,-2.5597,-2.5597,-2.564,-2.5703,-2.5738,-2.5846,-2.5954,-2.5954,-2.5954,-2.5936,-2.5793,-2.5756,-2.5735,-2.5637,-2.5654,-2.5637,-2.5656,-2.5675,-2.5694,-2.5694,-2.5735,-2.5923,-2.6367,-2.6453,-2.6269,-2.5664,-2.4825,-2.3992,-2.3298,-2.2941,-2.2518,-2.1961,-2.2419,-2.2531,-2.2008,-2.202,-2.2039,-2.2039,-2.2039,-2.2027,-2.1955,-2.1884,-2.184,-2.1825,-2.1586,-2.1448,-2.1433,-2.1247,-2.1231,-2.1387,-2.1448,-2.1586,0.0,0.0,0.0,0.0,0.0,0.0,0.0,0.0,-1.4626,0.0,0.0,0.0,0.0,0.0,0.0,0.0,0.0,0.0,0.0,0.0,0.0,0.0,0.0,0.0,0.0,0.0,0.0,0.0,0.0,-2.1317,-2.2061,-2.2477,-2.2576,-2.2261,-2.226,-2.2777,-2.3869,-2.3819,-2.4475,-2.5811,-2.5738,-2.568,-2.564,-2.56,-2.5597,-2.5597,-2.5597,-2.5597,-2.5597,-2.5597,-2.5597,-2.5616,-2.5675,-2.5694,-2.564,-2.564,-2.5619,-2.5597,-2.5597,-2.5597,-2.5597,-2.5597,-2.5619,-2.564,-2.564,-2.5677,-2.5731,-2.5731,-2.5731,-2.5712,-2.5659,-2.564,-2.5621,-2.5616,-2.5597,-2.5597,-2.5597,-2.5597,-2.5597,-2.5597,-2.5619,-2.5696,-2.5899,-2.5646,-2.5303,-2.4937,-2.3901,-2.303,-2.2654,-2.2197,-2.1775,-2.1467,-2.1694,-2.1791,-2.1527,-2.1555,-2.1601,-2.1601,-2.1601,-2.1586,-2.154,-2.1509,-2.151,-2.151,-2.1356,-2.1262,-2.123,-2.1055,-2.099,-2.1006,-2.1151,-2.1309,-2.2293,0.0,0.0,0.0,0.0,0.0,0.0,0.0,0.0,0.0,0.0,0.0,0.0,0.0,0.0,0.0,0.0,0.0,0.0,0.0,0.0,0.0,0.0,0.0,0.0,0.0,0.0,0.0,0.0,0.0,-2.0635,-2.1187,-2.1567,-2.1783,-2.1753,-2.2401,-2.3753,-2.3753,-2.4406,-2.5701,-2.568,-2.564,-2.5597,-2.5597,-2.5597,-2.5597,-2.5597,-2.5597,-2.5597,-2.5597,-2.5597,-2.5597,-2.5597,-2.5597,-2.5597,-2.5597,-2.5597,-2.5597,-2.5597,-2.5597,-2.5597,-2.5597,-2.5597,-2.5597,-2.5597,-2.5597,-2.5597,-2.5597,-2.5597,-2.5597,-2.5597,-2.5597,-2.5597,-2.5597,-2.5597,-2.5597,-2.5597,-2.5597,-2.5597,-2.5597,-2.5597,-2.5597,-2.5597,-2.5234,-2.4848,-2.4549,-2.3624,-2.2831,-2.2409,-2.1908,-2.1488,-2.1278,-2.1246,-2.1246,-2.1246,-2.1246,-2.1246,-2.1246,-2.1246,-2.1246,-2.1246,-2.1246,-2.1246,-2.1246,-2.1167,-2.1071,-2.1022,-2.0893,-2.0795,-2.0728,-2.0909,-2.1071,0.0,0.0,0.0,-1.8392,0.0,0.0,0.0,0.0,-1.6819,0.0,0.0,0.0,0.0,0.0,0.0,0.0,0.0,0.0,0.0,0.0,0.0,0.0,0.0,0.0,0.0,0.0,0.0,0.0,0.0,0.0,-2.0586,-2.0664,-2.0968,-2.1676,-2.1634,-2.2277,-2.3686,-2.3634,-2.4317,-2.5701,-2.5621,-2.5597,-2.5597,-2.5597,-2.5597,-2.5597,-2.5597,-2.5597,-2.5597,-2.5597,-2.5597,-2.5597,-2.5597,-2.5597,-2.5597,-2.5597,-2.5597,-2.5597,-2.5597,-2.5597,-2.5597,-2.5597,-2.5597,-2.5597,-2.5597,-2.5597,-2.5597,-2.5597,-2.5597,-2.5597,-2.5597,-2.5597,-2.5597,-2.5597,-2.5597,-2.5597,-2.5597,-2.5597,-2.5597,-2.5597,-2.5597,-2.5597,-2.5597,-2.5581,-2.5324,-2.4614,-2.4468,-2.3914,-2.2488,-2.2278,-2.1971,-2.1199,-2.1119,-2.1119,-2.1119,-2.1119,-2.1119,-2.1119,-2.1119,-2.1119,-2.1119,-2.1119,-2.1119,-2.1119,-2.0974,-2.0877,-2.0811,-2.0744,-2.0644,-2.051,-2.0712,-2.0811,0.0,0.0,-2.0556,-1.9155,0.0,0.0,0.0,0.0,0.0,0.0,0.0,0.0,0.0,0.0,0.0,0.0,0.0,0.0,0.0,0.0,0.0,0.0,0.0,0.0,0.0,0.0,0.0,0.0,0.0,0.0,0.0,-2.0341,-2.0922,-2.1617,-2.162,-2.2245,-2.3618,-2.36,-2.4281,-2.5621,-2.5616,-2.5597,-2.5597,-2.5597,-2.5597,-2.5597,-2.5597,-2.5597,-2.5597,-2.5597,-2.5597,-2.5597,-2.5597,-2.5597,-2.5597,-2.5597,-2.5597,-2.5597,-2.5597,-2.5597,-2.5597,-2.5597,-2.5597,-2.5597,-2.5597,-2.5597,-2.5578,-2.5489,-2.547,-2.5451,-2.541,-2.5429,-2.547,-2.547,-2.5543,-2.5578,-2.5489,-2.547,-2.5451,-2.541,-2.5391,-2.5391,-2.5391,-2.5391,-2.5207,-2.4578,-2.4128,-2.3623,-2.3035,-2.25,-2.2063,-2.1739,-2.1211,-2.0892,-2.0892,-2.0892,-2.0892,-2.0892,-2.0892,-2.0892,-2.0892,-2.0892,-2.0892,-2.0892,-2.081,-2.0712,-2.0595,-2.0526,-2.0474,-2.0373,-2.0441,-2.051,-2.2349,-2.179,0.0,0.0,-1.9184,0.0,-1.7583,0.0,0.0,0.0,0.0,0.0,0.0,0.0,0.0,0.0,0.0,0.0,0.0,0.0,0.0,0.0,0.0,0.0,0.0,0.0,-1.51,-1.6321,0.0,0.0,0.0,0.0,-2.0457,-2.115,-2.1381,-2.2036,-2.3159,-2.3435,-2.4116,-2.5211,-2.5468,-2.5597,-2.5597,-2.5597,-2.5597,-2.5597,-2.5597,-2.5578,-2.5524,-2.5505,-2.5486,-2.5486,-2.5486,-2.5505,-2.5524,-2.5578,-2.5597,-2.5597,-2.5597,-2.5597,-2.5597,-2.5597,-2.5597,-2.5597,-2.5597,-2.5597,-2.5578,-2.5451,-2.5378,-2.5355,-2.5314,-2.5317,-2.5375,-2.5397,-2.5505,-2.5562,-2.5432,-2.5394,-2.5336,-2.524,-2.5201,-2.5182,-2.5182,-2.5182,-2.5099,-2.4823,-2.4424,-2.4001,-2.3636,-2.3097,-2.2514,-2.1951,-2.1407,-2.0978,-2.0726,-2.0695,-2.0695,-2.0695,-2.0695,-2.0695,-2.0695,-2.0695,-2.0678,-2.0661,-2.0644,-2.056,-2.0426,-2.0407,-2.0371,-2.0304,-2.0304,-2.0356]},{"header":{"parameterUnit":"m.s-1","parameterCategory":1,"la1":30.6,"la2":29.2853,"lo1":-89.7004,"lo2":-87.6739,"dy":0.0162,"dx":0.0183,"nx":112,"ny":82,"refTime":"2026-05-10T12:00:00:Z","depth":0,"parameterNumber":3,"parameterNumberName":"V-component_of_WINDS"},"data":[0.0,0.0,0.0,0.0,0.0,0.0,0.0,0.0,0.0,0.0,0.0,0.0,0.0,0.0,0.0,0.0,0.0,0.0,0.0,0.0,0.0,0.0,0.0,0.0,0.0,0.0,0.0,0.0,0.0,0.0,0.0,0.0,0.0,0.0,0.0,0.0,0.0,0.0,0.0,0.0,0.0,0.0,0.0,0.0,0.0,0.0,0.0,0.0,0.0,0.0,0.0,0.0,0.0,0.0,0.0,0.0,0.0,0.0,0.0,0.0,0.0,0.0,0.0,0.0,0.0,0.0,0.0,0.0,0.0,0.0,0.0,0.0,0.0,0.0,0.0,0.0,0.0,0.0,0.0,0.0,0.0,0.0,0.0,0.0,0.0,0.0,0.0,0.0,0.0,0.0,0.0,-0.7907,-0.8896,-0.9293,-0.8752,-0.8506,-0.8018,-0.7255,0.0,0.0,0.0,0.0,0.0,0.0,0.0,0.0,0.0,0.0,0.0,0.0,0.0,0.0,0.0,0.0,0.0,0.0,0.0,0.0,0.0,0.0,0.0,0.0,0.0,0.0,0.0,0.0,0.0,0.0,0.0,0.0,0.0,0.0,0.0,0.0,0.0,0.0,0.0,0.0,0.0,0.0,0.0,0.0,0.0,0.0,0.0,0.0,0.0,0.0,0.0,0.0,0.0,0.0,0.0,0.0,0.0,0.0,0.0,0.0,0.0,0.0,0.0,0.0,0.0,0.0,0.0,0.0,0.0,0.0,0.0,0.0,0.0,0.0,0.0,0.0,0.0,0.0,0.0,0.0,0.0,0.0,0.0,0.0,0.0,0.0,0.0,0.0,0.0,0.0,0.0,0.0,0.0,0.0,0.0,0.0,0.0,0.0,0.0,0.0,0.0,0.0,0.0,0.0,-0.7218,-0.8451,-0.9143,-0.9293,-0.8752,-0.8674,-0.8244,-0.7267,0.0,0.0,0.0,0.0,0.0,0.0,0.0,0.0,0.0,0.0,0.0,0.0,0.0,0.0,0.0,0.0,0.0,0.0,0.0,0.0,0.0,0.0,0.0,0.0,0.0,0.0,0.0,0.0,0.0,0.0,0.0,0.0,0.0,0.0,0.0,0.0,0.0,0.0,0.0,0.0,0.0,0.0,0.0,0.0,0.0,0.0,0.0,0.0,0.0,0.0,0.0,0.0,0.0,0.0,0.0,0.0,0.0,0.0,0.0,0.0,0.0,0.0,0.0,0.0,0.0,0.0,0.0,0.0,0.0,0.0,0.0,0.0,0.0,0.0,0.0,0.0,0.0,0.0,0.0,0.0,0.0,0.0,0.0,0.0,0.0,0.0,0.0,0.0,0.0,0.0,0.0,0.0,0.0,0.0,0.0,0.0,0.0,0.0,0.0,0.0,0.0,0.0,0.0,-0.7134,-0.7826,-0.8433,-0.8975,-0.9071,-0.8542,-0.8339,-0.7892,-0.7048,-0.6365,0.0,0.0,0.0,0.0,0.0,0.0,0.0,0.0,0.0,0.0,0.0,0.0,0.0,0.0,0.0,0.0,0.0,0.0,0.0,0.0,0.0,0.0,0.0,0.0,0.0,0.0,0.0,0.0,0.0,0.0,0.0,0.0,0.0,0.0,0.0,0.0,0.0,0.0,0.0,0.0,0.0,0.0,0.0,0.0,0.0,0.0,0.0,0.0,0.0,0.0,0.0,0.0,0.0,0.0,0.0,0.0,0.0,0.0,0.0,0.0,0.0,0.0,0.0,0.0,0.0,0.0,0.0,0.0,0.0,0.0,0.0,0.0,0.0,0.0,0.0,0.0,0.0,0.0,0.0,0.0,0.0,0.0,0.0,0.0,0.0,0.0,0.0,0.0,0.0,0.0,0.0,0.0,0.0,0.0,0.0,0.0,0.0,0.0,0.0,0.0,0.0,0.0,-0.7731,-0.8291,-0.8291,-0.8728,-0.8794,-0.8243,-0.7982,-0.752,-0.674,-0.608,0.0,0.0,0.0,0.0,0.0,0.0,0.0,0.0,0.0,0.0,0.0,0.0,0.0,0.0,0.0,0.0,0.0,0.0,0.0,0.0,0.0,0.0,0.0,0.0,0.0,0.0,0.0,0.0,0.0,0.0,0.0,0.0,0.0,0.0,0.0,0.0,0.0,0.0,0.0,0.0,0.0,0.0,0.0,0.0,0.0,0.0,0.0,0.0,0.0,0.0,0.0,0.0,0.0,0.0,0.0,0.0,0.0,0.0,0.0,0.0,0.0,0.0,0.0,0.0,0.0,0.0,0.0,0.0,0.0,0.0,0.0,0.0,0.0,0.0,0.0,0.0,0.0,0.0,0.0,0.0,0.0,0.0,0.0,0.0,0.0,0.0,0.0,0.0,0.0,0.0,0.0,0.0,0.0,0.0,0.0,0.0,0.0,0.0,0.0,0.0,0.0,0.0,-0.784,-0.8291,-0.8291,-0.8566,-0.8524,-0.7973,-0.7731,-0.7285,-0.6474,-0.5807,0.0,0.0,0.0,0.0,0.0,0.0,0.0,0.0,0.0,0.0,0.0,0.0,0.0,0.0,0.0,0.0,0.0,0.0,0.0,0.0,0.0,0.0,0.0,0.0,0.0,0.0,0.0,0.0,0.0,0.0,0.0,0.0,0.0,0.0,0.0,0.0,0.0,0.0,0.0,0.0,0.0,0.0,0.0,0.0,0.0,0.0,0.0,0.0,0.0,0.0,0.0,0.0,0.0,0.0,0.0,0.0,0.0,0.0,0.0,0.0,0.0,0.0,0.0,0.0,0.0,0.0,0.0,0.0,0.0,0.0,0.0,0.0,0.0,0.0,0.0,0.0,0.0,0.0,0.0,0.0,0.0,0.0,0.0,0.0,0.0,0.0,0.0,0.0,0.0,0.0,0.0,0.0,0.0,0.0,0.0,0.0,0.0,0.0,0.0,0.0,0.0,0.0,-0.7852,-0.8225,0.0,-0.8279,-0.8247,-0.7744,-0.7479,-0.7006,-0.6198,0.0,0.0,0.0,0.0,0.0,0.0,0.0,0.0,0.0,0.0,0.0,0.0,0.0,0.0,0.0,0.0,0.0,0.0,0.0,0.0,0.0,0.0,0.0,0.0,0.0,0.0,0.0,0.0,0.0,0.0,0.0,0.0,0.0,0.0,0.0,0.0,0.0,0.0,0.0,0.0,0.0,0.0,0.0,0.0,0.0,0.0,0.0,0.0,0.0,0.0,0.0,0.0,0.0,0.0,0.0,0.0,0.0,0.0,0.0,0.0,0.0,0.0,0.0,0.0,0.0,0.0,0.0,0.0,0.0,0.0,0.0,0.0,0.0,0.0,0.0,0.0,0.0,0.0,0.0,0.0,0.0,0.0,0.0,0.0,0.0,0.0,0.0,0.0,0.0,0.0,0.0,0.0,0.0,0.0,0.0,0.0,0.0,0.0,0.0,0.0,0.0,0.0,-0.6951,-0.7725,-0.8099,0.0,-0.8057,-0.7976,-0.7516,-0.723,-0.6732,-0.5918,0.0,0.0,0.0,0.0,0.0,0.0,0.0,0.0,0.0,0.0,0.0,0.0,0.0,0.0,0.0,0.0,0.0,0.0,0.0,0.0,0.0,0.0,0.0,0.0,0.0,0.0,0.0,0.0,0.0,0.0,0.0,0.0,0.0,0.0,0.0,0.0,0.0,0.0,0.0,0.0,0.0,0.0,0.0,0.0,0.0,0.0,0.0,0.0,0.0,0.0,0.0,0.0,0.0,0.0,0.0,0.0,0.0,0.0,0.0,0.0,0.0,0.0,0.0,0.0,0.0,0.0,0.0,0.0,0.0,0.0,0.0,0.0,0.0,0.0,0.0,0.0,0.0,0.0,0.0,0.0,0.0,0.0,0.0,0.0,0.0,0.0,0.0,0.0,0.0,0.0,0.0,0.0,0.0,0.0,0.0,0.0,0.0,0.0,0.0,0.0,0.0,0.0,-0.6679,-0.7435,-0.7895,-0.7901,-0.7901,-0.7711,-0.7249,-0.6963,-0.6465,0.0,0.0,0.0,0.0,0.0,0.0,0.0,0.0,0.0,0.0,0.0,0.0,0.0,0.0,0.0,0.0,0.0,0.0,0.0,0.0,0.0,0.0,0.0,0.0,0.0,0.0,0.0,0.0,0.0,0.0,0.0,0.0,0.0,0.0,0.0,0.0,0.0,0.0,0.0,0.0,0.0,0.0,0.0,0.0,0.0,0.0,0.0,0.0,0.0,0.0,0.0,0.0,0.0,0.0,0.0,0.0,0.0,0.0,0.0,0.0,0.0,0.0,0.0,0.0,0.0,0.0,0.0,0.0,0.0,0.0,0.0,0.0,0.0,0.0,0.0,0.0,0.0,0.0,0.0,0.0,0.0,0.0,0.0,0.0,0.0,0.0,0.0,0.0,0.0,0.0,0.0,0.0,0.0,0.0,0.0,0.0,0.0,0.0,0.0,0.0,0.0,0.0,0.0,0.0,-0.704,-0.7497,-0.7732,-0.7842,-0.7711,-0.7249,-0.7127,-0.6659,-0.5663,0.0,0.0,0.0,0.0,0.0,0.0,0.0,0.0,0.0,0.0,0.0,0.0,0.0,0.0,0.0,0.0,0.0,0.0,0.0,0.0,0.0,0.0,0.0,0.0,0.0,0.0,0.0,0.0,0.0,0.0,0.0,0.0,0.0,0.0,0.0,0.0,0.0,0.0,0.0,0.0,0.0,0.0,0.0,0.0,0.0,0.0,0.0,0.0,0.0,0.0,0.0,0.0,0.0,0.0,0.0,0.0,0.0,0.0,0.0,0.0,0.0,0.0,0.0,0.0,0.0,0.0,0.0,0.0,0.0,0.0,0.0,0.0,0.0,0.0,0.0,0.0,0.0,0.0,0.0,0.0,0.0,0.0,0.0,0.0,0.0,0.0,0.0,0.0,0.0,0.0,0.0,0.0,0.0,0.0,0.0,0.0,0.0,0.0,0.0,0.0,0.0,0.0,-0.5816,-0.6627,-0.7229,-0.7593,-0.7788,-0.7754,-0.7394,-0.7261,-0.6787,-0.5815,0.0,0.0,0.0,0.0,0.0,0.0,0.0,0.0,0.0,0.0,0.0,0.0,0.0,0.0,0.0,0.0,0.0,0.0,0.0,0.0,0.0,0.0,0.0,0.0,0.0,0.0,0.0,0.0,0.0,0.0,0.0,0.0,0.0,0.0,0.0,0.0,0.0,0.0,0.0,0.0,0.0,0.0,0.0,0.0,0.0,0.0,0.0,0.0,0.0,0.0,0.0,0.0,0.0,0.0,0.0,0.0,0.0,0.0,0.0,0.0,0.0,0.0,0.0,0.0,0.0,0.0,0.0,0.0,0.0,0.0,0.0,0.0,0.0,0.0,0.0,0.0,0.0,0.0,0.0,0.0,0.0,0.0,0.0,0.0,0.0,0.0,0.0,0.0,0.0,0.0,0.0,0.0,0.0,0.0,0.0,0.0,0.0,0.0,0.0,0.0,0.0,0.0,-0.5217,-0.6202,-0.6949,-0.7406,-0.7681,-0.7781,-0.7558,-0.734,-0.6842,-0.5989,0.0,0.0,0.0,0.0,0.0,0.0,0.0,0.0,0.0,0.0,0.0,0.0,0.0,0.0,0.0,0.0,0.0,0.0,0.0,0.0,0.0,0.0,0.0,0.0,0.0,0.0,0.0,0.0,0.0,0.0,0.0,0.0,0.0,0.0,0.0,0.0,0.0,0.0,0.0,0.0,0.0,0.0,0.0,0.0,0.0,0.0,0.0,0.0,0.0,0.0,0.0,0.0,0.0,0.0,0.0,0.0,0.0,0.0,0.0,0.0,0.1321,0.0,0.0,0.0,0.0,0.0,0.0,0.0,0.0,0.0,0.0,0.0,0.0,0.0,0.0,0.0,0.0,0.0,0.0,0.0,0.0,0.0,0.0,0.0,0.0,0.0,0.0,0.0,0.0,0.0,0.0,0.0,0.0,0.0,0.0,0.0,0.0,0.0,0.0,0.0,0.0,0.0,-0.4982,-0.5624,-0.6233,-0.694,-0.7359,-0.7442,-0.7083,-0.714,-0.6724,-0.56,0.0,0.0,0.0,0.0,0.0,0.0,0.0,0.0,0.0,0.0,0.0,0.0,0.0,0.0,0.0,0.0,0.0,0.0,0.0,0.0,0.0,0.0,0.0,0.0,0.0,0.0,0.0,0.0,0.0,0.0,0.0,0.0,0.0,0.0,0.0,0.0,0.0,0.0,0.0,0.0,0.0,0.0,0.0,0.0,0.0,0.0,0.0,0.0,0.0,0.0,0.0,0.0,0.0,0.0,0.0,0.0,0.0,0.0,0.0,0.0,0.0,0.1742,0.0,0.0,0.0,0.0,0.0,0.0,0.0,0.0,0.0,0.0,0.0,0.0,0.0,0.0,0.0,0.0,0.0,0.0,0.0,0.0,0.0,0.0,0.0,0.0,0.0,0.0,0.0,0.0,0.0,0.0,0.0,0.0,0.0,0.0,0.0,0.0,0.0,0.0,0.0,0.0,-0.4426,-0.5002,-0.5617,-0.6381,-0.6865,-0.708,-0.6997,-0.699,-0.663,-0.5751,-0.5019,0.0,0.0,0.0,0.0,0.0,0.0,0.0,0.0,0.0,0.0,0.0,0.0,0.0,0.0,0.0,0.0,0.0,0.0,0.0,0.0,0.0,0.0,0.0,0.0,0.0,0.0,0.0,0.0,0.0,0.0,0.0,0.0,0.0,0.0,0.0,0.0,0.0,0.0,0.0,0.0,0.0,0.0,0.0,0.0,0.0,0.0,0.0,0.0,0.0,0.0,0.0,0.0,0.0,0.0,0.4303,0.4188,0.4167,0.4165,0.4071,0.3099,0.265,0.2589,0.0,0.0,0.0,0.0,0.0,0.0,0.0,0.0,0.0,0.0,0.0,0.0,0.0,0.0,0.0,0.0,0.0,0.0,0.0,0.0,0.0,0.0,0.0,0.0,0.0,-0.2984,-0.2982,0.0,0.0,0.0,0.0,0.0,0.0,0.0,0.0,0.0,0.0,0.0,0.0,-0.3944,-0.4463,-0.5055,-0.5759,-0.6243,-0.6603,-0.6848,-0.6754,-0.6426,-0.5861,-0.4867,-0.4154,0.0,0.0,0.0,0.0,0.0,0.0,0.0,0.0,0.0,0.0,0.0,0.0,0.0,0.0,0.0,0.0,0.0,0.0,0.0,0.0,0.0,0.0,0.0,0.0,0.0,0.0,0.0,0.0,0.0,0.0,0.0,0.0,0.4381,0.4379,0.0,0.0,0.0,0.0,0.0,0.0,0.0,0.0,0.0,0.0,0.0,0.0,0.0,0.0,0.4666,0.4585,0.464,0.4849,0.4997,0.4994,0.4852,0.4851,0.477,0.4602,0.4268,0.0,0.3786,0.3765,0.0,0.0,0.0,0.0,0.0,0.0,0.0,0.0,0.0,0.0,0.0,0.0,0.0,0.0,0.0,0.0,0.0,0.0,0.0,0.0,0.0,0.0,-0.2577,-0.2885,-0.3094,-0.3126,0.0,-0.2903,-0.2845,-0.2713,0.0,0.0,0.0,0.0,0.0,0.0,0.0,0.0,-0.4088,-0.4233,-0.4522,-0.5154,-0.5588,-0.5853,-0.588,-0.6062,-0.588,-0.5178,-0.4818,-0.4442,-0.3986,-0.3656,0.0,0.0,0.0,0.0,0.0,0.0,0.0,0.0,0.0,0.0,0.0,0.0,0.0,0.0,0.0,0.0,0.0,0.0,0.0,0.0,0.0,0.0,0.0,0.0,0.0,0.0,0.0,0.0,0.0,0.4811,0.5,0.5123,0.4918,0.4703,0.0,0.0,0.0,0.0,0.0,0.0,0.0,0.0,0.0,0.5186,0.5375,0.5522,0.563,0.5771,0.5875,0.5954,0.6018,0.597,0.5832,0.5857,0.5621,0.5197,0.4887,0.4502,0.4107,0.3823,0.3241,0.2434,0.0,0.0,0.0,0.0,0.0,0.0,0.0,0.0,0.0,0.0,0.0,0.0,0.0,0.0,0.0,0.0,0.0,0.0,0.0,0.0,0.0,-0.3172,-0.3326,-0.3373,-0.3158,-0.3179,-0.3145,0.0,-0.276,-0.2698,-0.2758,0.0,0.0,0.0,0.0,0.0,-0.3814,-0.3935,-0.4146,-0.4554,-0.4849,-0.508,-0.525,-0.54,-0.5269,-0.4801,-0.4472,-0.4165,-0.3835,-0.347,-0.3275,0.0,0.0,0.0,0.0,0.0,0.0,0.0,0.0,0.0,0.0,0.0,0.0,0.0,0.0,0.0,0.0,0.0,0.0,0.0,0.0,0.0,0.0,0.0,0.0,0.0,0.0,0.0,0.0,0.5425,0.5676,0.5845,0.5624,0.5395,0.0,0.0,0.0,0.0,0.0,0.0,0.5135,0.5248,0.5501,0.5806,0.6027,0.6217,0.6412,0.659,0.6702,0.6702,0.6742,0.6658,0.6515,0.6552,0.6192,0.5479,0.5046,0.4512,0.394,0.36,0.3059,0.2369,0.1665,0.1161,0.0776,0.0305,0.0138,0.0111,0.0086,0.0086,0.0057,0.0028,0.0,-0.0025,-0.0072,0.0,0.0,0.0,0.0,-0.2356,-0.2754,0.0,-0.3272,-0.3413,-0.3527,-0.3526,-0.3311,-0.3369,-0.3357,0.0,-0.2981,-0.2995,-0.3051,0.0,0.0,0.0,0.0,-0.3548,-0.3608,-0.3706,-0.383,-0.4053,-0.4241,-0.4436,-0.4636,-0.4718,-0.4649,-0.4388,-0.4049,-0.3775,-0.3585,-0.324,-0.3078,0.0,0.0,0.0,0.0,0.0,0.0,0.0,0.0,0.0,0.0,0.0,0.0,0.0,0.0,0.0,0.0,0.0,0.0,0.0,0.0,0.0,0.0,0.0,0.0,0.0,0.0,0.0,0.0,0.0,0.0,0.6351,0.6239,0.0,0.0,0.0,0.0,0.5347,0.5491,0.5606,0.5749,0.5865,0.6118,0.646,0.648,0.6522,0.6678,0.6695,0.6702,0.6702,0.6848,0.6759,0.6518,0.6624,0.6205,0.5282,0.4696,0.4015,0.3347,0.3315,0.3016,0.2521,0.1913,0.1472,0.1104,0.0644,0.046,0.046,0.0338,0.0276,0.0246,0.0061,0.0,-0.0053,-0.0291,-0.0527,0.0,0.0,-0.1983,-0.2566,-0.2891,-0.3271,-0.3583,-0.3583,-0.3585,-0.355,-0.342,-0.3498,-0.3516,0.0,-0.3183,-0.3251,-0.3437,0.0,-0.3446,-0.3646,-0.3635,-0.3615,-0.3687,-0.3641,-0.3629,-0.3711,-0.3847,-0.3941,-0.3949,-0.4066,-0.4024,-0.3757,-0.361,-0.3437,-0.3227,-0.3204,-0.3018,-0.2641,-0.2865,0.0,0.0,0.0,0.0,0.0,0.0,0.0,0.0,0.0,0.0,0.0,0.0,0.0,0.0,0.0,0.0,0.0,0.0,0.0,0.0,0.0,0.0,0.0,0.0,0.0,0.0,0.0,0.0,0.6905,0.699,0.0,0.0,0.6408,0.6155,0.6155,0.6187,0.6218,0.623,0.6376,0.6508,0.6617,0.6715,0.6793,0.6848,0.6896,0.694,0.694,0.6994,0.6916,0.6763,0.6719,0.6179,0.5198,0.4369,0.3544,0.274,0.2165,0.2067,0.2153,0.1701,0.1374,0.1141,0.0738,0.0564,0.0525,0.0367,0.0299,0.0261,0.0064,0.0,-0.0028,-0.0228,-0.0386,-0.0638,-0.1213,-0.18,-0.2364,-0.2827,-0.3272,-0.3613,-0.3613,-0.3613,-0.355,-0.3428,-0.3509,-0.3551,-0.3353,-0.3321,-0.3343,-0.3414,-0.3405,-0.3432,-0.3505,-0.349,-0.3489,-0.3498,-0.3417,-0.335,-0.3369,-0.3505,-0.3532,-0.3465,-0.353,-0.3506,-0.3324,-0.3278,-0.3173,-0.3021,-0.3014,-0.2936,-0.28,-0.2851,-0.2867,0.0,0.0,0.0,0.0,0.0,0.0,0.0,0.0,0.0,0.0,0.0,0.0,0.0,0.0,0.0,0.0,0.0,0.0,0.0,0.0,0.0,0.0,0.0,0.0,0.0,0.0,0.7331,0.7472,0.7593,0.7579,0.7371,0.6997,0.6759,0.6759,0.6655,0.6573,0.6624,0.6722,0.68,0.6848,0.6903,0.6957,0.6957,0.7048,0.7095,0.7095,0.7095,0.7021,0.6883,0.6824,0.6214,0.5264,0.4421,0.3547,0.2623,0.1774,0.1595,0.1827,0.1477,0.1278,0.1172,0.0888,0.0808,0.0763,0.0559,0.0448,0.0336,0.0198,0.0127,0.0091,0.0,-0.0149,-0.0406,-0.1015,-0.1581,-0.2134,-0.2728,-0.3243,-0.3613,-0.3613,-0.3613,-0.3589,-0.3479,-0.3544,-0.3575,-0.349,-0.3427,-0.3398,-0.3398,-0.34,-0.3376,-0.3328,-0.3376,-0.3376,-0.3328,-0.3262,-0.3192,-0.3192,-0.3287,-0.3265,-0.3103,-0.3149,-0.3114,-0.2981,-0.2971,-0.293,-0.2835,-0.2832,-0.285,-0.2858,-0.2739,-0.2748,-0.2895,0.0,0.0,0.0,0.0,0.0,0.0,0.0,0.0,0.0,0.0,0.0,0.0,0.0,0.0,0.0,0.0,0.0,0.0,0.0,0.0,0.0,0.0,0.0,0.6947,0.7465,0.7873,0.8,0.8022,0.7939,0.7767,0.7375,0.7123,0.7123,0.6878,0.678,0.6883,0.6893,0.6953,0.7092,0.7095,0.7095,0.7095,0.7095,0.7095,0.7095,0.7095,0.7024,0.6893,0.6886,0.6392,0.5485,0.4902,0.4037,0.3057,0.2234,0.1804,0.1564,0.1304,0.1206,0.1206,0.1206,0.1205,0.1164,0.0955,0.0724,0.0506,0.0506,0.0397,0.0291,0.0291,0.0158,-0.0124,-0.0804,-0.139,-0.1943,-0.2613,-0.3185,-0.3588,-0.3585,-0.3583,-0.3583,-0.3583,-0.3583,-0.3583,-0.3583,-0.3502,-0.3408,-0.3404,-0.338,-0.335,-0.3214,-0.3306,0.0,-0.3214,-0.3192,-0.3192,-0.3192,-0.3202,-0.3106,-0.291,-0.2902,-0.2846,-0.2706,-0.2696,-0.2696,-0.2696,-0.2696,-0.2732,-0.2799,-0.254,-0.2503,-0.2708,0.0,0.0,0.0,0.0,0.0,0.0,0.0,0.0,0.0,0.0,0.0,0.0,0.0,0.0,0.0,0.0,0.0,0.0,0.0,0.0,0.0,0.0,0.7001,0.7139,0.7606,0.8012,0.8191,0.8338,0.8431,0.8379,0.7935,0.7675,0.7675,0.7238,0.6994,0.7038,0.7038,0.7055,0.7095,0.7095,0.7095,0.7095,0.7095,0.7095,0.7095,0.7095,0.7075,0.7034,0.6933,0.6587,0.6033,0.5344,0.456,0.3689,0.2723,0.2118,0.1762,0.1431,0.1271,0.1271,0.1271,0.1142,0.0968,0.0926,0.0767,0.0553,0.0509,0.0402,0.03,0.03,0.0166,-0.0098,-0.0642,-0.114,-0.1618,-0.2142,-0.2656,-0.2996,-0.2958,-0.2942,-0.297,-0.3077,-0.316,-0.3272,-0.3413,-0.343,-0.3374,-0.3285,-0.3184,-0.3101,-0.3056,0.0,0.0,-0.3056,-0.3018,-0.2976,-0.2976,-0.3016,-0.2987,-0.2829,-0.2825,-0.2754,0.0,-0.256,-0.256,-0.256,-0.2646,-0.2716,-0.2732,-0.2604,-0.2618,0.0,0.0,0.0,0.0,0.0,0.0,0.0,0.0,0.0,0.0,0.0,0.0,0.0,0.0,0.0,0.0,0.0,0.0,0.0,0.0,0.0,0.0,0.7342,0.7699,0.7776,0.7988,0.8199,0.8385,0.8547,0.8612,0.8612,0.8164,0.79,0.79,0.7408,0.7095,0.7095,0.7095,0.7095,0.7095,0.7095,0.7095,0.7095,0.7095,0.7095,0.7095,0.7095,0.7095,0.7092,0.7011,0.6734,0.0,0.582,0.5041,0.4108,0.3151,0.2469,0.0,0.0,0.0,0.0,0.0,0.1199,0.1018,0.1025,0.0892,0.0734,0.0689,0.0544,0.0371,0.0371,0.027,0.0034,-0.0396,-0.0846,-0.1278,-0.1697,-0.2098,-0.2366,-0.2327,-0.232,-0.238,-0.2573,-0.2766,-0.2991,-0.3244,0.0,0.0,-0.3308,-0.3165,-0.3052,-0.2979,-0.2993,-0.299,0.0,-0.2932,-0.289,-0.289,-0.2905,-0.2866,-0.2726,-0.2697,0.0,0.0,0.0,-0.2527,-0.2577,-0.2663,0.0,0.0,0.0,0.0,0.0,0.0,0.0,0.0,-0.3983,-0.4272,0.0,0.0,0.0,0.0,0.0,0.0,0.0,0.0,0.0,0.0,0.0,0.0,0.0,0.0,0.0,0.0,0.7882,0.8381,0.8588,0.8442,0.841,0.862,0.8624,0.8612,0.8612,0.8208,0.794,0.794,0.7452,0.7143,0.7143,0.0,0.0,0.0,0.0,0.7095,0.7095,0.7095,0.7095,0.7095,0.7095,0.7095,0.7095,0.7082,0.684,0.6424,0.6233,0.5508,0.4438,0.3526,0.2741,0.204,0.1492,0.1296,0.1296,0.1296,0.1279,0.0,0.0,0.0,0.0,0.0908,0.0721,0.0506,0.0539,0.0438,0.0236,-0.0168,-0.0561,-0.0938,-0.1225,-0.1514,-0.1713,-0.1707,-0.1692,-0.1762,-0.2043,-0.2348,-0.2681,-0.2935,-0.3167,-0.3311,-0.3324,-0.3252,-0.3123,-0.2948,-0.296,0.0,-0.2912,-0.289,-0.289,-0.289,0.0,0.0,-0.2603,-0.2543,-0.2476,-0.2394,-0.2444,-0.2527,-0.2663,-0.2663,-0.2663,-0.2679,-0.2563,-0.2541,-0.2617,-0.2684,-0.2944,-0.3389,-0.3829,-0.4313,0.0,0.0,0.0,0.0,0.0,0.0,0.0,0.0,0.0,0.0,0.0,0.0,0.0,0.0,0.0,0.7772,0.8227,0.8571,0.8608,0.8653,0.8731,0.8767,0.8653,0.8612,0.8612,0.8336,0.8157,0.8157,0.7676,0.7415,0.7415,0.7231,0.0,0.7095,0.7095,0.7095,0.7095,0.7095,0.7095,0.7095,0.0,0.0,0.7092,0.6977,0.6896,0.6783,0.6542,0.5879,0.4983,0.406,0.2781,0.1453,0.1335,0.1296,0.1296,0.1296,0.1293,0.128,0.1229,0.1058,0.0934,0.1031,0.0811,0.0539,0.0708,0.0539,0.0,0.0,-0.0302,-0.063,-0.0779,-0.1006,-0.1155,-0.1096,-0.1062,-0.1149,-0.1402,-0.1736,-0.2041,-0.2322,-0.2617,-0.2834,-0.2835,-0.2956,-0.3015,-0.2994,-0.2953,-0.2912,-0.2912,-0.289,-0.289,-0.289,-0.2843,-0.2754,-0.2609,-0.2536,-0.244,-0.2323,-0.2334,-0.2383,-0.2457,-0.2457,-0.2477,-0.2543,-0.2514,-0.2554,-0.2688,-0.2798,-0.2991,-0.3248,-0.3547,-0.404,0.0,0.0,0.0,0.0,0.0,0.0,0.0,0.0,0.0,0.0,0.0,0.7319,0.777,0.0,0.8018,0.8259,0.8541,0.8694,0.8694,0.8767,0.8787,0.8706,0.8661,0.8612,0.8612,0.8336,0.8201,0.8201,0.7764,0.7507,0.7507,0.7234,0.7095,0.7095,0.7095,0.7095,0.7095,0.7095,0.7095,0.7095,0.7095,0.7095,0.7092,0.695,0.6846,0.6803,0.6573,0.6032,0.517,0.3932,0.2702,0.1608,0.1492,0.1375,0.1296,0.1296,0.1296,0.129,0.1205,0.1068,0.0905,0.0974,0.0851,0.0674,0.0776,0.0674,0.0539,0.0438,0.0202,0.0,-0.0066,-0.0224,-0.0338,-0.0303,-0.0378,-0.0533,-0.0785,-0.1121,-0.1428,-0.1706,-0.2015,-0.2284,-0.2438,-0.2573,-0.2701,-0.2865,-0.2898,-0.289,-0.289,-0.289,-0.289,-0.289,-0.2845,-0.2739,-0.257,-0.2392,-0.2298,-0.2309,-0.2303,-0.2334,-0.2391,-0.2408,-0.2424,-0.2494,-0.2494,-0.256,-0.2696,-0.2795,-0.2924,-0.3052,-0.3258,-0.3749,0.0,0.0,0.0,0.0,0.0,0.0,0.0,0.0,0.7179,0.7631,0.7904,0.8134,0.8426,0.8483,0.8509,0.8607,0.8697,0.8808,0.8775,0.88,0.8755,0.8633,0.8612,0.8612,0.8612,0.8384,0.8288,0.8288,0.7896,0.7635,0.7635,0.7408,0.7275,0.7275,0.7187,0.7187,0.7187,0.7139,0.7095,0.7095,0.7095,0.7095,0.7092,0.692,0.6817,0.6688,0.6428,0.5926,0.5124,0.3795,0.2741,0.1999,0.1766,0.1492,0.1296,0.1296,0.1296,0.1291,0.1215,0.1076,0.0906,0.0913,0.0891,0.0809,0.0843,0.0843,0.0809,0.0809,0.064,0.0506,0.0506,0.0388,0.0309,0.0309,0.0147,-0.0056,-0.0308,-0.0589,-0.0869,-0.1147,-0.1427,-0.1736,-0.2017,-0.2167,-0.2343,-0.2733,-0.2868,-0.289,-0.289,-0.289,-0.289,-0.289,-0.2845,-0.2723,-0.2514,-0.2248,-0.215,-0.2253,-0.2253,-0.2284,-0.2341,-0.2341,-0.2377,-0.246,-0.246,-0.2527,-0.2646,-0.2696,-0.2776,-0.2885,-0.2989,-0.3462,0.6906,0.7097,0.7427,0.7409,0.7527,0.765,0.0,0.0,0.8061,0.8481,0.8717,0.8846,0.8829,0.8855,0.8781,0.8634,0.8698,0.8767,0.8661,0.8727,0.8755,0.8633,0.8612,0.8612,0.8612,0.8568,0.8564,0.8564,0.8292,0.8113,0.8113,0.794,0.7808,0.7808,0.7591,0.7459,0.7459,0.7231,0.7095,0.7095,0.7095,0.7095,0.7088,0.6854,0.6715,0.6643,0.6007,0.5452,0.4965,0.4073,0.3214,0.2392,0.1999,0.1649,0.1296,0.1296,0.1296,0.1288,0.1229,0.1059,0.0904,0.1031,0.0945,0.0843,0.1009,0.0942,0.0809,0.0809,0.064,0.0506,0.0506,0.0388,0.0309,0.0309,0.0147,-0.0028,-0.0196,-0.0336,-0.0505,-0.0729,-0.0897,-0.115,-0.16,-0.1824,-0.2136,-0.2707,-0.2848,-0.289,-0.289,-0.289,-0.289,-0.289,-0.2898,-0.2775,-0.2523,-0.2248,-0.21,-0.2117,-0.2117,-0.2133,-0.2131,-0.2131,-0.22,-0.232,-0.232,-0.2367,-0.2441,-0.2441,-0.2574,-0.2808,-0.2826,-0.3169,0.7612,0.7688,0.0,0.0,0.8349,0.8382,0.8623,0.8652,0.8746,0.9126,0.92,0.9188,0.9296,0.9087,0.8857,0.0,0.8714,0.8649,0.862,0.8629,0.8649,0.862,0.8612,0.8612,0.8612,0.8612,0.8612,0.8612,0.8336,0.8201,0.8201,0.8028,0.79,0.79,0.7639,0.7507,0.7507,0.7231,0.7095,0.7095,0.7095,0.7095,0.7085,0.6834,0.6607,0.6437,0.5996,0.5631,0.5282,0.4621,0.3919,0.3215,0.2627,0.2118,0.1609,0.1375,0.1296,0.129,0.1208,0.1144,0.1087,0.1081,0.1057,0.0976,0.1076,0.1043,0.0976,0.0976,0.0909,0.0838,0.0792,0.0702,0.0584,0.0543,0.0377,0.0224,0.0168,0.0056,-0.0084,-0.0168,-0.028,-0.0561,-0.1094,-0.1427,-0.181,-0.2417,-0.2738,-0.289,-0.289,-0.289,-0.289,-0.289,-0.2827,-0.2712,-0.2517,-0.2333,-0.2192,-0.2103,-0.21,-0.21,-0.21,-0.21,-0.2167,-0.2303,-0.2303,-0.2334,-0.2408,-0.247,-0.261,-0.2799,-0.2846,-0.3075,0.8101,0.0,0.0,0.8897,0.8949,0.8954,0.9252,0.9216,0.9239,0.954,0.9437,0.9332,0.9483,0.9126,0.0,0.8819,0.8696,0.8612,0.8612,0.8612,0.8612,0.8612,0.8612,0.8612,0.8612,0.8612,0.8612,0.8612,0.8428,0.8292,0.8292,0.8164,0.8076,0.8076,0.7812,0.768,0.768,0.7367,0.7231,0.7187,0.7143,0.7095,0.7085,0.6834,0.6539,0.63,0.6099,0.5944,0.5754,0.5168,0.4621,0.4073,0.3333,0.2666,0.1999,0.1608,0.1414,0.1292,0.1222,0.1192,0.1198,0.1131,0.11,0.1109,0.1109,0.1109,0.1109,0.1109,0.1109,0.1069,0.1008,0.0916,0.0796,0.0713,0.0546,0.0393,0.0393,0.0308,0.0196,0.0196,0.0084,-0.0168,-0.0673,-0.1084,-0.1485,-0.199,-0.2431,-0.2734,-0.289,-0.289,-0.289,-0.289,-0.278,-0.2668,-0.2561,-0.2427,-0.2322,-0.2218,-0.221,-0.221,-0.221,-0.221,-0.2248,-0.2355,-0.2355,-0.2387,-0.2434,-0.2528,-0.267,-0.286,-0.2904,-0.3087,0.0,0.0,0.8737,0.8929,0.9126,0.9268,0.9282,0.9437,0.9587,0.9602,0.9437,0.9289,0.9314,0.8927,0.861,0.8623,0.8612,0.8612,0.8612,0.8612,0.8612,0.8612,0.8612,0.8612,0.0,0.8612,0.8612,0.8612,0.8612,0.8568,0.8568,0.8568,0.8568,0.8568,0.8336,0.8201,0.8201,0.7724,0.7507,0.7507,0.7231,0.7095,0.7085,0.6834,0.6539,0.63,0.63,0.63,0.6261,0.5754,0.5321,0.4888,0.4073,0.3255,0.2431,0.2038,0.1648,0.1292,0.1222,0.1192,0.1198,0.1131,0.11,0.1109,0.1109,0.1109,0.1109,0.1109,0.1109,0.1069,0.1008,0.0916,0.0796,0.0713,0.0546,0.0393,0.0393,0.0308,0.0196,0.0196,0.0084,-0.0084,-0.0364,-0.0794,-0.121,-0.1489,-0.1868,-0.231,-0.2823,-0.289,-0.289,-0.289,-0.278,-0.2704,-0.2701,-0.2566,-0.2495,-0.2493,-0.249,-0.249,-0.249,-0.249,-0.249,-0.249,-0.249,-0.249,-0.249,-0.2495,-0.2674,-0.2997,-0.3,-0.3207,0.8396,0.0,0.92,0.9549,0.9733,0.9819,0.9923,0.9899,0.9809,0.963,0.9348,0.9077,0.893,0.8526,0.825,0.8396,0.8385,0.8426,0.8596,0.8612,0.8612,0.8612,0.8612,0.0,0.0,0.0,0.0,0.8612,0.8612,0.8612,0.8612,0.8612,0.8612,0.8612,0.8336,0.8201,0.8201,0.7724,0.7507,0.7507,0.7231,0.6994,0.6844,0.6746,0.6539,0.63,0.63,0.63,0.6261,0.5944,0.5631,0.5323,0.4659,0.3958,0.3294,0.2705,0.2157,0.1646,0.1362,0.1246,0.1201,0.1191,0.1151,0.1109,0.1109,0.1109,0.1109,0.1109,0.1109,0.1069,0.1008,0.0979,0.0919,0.0861,0.0776,0.0729,0.0729,0.0617,0.0533,0.0533,0.0393,0.0168,-0.0084,-0.037,-0.0718,-0.1177,-0.1735,-0.2176,-0.2355,-0.244,-0.2529,-0.2618,-0.2673,-0.2708,-0.2691,-0.2668,-0.2588,-0.2506,-0.2501,-0.2501,-0.2501,-0.2501,-0.2501,-0.2501,-0.2501,-0.2501,-0.2501,-0.2582,-0.2765,-0.301,-0.308,-0.3306,0.8609,0.9115,0.9597,0.979,0.9999,1.0108,1.0055,0.9941,0.9762,0.9442,0.8991,0.8679,0.8585,0.8152,0.7927,0.8239,0.8292,0.8353,0.8588,0.8612,0.8612,0.8612,0.8612,0.0,0.0,0.0,0.0,0.8612,0.8612,0.8612,0.8612,0.8612,0.8612,0.8612,0.8428,0.8336,0.8336,0.7944,0.7724,0.7635,0.7455,0.7203,0.6864,0.6864,0.666,0.63,0.63,0.63,0.63,0.6099,0.5986,0.5792,0.5246,0.4698,0.4151,0.3411,0.273,0.2052,0.1551,0.1284,0.1201,0.119,0.1151,0.1109,0.1109,0.1109,0.1109,0.1109,0.1109,0.1069,0.1008,0.1011,0.0981,0.0921,0.0891,0.0898,0.0898,0.0785,0.0701,0.0701,0.0533,0.0336,0.0168,-0.0053,-0.0344,-0.0793,-0.1208,-0.1547,-0.1725,-0.188,-0.2057,-0.2302,-0.246,-0.261,-0.2756,-0.2769,-0.2739,-0.2657,-0.2652,-0.2652,-0.2652,-0.2652,-0.2652,-0.2652,-0.2652,-0.2652,-0.2652,-0.2731,-0.2855,-0.2998,-0.3084,-0.3284,0.8708,0.9401,0.998,0.97,0.9979,1.0154,0.971,0.9592,0.9456,0.9051,0.8483,0.8128,0.0,0.0,0.7634,0.8174,0.8272,0.8345,0.8584,0.8612,0.8612,0.0,0.0,0.0,0.0,0.0,0.0,0.8612,0.0,0.8612,0.8612,0.8612,0.8612,0.8612,0.8612,0.8612,0.8612,0.8336,0.8113,0.79,0.7889,0.763,0.7109,0.7102,0.6811,0.63,0.63,0.63,0.63,0.63,0.63,0.6261,0.5792,0.5359,0.4927,0.4153,0.3322,0.2462,0.1778,0.1412,0.1196,0.113,0.11,0.1109,0.1109,0.1109,0.1109,0.1109,0.1109,0.1069,0.101,0.1012,0.0981,0.0922,0.0892,0.0898,0.0898,0.0813,0.0701,0.0701,0.0561,0.042,0.0419,0.0211,-0.0049,-0.0295,-0.0336,-0.0514,-0.1007,-0.1232,-0.1521,-0.1921,-0.2146,-0.2415,-0.2823,-0.2868,-0.2868,-0.2868,-0.2868,-0.2868,-0.2868,-0.2868,-0.2868,-0.2868,-0.2868,-0.2868,-0.289,-0.289,-0.2932,-0.3012,-0.3012,-0.3148,0.9577,1.0061,1.0445,1.0353,1.0227,1.0051,0.9942,0.9516,0.9065,0.8836,0.8202,0.7725,0.0,0.0,0.0,0.7845,0.8,0.0,0.8567,0.8612,0.0,0.8612,0.0,0.8612,0.8612,0.8612,0.0,0.0,0.8612,0.8612,0.8612,0.8612,0.8612,0.8612,0.8612,0.8612,0.8612,0.8336,0.8113,0.7896,0.7769,0.7473,0.7105,0.6953,0.6676,0.63,0.63,0.63,0.63,0.63,0.63,0.6261,0.5944,0.5673,0.5362,0.4698,0.4059,0.3363,0.2645,0.1844,0.1131,0.1123,0.11,0.1109,0.1109,0.1109,0.1109,0.1109,0.1109,0.1107,0.1067,0.1027,0.0986,0.0978,0.0937,0.0898,0.0898,0.087,0.0842,0.0842,0.0813,0.0745,0.0707,0.0638,0.0565,0.0432,0.0426,0.0179,-0.0492,-0.076,-0.1029,-0.1432,-0.1655,-0.1927,-0.2266,-0.231,-0.231,-0.231,-0.231,-0.231,-0.231,-0.231,-0.231,-0.231,-0.2395,-0.2504,-0.2595,-0.2709,-0.284,-0.3012,-0.3012,-0.3148,0.9904,1.0298,1.0573,1.0393,1.017,0.9895,0.9529,0.9067,0.8637,0.824,0.7697,0.0,0.0,0.0,0.0,0.0,0.0,0.0,0.8394,0.8559,0.8612,0.0,0.8612,0.0,0.8612,0.8612,0.8612,0.0,0.8612,0.8612,0.8612,0.8612,0.8612,0.8612,0.8612,0.8612,0.8612,0.8428,0.8257,0.8092,0.7951,0.7685,0.7245,0.7115,0.6867,0.6563,0.0,0.6563,0.6563,0.6563,0.6563,0.6563,0.6402,0.6212,0.5983,0.5437,0.4858,0.4222,0.3399,0.2492,0.1607,0.1277,0.1158,0.1109,0.1109,0.1109,0.1109,0.1109,0.1109,0.1109,0.1109,0.1064,0.0988,0.0988,0.0942,0.0898,0.0898,0.0898,0.0898,0.0898,0.0898,0.0883,0.086,0.0815,0.0791,0.0746,0.0728,0.0562,0.0134,-0.009,-0.0381,-0.0783,-0.1007,-0.1254,-0.1636,-0.1658,-0.1658,-0.1658,-0.1658,-0.1681,-0.1748,-0.1748,-0.177,-0.1794,-0.1992,-0.217,-0.2324,-0.2526,-0.2729,-0.2948,-0.2948,-0.3062,1.0023,1.0341,1.0526,1.0132,0.9956,0.9667,0.8841,0.8444,0.8075,0.7531,0.0,0.6705,0.6595,0.6514,0.6656,0.7098,0.0,0.7853,0.817,0.8441,0.8575,0.8575,0.8596,0.8612,0.8612,0.8612,0.8612,0.8612,0.8612,0.8612,0.8612,0.8612,0.8612,0.8612,0.8612,0.8612,0.8612,0.8612,0.8518,0.8292,0.8264,0.7948,0.7386,0.7363,0.7195,0.6903,0.0,0.0,0.6903,0.6903,0.6903,0.6903,0.6903,0.6788,0.6563,0.6096,0.5593,0.4959,0.4103,0.3251,0.2416,0.1602,0.1248,0.1109,0.1109,0.1109,0.1109,0.1109,0.1109,0.1109,0.1104,0.1029,0.0987,0.0983,0.0939,0.0898,0.0898,0.0898,0.0898,0.0898,0.0898,0.0887,0.0911,0.0853,0.0798,0.0793,0.0739,0.0697,0.0697,0.0539,0.0269,-0.0112,-0.0313,-0.0582,-0.0985,-0.1007,-0.1007,-0.1007,-0.1007,-0.1052,-0.1186,-0.1186,-0.1231,-0.1299,-0.1569,-0.1813,-0.201,-0.2279,-0.2551,-0.2801,-0.2821,-0.2862,1.0455,1.0564,1.0564,1.0322,0.9696,0.9058,0.8566,0.7896,0.0,0.0,0.0,0.5996,0.6298,0.612,0.6166,0.6839,0.0,0.0,0.0,0.0,0.8341,0.0,0.0,0.0,0.0,0.0,0.0,0.0,0.0,0.0,0.8612,0.8612,0.8612,0.8612,0.8612,0.8612,0.8612,0.8612,0.8518,0.8288,0.8134,0.7825,0.7382,0.7285,0.7126,0.6903,0.0,0.0,0.6903,0.6903,0.6903,0.6903,0.6903,0.6788,0.6563,0.6335,0.5931,0.5375,0.4564,0.3892,0.3201,0.2,0.1405,0.1109,0.1109,0.1109,0.1109,0.1109,0.1109,0.107,0.1047,0.1015,0.0982,0.0927,0.0895,0.0898,0.0898,0.0898,0.0898,0.0898,0.0898,0.0887,0.0911,0.0853,0.0798,0.0793,0.0739,0.0697,0.0697,0.0562,0.0382,0.0157,0.0,-0.0202,-0.0492,-0.0514,-0.0514,-0.0514,-0.0514,-0.0559,-0.0626,-0.0649,-0.0695,-0.0809,-0.1076,-0.132,-0.1521,-0.1792,-0.204,-0.2243,-0.235,-0.2526,1.0464,1.054,1.0471,1.0055,0.9483,0.8859,0.8222,0.0,0.0,0.0,0.0,0.5689,0.5804,0.0,0.0,0.0,0.0,0.0,0.0,0.0,0.0,0.0,0.0,0.0,0.0,0.0,0.0,0.0,0.0,0.0,0.8612,0.8612,0.8612,0.8612,0.8612,0.8612,0.8612,0.8612,0.8469,0.8146,0.8057,0.7789,0.745,0.737,0.7292,0.7211,0.0,0.0,0.7211,0.7211,0.7211,0.7211,0.7211,0.7099,0.6911,0.6799,0.649,0.6028,0.5324,0.4697,0.4013,0.3139,0.2303,0.1648,0.1547,0.1446,0.1344,0.1244,0.1143,0.1069,0.1008,0.1011,0.0981,0.0921,0.0891,0.0898,0.0898,0.0898,0.0898,0.0898,0.0898,0.0893,0.0906,0.0838,0.0802,0.0789,0.0748,0.0697,0.0697,0.0652,0.0562,0.0472,0.0405,0.0314,0.0179,0.0179,0.0179,0.0179,0.0179,0.0134,0.0022,0.0022,-0.0067,-0.0225,-0.0494,-0.0762,-0.103,-0.1299,-0.1547,-0.1748,-0.1949,-0.217,1.035,1.0436,1.0371,0.9747,0.9258,0.8737,0.7905,0.7201,0.0,0.0,0.5739,0.5462,0.5378,0.0,0.5462,0.0,0.0,0.0,0.0,0.0,0.0,0.0,0.0,0.0,0.0,0.0,0.0,0.0,0.0,0.0,0.0,0.8612,0.8612,0.8612,0.8612,0.8612,0.8612,0.8571,0.8341,0.8012,0.7975,0.7793,0.7484,0.7484,0.7484,0.7484,0.0,0.0,0.0,0.7484,0.7484,0.7484,0.7484,0.7369,0.7184,0.7184,0.6949,0.6535,0.5928,0.5347,0.4726,0.4236,0.3315,0.2388,0.2151,0.1916,0.1647,0.1446,0.1239,0.106,0.0999,0.1001,0.0971,0.0911,0.0886,0.0898,0.0898,0.0898,0.0898,0.0898,0.0898,0.0898,0.0898,0.0853,0.0815,0.0808,0.0762,0.0727,0.0697,0.0697,0.0697,0.0697,0.0697,0.0697,0.0697,0.0697,0.0697,0.0697,0.0697,0.0629,0.0494,0.0494,0.0405,0.0202,-0.0045,-0.0314,-0.0627,-0.0851,-0.1075,-0.1256,-0.1524,-0.1768,1.027,1.0331,1.0197,0.9714,0.9145,0.8519,0.7697,0.0,0.0,0.573,0.5335,0.5098,0.5283,0.512,0.5129,0.0,0.0,0.5933,0.0,0.0,0.0,0.0,0.0,0.0,0.0,0.0,0.0,0.0,0.0,0.0,0.0,0.8612,0.8612,0.8612,0.8612,0.8612,0.8612,0.8398,0.8215,0.8012,0.7858,0.7718,0.7484,0.7484,0.7484,0.7484,0.0,0.0,0.0,0.7484,0.7484,0.7484,0.7484,0.7369,0.7184,0.7184,0.6949,0.6517,0.5995,0.5561,0.5149,0.4691,0.3894,0.305,0.272,0.235,0.198,0.1647,0.1288,0.0998,0.1,0.097,0.091,0.0909,0.09,0.0898,0.0898,0.0898,0.0898,0.0898,0.0898,0.0898,0.0898,0.0897,0.0865,0.0811,0.0805,0.0774,0.07,0.0697,0.0697,0.0697,0.0697,0.0697,0.0697,0.0697,0.0697,0.0697,0.0697,0.0629,0.0494,0.0494,0.0405,0.0202,0.0067,-0.0157,-0.0427,-0.0517,-0.0629,-0.0764,-0.1031,-0.1277,0.9677,0.98,0.9795,0.9333,0.8892,0.834,0.764,0.0,0.6087,0.5673,0.5174,0.4841,0.4921,0.4785,0.4732,0.4992,0.5246,0.5595,0.6155,0.0,0.0,0.0,0.0,0.0,0.0,0.0,0.0,0.0,0.0,0.0,0.0,0.8612,0.8612,0.8612,0.8612,0.8559,0.8402,0.8325,0.8146,0.7858,0.7833,0.7702,0.7484,0.7484,0.7484,0.7484,0.0,0.0,0.0,0.7484,0.7484,0.7484,0.7484,0.7446,0.7369,0.7369,0.711,0.6723,0.6462,0.6104,0.5745,0.546,0.512,0.4652,0.3756,0.3157,0.272,0.252,0.2043,0.1601,0.1617,0.1515,0.1452,0.1432,0.1456,0.1456,0.1456,0.1373,0.129,0.115,0.1066,0.0982,0.0926,0.09,0.0868,0.0811,0.0808,0.0801,0.0814,0.081,0.0854,0.0942,0.0786,0.0697,0.0697,0.0697,0.0697,0.0697,0.0697,0.0674,0.0629,0.0629,0.0539,0.0382,0.0337,0.0225,0.009,0.0045,-0.0022,-0.0157,-0.0426,-0.0717,0.9159,0.9348,0.9409,0.8995,0.8618,0.8146,0.0,0.6738,0.6007,0.5679,0.5125,0.4704,0.4704,0.4587,0.4536,0.4648,0.4931,0.5291,0.5814,0.0,0.0,0.0,0.0,0.0,0.0,0.0,0.0,0.0,0.0,0.0,0.0,0.8612,0.8612,0.8612,0.8559,0.8422,0.8292,0.8187,0.8049,0.78,0.7743,0.7649,0.7484,0.7484,0.7484,0.0,0.0,0.0,0.0,0.7484,0.7484,0.7484,0.7484,0.7484,0.7476,0.7423,0.7213,0.6884,0.667,0.6379,0.6081,0.5944,0.5888,0.5723,0.4827,0.4159,0.3625,0.3424,0.291,0.2394,0.2301,0.2201,0.2125,0.2068,0.2068,0.2068,0.2068,0.1903,0.171,0.1486,0.129,0.1094,0.0926,0.0907,0.0879,0.0813,0.0839,0.0859,0.0906,0.0944,0.0987,0.1098,0.0942,0.0808,0.0764,0.0719,0.0697,0.0697,0.0697,0.0697,0.0697,0.0697,0.0629,0.0494,0.0494,0.0472,0.0405,0.0405,0.0337,0.0202,-0.0045,-0.0314,0.8877,0.9136,0.9228,0.8807,0.8392,0.7954,0.0,0.654,0.5854,0.5651,0.5125,0.4704,0.4704,0.4587,0.4573,0.4769,0.4744,0.4968,0.5688,0.0,0.0,0.0,0.0,0.0,0.0,0.0,0.0,0.0,0.0,0.0,0.0,0.0,0.8612,0.8612,0.839,0.8292,0.8292,0.798,0.7804,0.7796,0.7612,0.7484,0.7484,0.7484,0.0,0.0,0.0,0.0,0.0,0.7484,0.7484,0.7484,0.7484,0.7484,0.746,0.7293,0.7076,0.6869,0.653,0.6276,0.6081,0.5944,0.5888,0.5888,0.5888,0.5352,0.4716,0.4386,0.3857,0.3301,0.2987,0.2877,0.285,0.2708,0.2681,0.2681,0.2681,0.2432,0.2127,0.1846,0.1513,0.1206,0.0954,0.0897,0.0877,0.0816,0.0907,0.0982,0.0908,0.1009,0.1097,0.1097,0.1097,0.1031,0.0899,0.0787,0.0697,0.0697,0.0697,0.0697,0.0697,0.0697,0.0629,0.0494,0.0494,0.0472,0.0405,0.0405,0.0337,0.0202,0.0067,-0.018,0.8099,0.8321,0.8406,0.8136,0.7897,0.7527,0.687,0.6303,0.5807,0.5462,0.4917,0.4499,0.4499,0.43,0.4215,0.4359,0.4727,0.0,0.0,0.0,0.0,0.0,0.0,0.0,0.0,0.0,0.0,0.0,0.0,0.0,0.0,0.0,0.8674,0.842,0.8321,0.8174,0.7971,0.7857,0.7735,0.7608,0.7551,0.7484,0.7484,0.7484,0.0,0.0,0.0,0.0,0.0,0.7484,0.7484,0.7484,0.7484,0.7411,0.7301,0.7207,0.7034,0.6737,0.6652,0.6467,0.6297,0.6271,0.6251,0.6251,0.6251,0.5756,0.5137,0.4682,0.4336,0.4013,0.3798,0.3609,0.3491,0.3355,0.333,0.333,0.333,0.3163,0.2912,0.2491,0.2242,0.1989,0.1596,0.1512,0.1478,0.1352,0.1463,0.1548,0.1519,0.1636,0.1725,0.1772,0.1748,0.1503,0.0944,0.0855,0.0787,0.0697,0.0697,0.0697,0.0697,0.0697,0.0674,0.0629,0.0629,0.0629,0.0607,0.0607,0.0539,0.0405,0.0315,0.0225,0.7531,0.7726,0.783,0.7631,0.7356,0.6988,0.6497,0.6007,0.5599,0.5339,0.4879,0.4519,0.4519,0.4323,0.421,0.4359,0.4718,0.0,0.0,0.0,0.0,0.0,0.0,0.0,0.0,0.0,0.0,0.0,0.0,0.0,0.0,0.0,0.8651,0.8334,0.8334,0.8225,0.8034,0.7888,0.7719,0.7603,0.7522,0.7522,0.7603,0.0,0.0,0.0,0.0,0.0,0.0,0.7484,0.7484,0.7484,0.7484,0.7378,0.7179,0.7147,0.694,0.6676,0.6603,0.6509,0.6387,0.6387,0.6387,0.6387,0.6387,0.6123,0.569,0.5368,0.5189,0.5003,0.4683,0.4505,0.4366,0.4147,0.4079,0.4079,0.4079,0.3941,0.3688,0.3269,0.3047,0.2794,0.2373,0.2289,0.2238,0.2088,0.2166,0.223,0.2148,0.2259,0.2348,0.2395,0.237,0.2125,0.1612,0.1278,0.1033,0.0943,0.0831,0.0764,0.0764,0.0719,0.0697,0.0697,0.0697,0.0697,0.0697,0.0652,0.0584,0.0494,0.0427,0.0405,0.0,0.7375,0.7463,0.7257,0.6868,0.6478,0.6264,0.5772,0.0,0.5314,0.499,0.4725,0.4725,0.4562,0.4495,0.471,0.0,0.0,0.0,0.0,0.0,0.0,0.0,0.0,0.0,0.0,0.0,0.0,0.0,0.0,0.0,0.0,0.0,0.8506,0.8449,0.844,0.8361,0.8,0.7804,0.7804,0.7642,0.7642,0.7804,0.0,0.0,0.0,0.0,0.0,0.0,0.7484,0.7484,0.7484,0.7484,0.737,0.7188,0.7053,0.6861,0.6669,0.6473,0.6387,0.6387,0.6387,0.6387,0.6387,0.6387,0.6387,0.6384,0.6245,0.6219,0.6067,0.5553,0.5401,0.5318,0.4969,0.4897,0.4897,0.4897,0.4708,0.4432,0.4091,0.3846,0.3569,0.3231,0.3176,0.3106,0.2905,0.3001,0.2996,0.2816,0.2893,0.2957,0.2957,0.2948,0.2898,0.2763,0.1966,0.1433,0.1343,0.11,0.0945,0.09,0.0787,0.0719,0.0697,0.0697,0.0697,0.0697,0.0584,0.0517,0.0517,0.045,0.0427,0.7285,0.0,0.7602,0.7414,0.7105,0.6784,0.0,0.6081,0.5766,0.5501,0.5181,0.4923,0.4923,0.4773,0.4758,0.517,0.0,0.0,0.0,0.0,0.0,0.0,0.0,0.0,0.0,0.0,0.0,0.0,0.0,0.0,0.0,0.0,0.0,0.9331,0.9019,0.8635,0.8168,0.809,0.7953,0.7804,0.7915,0.7915,0.7804,0.0,0.0,0.0,0.0,0.0,0.7484,0.7484,0.7484,0.7484,0.7484,0.7331,0.7049,0.7004,0.6788,0.6473,0.6399,0.6387,0.6387,0.6387,0.6387,0.6387,0.6387,0.6387,0.6379,0.6367,0.6286,0.6126,0.5725,0.5516,0.5318,0.4969,0.4897,0.4897,0.4897,0.4842,0.4736,0.4432,0.4322,0.4184,0.3852,0.3796,0.3741,0.3664,0.3747,0.3789,0.3639,0.3596,0.3599,0.3599,0.3504,0.3376,0.3239,0.2615,0.2079,0.1697,0.1523,0.1279,0.0922,0.0877,0.081,0.0697,0.0697,0.0697,0.0697,0.0674,0.0652,0.0652,0.0629,0.0629,0.7534,0.7618,0.7572,0.761,0.7334,0.6991,0.677,0.6424,0.6079,0.5863,0.5561,0.5339,0.5366,0.5286,0.0,0.0,0.0,0.0,0.0,0.0,0.0,0.0,0.0,0.0,0.0,0.0,0.0,0.0,0.0,0.0,0.0,0.0,0.0,0.0,0.942,0.898,0.8365,0.8293,0.8178,0.8068,0.8102,0.8102,0.8068,0.0,0.0,0.0,0.0,0.0,0.7757,0.768,0.7642,0.7633,0.7433,0.7196,0.698,0.6902,0.666,0.6387,0.6387,0.6387,0.6387,0.6387,0.6387,0.6387,0.6387,0.6387,0.6387,0.6387,0.6347,0.6213,0.5888,0.5725,0.5531,0.5159,0.5069,0.5069,0.5069,0.5069,0.5042,0.4908,0.4881,0.4798,0.4632,0.4605,0.4552,0.4474,0.4505,0.4499,0.4332,0.4286,0.4225,0.4127,0.4046,0.3965,0.3821,0.3461,0.2948,0.2257,0.1967,0.1679,0.1324,0.1257,0.1145,0.0987,0.092,0.0853,0.0787,0.0719,0.0697,0.0697,0.0697,0.0697,0.7853,0.7841,0.7745,0.797,0.7695,0.7352,0.7309,0.6875,0.6462,0.6367,0.0,0.5836,0.5923,0.5984,0.0,0.0,0.0,0.0,0.0,0.0,0.0,0.0,0.0,0.0,0.0,0.0,0.0,0.0,0.0,0.0,0.0,0.0,0.0,0.0,0.9846,0.9463,0.8889,0.8589,0.8441,0.8403,0.8255,0.8255,0.8403,0.8255,0.0,0.0,0.0,0.0,0.8058,0.7872,0.7778,0.7664,0.7315,0.711,0.6931,0.6749,0.6578,0.6387,0.6387,0.6387,0.6387,0.6387,0.6387,0.6387,0.6387,0.6387,0.6387,0.6387,0.6387,0.6335,0.5982,0.5888,0.5799,0.5386,0.5297,0.5297,0.5297,0.5297,0.5297,0.5297,0.5297,0.5297,0.5297,0.5297,0.5276,0.5145,0.5125,0.5064,0.4909,0.4865,0.478,0.4558,0.4513,0.4452,0.431,0.417,0.3751,0.2929,0.2524,0.219,0.1949,0.1813,0.1633,0.1432,0.1253,0.1099,0.0966,0.0787,0.0697,0.0697,0.0697,0.0697,0.8344,0.8756,0.889,0.8705,0.8646,0.8558,0.8255,0.7745,0.7262,0.0,0.0,0.0,0.0,0.6868,0.0,0.0,0.0,0.0,0.0,0.0,0.0,0.0,0.0,0.0,0.0,0.0,0.0,0.0,0.0,0.0,0.0,0.0,0.0,0.0,0.0,1.0143,0.9728,0.9008,0.8551,0.8403,0.8551,0.8556,0.8403,0.8551,0.8513,0.0,0.0,0.8156,0.7851,0.7814,0.7604,0.7277,0.7212,0.7024,0.6733,0.6704,0.6578,0.6387,0.6387,0.6387,0.6387,0.6387,0.6387,0.6387,0.6387,0.6387,0.6387,0.6387,0.6387,0.6335,0.5982,0.5888,0.5799,0.5386,0.5297,0.5297,0.5297,0.5297,0.5297,0.5297,0.5297,0.5297,0.5297,0.5297,0.5289,0.5261,0.5257,0.5245,0.5221,0.5137,0.4966,0.4784,0.461,0.4452,0.431,0.417,0.3998,0.3726,0.3394,0.3015,0.2586,0.2428,0.223,0.1988,0.1679,0.1435,0.1233,0.0876,0.0697,0.0697,0.0697,0.0697,0.8142,0.8616,0.8943,0.9011,0.9144,0.924,0.9099,0.8591,0.8107,0.0,0.0,0.0,0.0,0.0,0.0,0.0,0.0,0.0,0.0,0.0,0.0,0.0,0.0,0.0,0.0,0.0,0.0,0.0,0.0,0.0,0.0,0.0,0.0,0.0,0.0,1.1074,1.055,1.0062,0.9533,0.8899,0.8975,0.8975,0.8899,0.9089,0.9198,0.9203,0.0,0.8811,0.8428,0.8213,0.7938,0.7654,0.7333,0.7163,0.7124,0.7022,0.6855,0.6683,0.6811,0.6749,0.6683,0.6683,0.6613,0.6548,0.6548,0.6482,0.6387,0.6387,0.6387,0.6335,0.5982,0.5888,0.5799,0.5386,0.5297,0.5297,0.5297,0.5297,0.5297,0.5297,0.5297,0.5297,0.5297,0.5297,0.5297,0.5297,0.5297,0.5297,0.5297,0.5252,0.5094,0.4832,0.4711,0.4572,0.4318,0.4232,0.4078,0.381,0.3549,0.3306,0.3078,0.2943,0.2763,0.2544,0.2168,0.188,0.1681,0.1278,0.1077,0.1077,0.1077,0.1055,0.7802,0.8251,0.8655,0.9002,0.9402,0.9724,0.9724,0.9299,0.8902,0.0,0.0,0.0,0.0,0.0,0.0,0.0,0.0,0.0,0.0,0.0,0.0,0.0,0.0,0.0,0.0,0.0,0.0,0.0,0.0,0.0,0.0,0.0,0.0,0.0,0.0,0.0,1.1409,1.1149,1.0481,0.9435,0.9473,0.9473,0.9435,0.9695,0.9954,1.018,0.996,0.9564,0.9052,0.8743,0.8344,0.7911,0.7499,0.7429,0.7552,0.7432,0.7297,0.7237,0.733,0.7265,0.7073,0.6946,0.6843,0.6741,0.6708,0.6581,0.6449,0.642,0.6387,0.6347,0.603,0.5947,0.5807,0.5462,0.5329,0.5297,0.5297,0.5297,0.5297,0.5297,0.5297,0.5297,0.5297,0.5297,0.5297,0.5297,0.5297,0.5297,0.5297,0.5297,0.5203,0.4905,0.4869,0.4727,0.4369,0.4381,0.4228,0.3854,0.37,0.3615,0.3615,0.3502,0.3344,0.3145,0.2743,0.2457,0.2239,0.1856,0.1654,0.1654,0.1654,0.1641,0.7619,0.7961,0.8312,0.8641,0.9402,1.006,1.006,0.9797,0.961,0.9843,0.0,0.0,0.0,0.0,0.0,0.0,0.0,0.0,0.0,0.0,0.0,0.0,0.0,0.0,0.0,0.0,0.0,0.0,0.0,0.0,0.0,0.0,0.0,0.0,0.0,0.0,1.2231,1.1818,1.1037,0.9846,1.0067,1.003,0.9884,1.0255,1.0663,1.0999,1.0812,1.0166,0.9289,0.9253,0.8557,0.7573,0.7689,0.7783,0.7807,0.7894,0.7999,0.8107,0.7999,0.7804,0.7549,0.7073,0.6881,0.6848,0.6741,0.6675,0.6642,0.6449,0.6387,0.6375,0.6208,0.6041,0.5839,0.564,0.5442,0.5297,0.5297,0.5297,0.5297,0.5297,0.5297,0.5297,0.5297,0.5297,0.5297,0.5297,0.5297,0.5297,0.5297,0.5297,0.5252,0.5084,0.5086,0.4918,0.4509,0.4589,0.4561,0.4284,0.425,0.4228,0.4228,0.4228,0.4096,0.3836,0.3495,0.3186,0.2923,0.2583,0.2426,0.2426,0.2426,0.2411,0.7662,0.7953,0.8282,0.8604,0.9248,0.9848,1.0053,1.0163,1.0316,1.0617,1.053,0.0,0.0,0.0,0.0,0.0,0.0,0.0,0.0,0.0,0.0,0.0,0.0,0.0,0.0,0.0,0.0,0.0,0.0,0.0,0.0,0.0,0.0,0.0,0.0,0.0,0.0,1.2783,1.2101,1.1082,1.0847,1.07,1.0663,1.1074,1.1484,1.1811,1.1303,1.0694,0.9979,0.9697,0.9208,0.8568,0.8649,0.8686,0.8695,0.8777,0.8753,0.8721,0.878,0.8624,0.8339,0.7987,0.7764,0.7563,0.7368,0.7167,0.697,0.6782,0.6716,0.6641,0.6288,0.6158,0.6004,0.5681,0.5535,0.5458,0.5321,0.5297,0.5297,0.5297,0.5297,0.5297,0.5297,0.5297,0.5297,0.5297,0.5297,0.5297,0.5297,0.5297,0.5256,0.5126,0.4978,0.4878,0.482,0.4855,0.4894,0.4916,0.4684,0.4476,0.4298,0.4382,0.4304,0.402,0.3744,0.3517,0.3366,0.3075,0.2943,0.2946,0.3069,0.3039,0.7538,0.7705,0.7975,0.8297,0.8933,0.9585,1.0002,1.0514,1.0989,1.1311,1.1377,1.1377,0.0,0.0,0.0,0.0,0.0,0.0,0.0,0.0,0.0,0.0,0.0,0.0,0.0,0.0,0.0,0.0,0.0,0.0,0.0,0.0,0.0,0.0,0.0,0.0,0.0,1.3208,1.2677,1.1964,1.1569,1.1338,1.1359,1.1853,1.2251,1.2485,1.1986,1.1287,1.057,1.0416,1.0113,0.9768,0.9611,0.9622,0.971,0.9689,0.9626,0.9594,0.9658,0.9498,0.921,0.8926,0.8635,0.8339,0.7982,0.7657,0.7368,0.7012,0.6913,0.6817,0.6491,0.6379,0.6301,0.6019,0.5839,0.5723,0.5574,0.5503,0.5466,0.5466,0.5466,0.5466,0.5466,0.5466,0.5466,0.5466,0.5466,0.5466,0.5466,0.5466,0.5416,0.5341,0.5211,0.5132,0.5153,0.5198,0.5247,0.53,0.5107,0.4867,0.4542,0.4512,0.4422,0.4235,0.3995,0.3877,0.3829,0.3631,0.3569,0.362,0.3748,0.3775,0.7209,0.7216,0.7297,0.7625,0.8458,0.0,0.9965,1.0894,1.1687,1.1937,1.201,1.201,1.2003,0.0,0.0,0.0,0.0,0.0,0.0,0.0,0.0,0.0,0.0,0.0,0.0,0.0,0.0,0.0,0.0,0.0,0.0,0.0,0.0,0.0,0.0,0.0,0.0,1.2949,1.2607,1.2389,1.2047,1.1888,1.1835,1.2565,1.2942,1.3009,1.2783,1.2033,1.1042,1.136,1.1337,1.1051,1.0514,1.051,1.0769,1.0568,1.0611,1.0776,1.0579,1.0415,1.0212,0.9678,0.9428,0.9177,0.8431,0.8107,0.7857,0.711,0.6913,0.6913,0.6913,0.6801,0.6719,0.6715,0.6388,0.6105,0.6101,0.5955,0.5795,0.5795,0.5795,0.5795,0.5795,0.5795,0.5795,0.5795,0.5795,0.5795,0.5795,0.5795,0.5795,0.5795,0.5795,0.5716,0.5514,0.5635,0.5601,0.5318,0.5548,0.5494,0.5018,0.4693,0.4505,0.4501,0.4369,0.4302,0.4302,0.4302,0.4373,0.4501,0.4505,0.4642,0.7545,0.772,0.8048,0.8604,0.0,0.0,0.0,1.1217,0.0,0.0,1.2521,1.2616,0.0,0.0,0.0,0.0,0.0,0.0,0.0,0.0,0.0,0.0,0.0,0.0,0.0,0.0,0.0,0.0,0.0,0.0,0.0,0.0,0.0,0.0,0.0,0.0,1.2811,1.264,1.2412,1.2121,1.2251,1.2309,1.2219,1.234,1.2633,1.2987,1.2357,1.1781,1.1371,1.1396,1.1353,1.1237,1.1104,1.1086,1.1069,1.0951,1.0965,1.0996,1.0933,1.08,1.0611,1.0358,1.0047,0.969,0.9268,0.8914,0.8598,0.8155,0.8025,0.8025,0.8025,0.7904,0.7585,0.6872,0.6493,0.6277,0.6131,0.5955,0.5795,0.5795,0.5795,0.5795,0.5795,0.5795,0.5795,0.5795,0.5795,0.5795,0.5795,0.5795,0.5795,0.5795,0.5795,0.5823,0.5837,0.5887,0.5918,0.5937,0.5908,0.5706,0.524,0.5206,0.516,0.507,0.5033,0.5007,0.5007,0.5007,0.5033,0.507,0.516,0.5157,0.7836,0.8143,0.0,0.919,0.9826,1.0463,1.1151,0.0,0.0,0.0,0.0,0.0,0.0,0.0,0.0,0.0,0.0,0.0,0.0,0.0,0.0,0.0,0.0,0.0,0.0,0.0,0.0,0.0,0.0,0.0,0.0,0.0,0.0,0.0,0.0,0.0,1.2627,1.2394,1.2193,1.2003,1.2109,1.2207,1.2375,1.2344,1.2419,1.2558,1.1982,1.1693,1.1692,1.1643,1.1688,1.1785,1.1668,1.1609,1.1505,1.1361,1.131,1.131,1.131,1.1216,1.109,1.1028,1.0776,1.0453,1.0034,0.9716,0.9422,0.9017,0.8894,0.8894,0.8894,0.8759,0.8393,0.7433,0.7058,0.6857,0.6612,0.6464,0.635,0.6324,0.6305,0.6305,0.6305,0.6305,0.6305,0.6305,0.6305,0.6305,0.6255,0.62,0.6114,0.6037,0.5982,0.5982,0.6059,0.6087,0.6119,0.6205,0.6119,0.5976,0.5752,0.5578,0.5465,0.5371,0.5316,0.53,0.53,0.53,0.5316,0.5371,0.5465,0.5462,0.799,0.8443,0.8882,0.9504,1.017,0.0,1.1459,1.2036,1.2536,0.0,0.0,0.0,0.0,0.0,0.0,0.0,0.0,0.0,0.0,0.0,0.0,0.0,0.0,0.0,0.0,0.0,0.0,0.0,0.0,0.0,0.0,0.0,0.0,0.0,0.0,0.0,1.2706,1.2244,1.1992,0.0,1.1731,1.184,1.2265,1.2365,1.227,1.2009,1.1748,1.1753,1.1992,1.2021,1.2189,1.2375,1.2105,1.1989,1.1923,1.1701,1.1591,1.1591,1.1622,1.1622,1.1591,1.1622,1.1466,1.1209,1.0706,1.0446,1.0243,0.9741,0.9614,0.9614,0.9614,0.9492,0.9145,0.8339,0.7947,0.7701,0.7451,0.7343,0.7284,0.7242,0.722,0.7214,0.7166,0.716,0.716,0.716,0.716,0.7112,0.6982,0.6842,0.6652,0.6463,0.6309,0.6205,0.6205,0.6205,0.6205,0.6205,0.6205,0.6255,0.6408,0.5906,0.5623,0.5627,0.5524,0.5449,0.5453,0.5428,0.5473,0.5575,0.5575,0.5646,0.7691,0.8436,0.0,0.9841,1.0682,1.1415,1.1562,1.186,1.22,0.0,0.0,0.0,0.0,0.0,0.0,0.0,0.0,0.0,0.0,0.0,0.0,0.0,0.0,0.0,0.0,0.0,0.0,0.0,0.0,0.0,0.0,0.0,0.0,0.0,0.0,1.2177,1.2019,1.1912,1.1788,0.0,1.1714,1.1808,1.1914,1.195,1.2013,1.2071,1.2034,1.194,1.1866,1.2126,1.2062,1.1819,1.1963,1.1882,1.1687,1.1613,1.1591,1.1622,1.1716,1.1685,1.1622,1.1716,1.1553,1.1272,1.1028,1.0832,1.0643,1.0428,1.0364,1.0364,1.0364,1.011,0.9722,0.93,0.8691,0.8191,0.805,0.8067,0.8138,0.8131,0.8134,0.8041,0.7773,0.7738,0.7738,0.7738,0.7738,0.7691,0.7536,0.7219,0.695,0.682,0.6445,0.6205,0.6205,0.6205,0.6205,0.6205,0.6205,0.6337,0.6625,0.6521,0.6501,0.6587,0.6669,0.667,0.6542,0.6458,0.6345,0.6206,0.6108,0.6023,0.7567,0.8429,0.0,1.0359,0.0,1.1591,1.1591,1.1809,0.0,0.0,0.0,0.0,0.0,0.0,0.0,0.0,0.0,0.0,0.0,0.0,0.0,0.0,0.0,0.0,0.0,0.0,0.0,0.0,0.0,0.0,0.0,0.0,0.0,0.0,1.2251,1.2151,1.205,1.1965,1.1903,1.184,1.1903,1.1965,1.2027,1.1965,1.1996,1.2096,1.2096,1.2027,1.1949,1.2028,1.1935,1.17,1.1775,1.1706,1.1591,1.1591,1.1654,1.1716,1.1771,1.1809,1.184,1.1809,1.1677,1.1522,1.1373,1.1279,1.1185,1.109,1.109,1.109,1.109,1.0839,1.0516,1.0066,0.9447,0.8871,0.8663,0.8805,0.8984,0.9058,0.8948,0.8779,0.8605,0.8451,0.8335,0.8335,0.8335,0.8262,0.8076,0.7723,0.7402,0.7198,0.6847,0.663,0.663,0.663,0.663,0.663,0.663,0.6793,0.716,0.731,0.7316,0.7198,0.7375,0.7429,0.7273,0.7031,0.6815,0.663,0.6337,0.6173,0.7435,0.8421,0.9574,1.0799,1.1305,0.0,1.1584,1.1765,0.0,0.0,0.0,0.0,0.0,0.0,0.0,0.0,0.0,0.0,0.0,0.0,0.0,0.0,0.0,0.0,0.0,0.0,0.0,0.0,0.0,0.0,0.0,0.0,1.259,1.259,1.2428,1.2336,1.2305,1.2182,1.212,1.2096,1.212,1.2212,1.2336,1.2251,1.2189,1.2189,1.2189,1.2158,1.212,1.1957,1.1864,1.184,1.1716,1.1685,1.1685,1.1685,1.1747,1.1872,1.1864,1.1965,1.2096,1.1934,1.1864,1.1833,1.1716,1.1685,1.1685,1.1685,1.1685,1.1685,1.1685,1.1529,1.1272,1.08,1.0256,0.9775,0.9426,0.9623,0.9905,0.9998,0.9714,0.9439,0.9439,0.9146,0.8929,0.8929,0.8929,0.885,0.8606,0.8276,0.7984,0.7756,0.7456,0.7295,0.7316,0.7316,0.7316,0.7316,0.7295,0.7456,0.7883,0.8131,0.8137,0.7863,0.801,0.801,0.7857,0.7429,0.7166,0.7036,0.6581,0.6364,0.71,0.0,0.9804,0.0,1.1136,1.1239,0.0,0.0,0.0,0.0,0.0,0.0,0.0,0.0,0.0,0.0,0.0,0.0,0.0,0.0,0.0,0.0,0.0,0.0,0.0,0.0,0.0,0.0,0.0,0.0,0.0,1.259,1.259,1.259,1.256,1.2467,1.2305,1.2274,1.2212,1.2096,1.2212,1.2367,1.256,1.2529,1.2529,1.2529,1.2529,1.2436,1.2274,1.2243,1.2151,1.2058,1.2027,1.2034,1.2034,1.2034,1.2027,1.2096,1.2182,1.2182,1.212,1.2212,1.2151,1.2065,1.2027,1.2034,1.2034,1.2034,1.2034,1.2034,1.2034,1.1872,1.1685,1.1498,1.1365,1.1139,1.0463,1.0613,1.0898,1.092,1.0429,0.9988,0.9988,0.9727,0.9484,0.9484,0.9484,0.9439,0.9283,0.8935,0.8672,0.8646,0.8243,0.8025,0.8119,0.8151,0.8151,0.8151,0.8019,0.8184,0.8646,0.8797,0.9007,0.9328,0.9021,0.8738,0.8468,0.801,0.7717,0.7589,0.7166,0.6977,0.7158,0.8414,0.9555,0.0,1.0828,1.1144,1.1291,0.0,0.0,0.0,0.0,0.0,0.0,0.0,0.0,0.0,0.0,0.0,0.0,0.0,0.0,0.0,0.0,0.0,0.0,0.0,0.0,0.0,0.0,0.0,1.259,1.259,1.259,1.259,1.259,0.0,1.2467,1.2467,1.2436,1.2375,1.2436,1.2498,1.259,1.259,1.259,1.259,1.259,1.256,1.2467,1.2336,1.2274,1.2212,1.2127,1.2096,1.2096,1.2096,1.2158,1.2212,1.2274,1.2336,1.2375,1.2305,1.2274,1.2212,1.212,1.2096,1.2096,1.2096,1.2096,1.2096,1.2096,1.2027,1.1965,1.1903,1.1872,1.1778,1.1466,1.1466,1.1465,1.1376,1.1135,1.0872,1.0684,1.0534,1.0436,1.0436,1.0436,1.0314,0.9994,0.9731,0.9473,0.9166,0.8883,0.8751,0.8797,0.8797,0.8797,0.8797,0.8751,0.8883,0.9223,0.9373,0.9555,0.981,0.9584,0.9401,0.9263,0.8771,0.8481,0.8428,0.7898,0.7658,0.6995,0.8063,0.898,0.9585,1.0228,1.0755,0.0,0.0,0.0,0.0,0.0,0.0,0.0,0.0,0.0,0.0,0.0,0.0,0.0,0.0,0.0,0.0,0.0,0.0,0.0,0.0,0.0,0.0,0.0,0.0,1.259,1.259,1.259,1.259,1.259,1.259,1.259,1.259,1.259,1.259,1.259,1.259,1.259,1.259,1.259,1.259,1.259,1.259,1.259,1.2428,1.2367,1.2367,1.2282,1.222,1.222,1.222,1.2282,1.2367,1.2367,1.2467,1.259,1.2436,1.2367,1.2367,1.2243,1.222,1.222,1.222,1.222,1.222,1.222,1.222,1.222,1.222,1.222,1.2189,1.212,1.1965,1.1858,1.176,1.1675,1.1529,1.1276,1.1161,1.1099,1.1099,1.1099,1.0979,1.0617,1.0436,1.0151,0.9801,0.9601,0.9498,0.9524,0.9524,0.9524,0.9524,0.9498,0.9577,0.9829,0.9899,0.9984,1.0128,1.0007,0.9903,0.9844,0.938,0.9164,0.9138,0.8606,0.8369,0.6267,0.7053,0.7946,0.8597,0.9226,0.0,0.0,0.0,0.0,0.0,0.0,0.0,0.0,0.0,0.0,0.0,0.0,0.0,0.0,0.0,0.0,0.0,0.0,0.0,0.0,0.0,0.0,0.0,0.0,0.0,1.259,1.259,1.259,1.259,1.259,1.259,1.259,1.259,1.259,1.259,1.259,1.259,1.259,1.259,1.259,1.259,1.259,1.259,1.259,1.259,1.259,1.259,1.259,1.256,1.256,1.256,1.259,1.259,1.259,1.259,1.259,1.259,1.259,1.259,1.259,1.256,1.256,1.256,1.256,1.256,1.256,1.256,1.256,1.256,1.256,1.2498,1.2158,1.2089,1.2089,1.2073,1.1806,1.1576,1.159,1.1322,1.1099,1.1099,1.1099,1.1099,1.1076,1.0793,1.062,1.0728,1.0433,1.029,1.0419,1.0419,1.0419,1.0419,1.0316,1.0316,1.0445,1.0342,1.0342,1.047,1.0342,1.0187,0.9999,0.9699,0.9562,0.9562,0.9283,0.9133,0.5568,0.6351,0.0,0.7618,0.8392,0.0,0.0,0.0,0.0,0.0,0.0,0.0,0.0,0.0,0.0,0.0,0.0,0.0,0.0,0.0,0.0,0.0,0.0,0.0,0.0,0.0,0.0,0.0,0.0,0.0,1.3186,1.3094,1.2972,1.2867,1.2775,1.2683,1.259,1.259,1.259,1.259,1.259,1.259,1.259,1.259,1.259,1.259,1.259,1.259,1.259,1.259,1.259,1.259,1.259,1.259,1.259,1.259,1.259,1.259,1.259,1.259,1.259,1.259,1.259,1.259,1.259,1.259,1.259,1.259,1.259,1.259,1.259,1.259,1.259,1.259,1.259,1.256,1.2436,1.2406,1.2406,1.2406,1.2334,1.2248,1.2248,1.2145,1.2059,1.2059,1.2059,1.198,1.1715,1.1574,1.1367,1.0961,1.083,1.069,1.0512,1.0496,1.0496,1.0496,1.0445,1.0445,1.0496,1.0445,1.0445,1.0496,1.0445,1.0393,1.0308,1.0128,1.0095,1.0172,0.9999,0.9895,0.507,0.5839,0.0,0.0,0.0,0.0,0.0,0.0,0.0,0.0,0.0,0.0,0.0,0.0,0.0,0.0,0.0,0.0,0.0,0.0,0.0,0.0,0.0,0.0,0.0,0.0,0.0,0.0,0.0,0.0,1.3812,1.3683,1.345,1.3103,1.2858,1.2683,1.259,1.259,1.259,1.259,1.259,1.259,1.259,1.259,1.259,1.259,1.259,1.259,1.259,1.259,1.2629,1.2683,1.2713,1.2775,1.2828,1.2889,1.2889,1.2889,1.2889,1.2889,1.2889,1.2889,1.2858,1.2828,1.2744,1.2713,1.2652,1.2621,1.259,1.259,1.259,1.2652,1.2744,1.2744,1.2744,1.2713,1.2683,1.2621,1.259,1.259,1.259,1.259,1.259,1.259,1.259,1.259,1.259,1.2503,1.2234,1.2091,1.1816,1.1384,1.1138,1.0899,1.0695,1.0568,1.0496,1.0496,1.0496,1.0496,1.0496,1.0496,1.0496,1.0496,1.0496,1.0496,1.0496,1.0419,1.0419,1.0496,1.0419,1.0368,0.0,0.0,0.0,0.0,0.0,0.0,0.0,0.0,0.0,0.0,0.0,0.0,0.0,0.0,0.0,0.0,0.0,0.0,0.0,0.0,0.0,0.0,0.0,0.0,0.0,0.0,0.0,0.0,0.0,1.4181,1.4499,1.4312,1.3944,1.3329,1.2858,1.2629,1.2629,1.2629,1.2629,1.2629,1.2629,1.2629,1.2629,1.2629,1.2629,1.2629,1.2629,1.2629,1.2629,1.2598,1.2683,1.2836,1.2958,1.3125,1.3329,1.348,1.3541,1.3541,1.3541,1.3541,1.3541,1.3541,1.345,1.3299,1.3072,1.2928,1.2775,1.2652,1.259,1.259,1.2598,1.2805,1.3019,1.3019,1.3019,1.2989,1.2836,1.2713,1.259,1.259,1.259,1.259,1.259,1.259,1.259,1.259,1.259,1.259,1.2598,1.228,1.2027,1.2019,1.1416,1.101,1.1003,1.0703,1.0496,1.0496,1.0496,1.0496,1.0522,1.0522,1.0522,1.0522,1.0522,1.0522,1.0522,1.0522,1.0496,1.0496,1.0496,1.0496,0.4794,0.0,0.0,0.0,0.0,0.0,0.0,0.0,0.0,0.0,0.0,0.0,0.0,0.0,0.0,0.0,0.0,0.0,0.0,0.0,0.0,0.0,0.0,0.0,0.0,0.0,0.0,0.0,1.4538,1.4843,1.5147,1.4677,1.4231,1.3821,1.3459,1.3246,1.3246,1.3246,1.3246,1.3246,1.3246,1.3246,1.3246,1.3246,1.3246,1.3246,1.3246,1.3246,1.3216,1.2775,1.2744,1.2981,1.3246,1.3549,1.3851,1.4112,1.4231,1.4231,1.4231,1.4231,1.4231,1.4231,1.4103,1.3885,1.348,1.3277,1.3094,1.2713,1.259,1.2652,1.2836,1.3125,1.3398,1.3558,1.3459,1.3329,1.3186,1.2858,1.259,1.259,1.259,1.259,1.259,1.259,1.259,1.259,1.259,1.2652,1.2744,1.2747,1.2636,1.2375,1.1963,1.1559,1.118,1.0747,1.0496,1.0496,1.0496,1.0547,1.065,1.065,1.0693,1.0794,1.0794,1.0845,1.0922,1.065,1.0496,1.0496,1.0496,1.0496,0.563,0.0,0.0,0.0,0.0,0.0,0.0,0.0,0.0,0.0,0.0,0.0,0.0,0.0,0.0,0.0,0.0,0.0,0.0,0.0,0.0,0.0,0.0,0.0,0.0,0.0,0.0,0.0,1.5186,1.5478,1.5671,1.5177,1.4765,1.4499,1.3921,1.3735,1.3932,1.3705,1.3705,1.3932,1.3932,1.3932,1.3932,1.3932,1.3932,1.3932,1.3932,1.3932,1.3902,1.3549,1.3407,1.3437,1.3782,1.4121,1.4458,1.4824,1.4971,1.4971,1.5059,1.5089,1.5089,1.5089,1.4903,1.4599,1.4133,1.3833,1.3593,1.3094,1.2981,1.3072,1.342,1.3752,1.4052,1.421,1.4112,1.3932,1.3713,1.3299,1.2889,1.2652,1.259,1.259,1.259,1.259,1.259,1.259,1.2463,1.2484,1.285,1.294,1.3025,1.3025,1.2535,1.2055,1.1655,1.0932,1.0496,1.0496,1.0496,1.0573,1.0693,1.0744,1.0845,1.0972,1.1049,1.1175,1.1385,1.0964,1.0769,1.082,1.082,1.0794,0.695,0.6974,0.0,0.0,0.0,0.0,0.6698,0.6983,0.0,0.0,0.0,0.0,0.0,0.0,0.0,0.0,0.0,0.0,0.0,0.0,0.0,0.0,0.0,0.0,0.0,0.0,1.4702,1.5342,1.5738,1.5999,1.6085,1.57,1.5362,1.5197,1.4335,1.4096,1.4523,1.4096,1.4152,1.4588,1.4617,1.4617,1.4617,1.4647,1.4647,1.4647,1.4647,1.4647,1.4647,1.4647,1.4449,1.4121,1.4469,1.4804,1.5176,1.5565,1.571,1.5768,1.5941,1.5989,1.5989,1.5989,1.5787,1.5439,1.4942,1.4579,1.4243,1.3743,1.3593,1.3713,1.4183,1.4549,1.4854,1.501,1.4913,1.4765,1.4412,1.3974,1.3511,1.295,1.2767,1.2713,1.2713,1.2713,1.2713,1.2713,1.237,1.2338,1.2973,1.3101,1.329,1.3723,1.3068,1.2501,1.2246,1.1214,1.0598,1.0598,1.0598,1.0667,1.0794,1.0922,1.1074,1.12,1.1368,1.1585,1.1884,1.1435,1.1267,1.1418,1.1418,1.1318,0.7774,0.7783,0.762,0.0,0.0,0.0,0.0,0.6818,0.0,0.0,0.0,0.0,0.0,0.0,0.0,0.0,0.0,0.0,0.0,0.0,0.0,0.0,0.0,0.0,0.0,0.0,1.4366,1.5173,1.5902,1.6249,1.6114,1.5902,1.557,1.5063,1.4702,1.458,1.4657,1.458,1.4753,1.5235,1.5323,1.5391,1.5381,1.5555,1.5642,1.5642,1.5642,1.5642,1.5642,1.5642,1.5264,1.4745,1.5089,1.5497,1.5941,1.6285,1.6457,1.6581,1.6609,1.6609,1.6609,1.6609,1.6524,1.6257,1.5623,1.5303,1.505,1.4469,1.4291,1.441,1.4874,1.5216,1.5507,1.5787,1.5758,1.5604,1.5381,1.4972,1.459,1.4471,1.3825,1.3329,1.3329,1.3329,1.3329,1.3329,1.2987,1.2901,1.3424,1.371,1.381,1.3645,1.3478,1.3104,1.2422,1.1602,1.115,1.115,1.115,1.1242,1.1494,1.1519,1.1653,1.1902,1.219,1.2387,1.2427,1.2039,1.1947,1.2178,1.207,1.1882,0.9261,0.9093,0.8693,0.805,0.0,0.0,0.0,0.0,0.0,0.0,0.0,0.0,0.0,0.0,0.0,0.0,0.0,0.0,0.0,0.0,0.0,0.0,0.0,0.0,0.0,0.0,1.4443,1.505,1.5474,1.5663,1.556,1.5505,1.5321,1.5016,1.4677,1.4713,1.5192,1.4971,1.5247,1.5989,1.6085,1.6142,1.62,1.6314,1.6343,1.6343,1.6343,1.6343,1.6343,1.6343,1.6142,1.5855,1.5855,1.6056,1.64,1.6673,1.6853,1.6909,1.7015,1.7043,1.7043,1.7043,1.6948,1.6701,1.6236,1.5892,1.5584,1.5284,1.5196,1.5284,1.5642,1.5931,1.6151,1.64,1.6343,1.6189,1.5979,1.5652,1.5391,1.5391,1.5011,1.4599,1.4273,1.4145,1.4115,1.4183,1.3688,1.3495,1.4082,1.4057,1.4041,1.4141,1.3919,1.3555,1.3093,1.2319,1.1841,1.1841,1.1841,1.195,1.2138,1.2221,1.2369,1.2647,1.289,1.306,1.3214,1.3064,1.2943,1.2788,1.274,1.253,0.0,0.0,0.0,0.0,0.0,0.7943,0.0,0.0,0.0,0.7849,0.0,0.0,0.0,0.0,0.0,0.0,0.0,0.0,0.0,0.0,0.0,0.0,0.0,0.0,0.0,0.0,1.4485,1.4837,1.4863,1.4904,1.4997,1.4997,1.4956,1.4863,1.45,1.4707,1.5546,1.52,1.555,1.6599,1.6655,1.674,1.6835,1.6874,1.6902,1.6902,1.6902,1.6902,1.6902,1.6902,1.6902,1.6874,1.6524,1.6524,1.6712,1.6927,1.7011,1.7078,1.7239,1.7306,1.7306,1.7306,1.7172,1.6955,1.674,1.6389,1.6075,1.6075,1.6075,1.6132,1.6371,1.657,1.6712,1.6874,1.6807,1.6694,1.6524,1.6314,1.6171,1.6171,1.6132,1.5892,1.5206,1.5002,1.4944,1.4955,1.4342,1.4057,1.4537,1.4246,1.4155,1.4527,1.4241,1.3917,1.3711,1.2993,1.256,1.256,1.256,1.2609,1.274,1.2885,1.3064,1.3266,1.3457,1.3658,1.3881,1.4057,1.3905,1.3433,1.3409,1.3194,0.0,0.0,0.0,0.0,0.9013,0.0,0.0,0.0,0.8279,0.8322,0.0,0.0,0.0,0.0,0.0,0.0,0.0,0.0,0.0,0.0,0.0,0.0,0.0,0.0,0.0,0.0,0.0,1.4355,1.4386,1.4562,1.4976,1.4997,1.4811,1.4397,1.4335,1.4552,1.507,1.5128,1.5647,1.6599,1.6842,1.6955,1.6983,1.7145,1.725,1.725,1.725,1.725,1.725,1.725,1.725,1.7211,1.6874,1.6825,1.6955,1.6983,1.7106,1.7278,1.7306,1.7306,1.7306,1.7306,1.7172,1.6972,1.6955,1.6825,1.6694,1.6694,1.6694,1.6722,1.687,1.6927,1.6994,1.7211,1.7222,1.7211,1.7183,1.7155,1.7127,1.7127,1.6994,1.6634,1.5921,1.5777,1.5628,1.5231,1.477,1.4451,1.4277,1.437,1.4345,1.4092,1.4282,1.4216,1.3652,1.3296,1.3112,1.3112,1.3112,1.317,1.329,1.3443,1.3515,1.3539,1.3918,1.4129,1.4152,1.4534,1.4557,1.4257,1.4129,1.3918,0.0,0.0,0.0,0.0,0.0,0.0,0.0,0.0,0.8338,0.0,0.0,0.0,0.0,0.0,0.0,0.0,0.0,0.0,0.0,0.0,0.0,0.0,0.0,0.0,0.0,0.0,0.0,0.0,0.0,1.332,1.3752,1.4045,1.4107,1.391,1.3876,1.4302,1.5096,1.5174,1.5743,1.6842,1.6955,1.7078,1.7172,1.7267,1.7306,1.7306,1.7306,1.7306,1.7306,1.7306,1.7306,1.7278,1.7155,1.7127,1.7172,1.7172,1.7239,1.7306,1.7306,1.7306,1.7306,1.7306,1.7239,1.7172,1.7172,1.7117,1.7071,1.7071,1.7071,1.7099,1.7145,1.7172,1.72,1.7278,1.7306,1.7306,1.7306,1.7306,1.7306,1.7306,1.7239,1.7088,1.6779,1.6378,1.6081,1.5964,1.5337,1.4849,1.4747,1.4553,1.4378,1.4242,1.4359,1.4355,1.408,1.3965,1.3894,1.3894,1.3894,1.3918,1.3988,1.4035,1.4069,1.4069,1.4303,1.4443,1.4489,1.4743,1.4834,1.4811,1.4639,1.4407,1.2517,0.0,0.0,0.0,0.0,0.0,0.0,0.0,0.0,0.0,0.0,0.0,0.0,0.0,0.0,0.0,0.0,0.0,0.0,0.0,0.0,0.0,0.0,0.0,0.0,0.0,0.0,0.0,0.0,0.0,1.2863,1.3271,1.351,1.3644,1.3692,1.4202,1.5242,1.5278,1.5887,1.7011,1.7078,1.7172,1.7306,1.7306,1.7306,1.7306,1.7306,1.7306,1.7306,1.7306,1.7306,1.7306,1.7306,1.7306,1.7306,1.7306,1.7306,1.7306,1.7306,1.7306,1.7306,1.7306,1.7306,1.7306,1.7306,1.7306,1.7306,1.7306,1.7306,1.7306,1.7306,1.7306,1.7306,1.7306,1.7306,1.7306,1.7306,1.7306,1.7306,1.7306,1.7306,1.7306,1.7306,1.6901,1.6564,1.652,1.5935,1.54,1.5186,1.4847,1.4596,1.4522,1.45,1.45,1.45,1.45,1.45,1.45,1.45,1.45,1.45,1.45,1.45,1.45,1.4616,1.472,1.4823,1.4937,1.5074,1.5198,1.4983,1.4788,0.0,0.0,0.0,1.0168,0.0,0.0,0.0,0.0,0.9299,0.0,0.0,0.0,0.0,0.0,0.0,0.0,0.0,0.0,0.0,0.0,0.0,0.0,0.0,0.0,0.0,0.0,0.0,0.0,0.0,0.0,1.2832,1.3038,1.3326,1.3776,1.3915,1.4432,1.5382,1.5532,1.6057,1.7011,1.72,1.7306,1.7306,1.7306,1.7306,1.7306,1.7306,1.7306,1.7306,1.7306,1.7306,1.7306,1.7306,1.7306,1.7306,1.7306,1.7306,1.7306,1.7306,1.7306,1.7306,1.7306,1.7306,1.7306,1.7306,1.7306,1.7306,1.7306,1.7306,1.7306,1.7306,1.7306,1.7306,1.7306,1.7306,1.7306,1.7306,1.7306,1.7306,1.7306,1.7306,1.7306,1.7306,1.7295,1.7082,1.6563,1.6465,1.6168,1.5383,1.5275,1.5135,1.4809,1.4787,1.4787,1.4787,1.4787,1.4787,1.4787,1.4787,1.4787,1.4787,1.4787,1.4787,1.4787,1.4857,1.496,1.5085,1.521,1.5345,1.5491,1.5221,1.5085,0.0,0.0,1.1541,1.0563,0.0,0.0,0.0,0.0,0.0,0.0,0.0,0.0,0.0,0.0,0.0,0.0,0.0,0.0,0.0,0.0,0.0,0.0,0.0,0.0,0.0,0.0,0.0,0.0,0.0,0.0,0.0,1.2928,1.3361,1.3905,1.3973,1.4481,1.5521,1.5584,1.6148,1.72,1.7278,1.7306,1.7306,1.7306,1.7306,1.7306,1.7306,1.7306,1.7306,1.7306,1.7306,1.7306,1.7306,1.7306,1.7306,1.7306,1.7306,1.7306,1.7306,1.7306,1.7306,1.7306,1.7306,1.7306,1.7306,1.7306,1.7334,1.7396,1.7423,1.7451,1.7545,1.7518,1.7423,1.7423,1.7351,1.7334,1.7396,1.7423,1.7451,1.7545,1.7573,1.7573,1.7573,1.7573,1.7324,1.6617,1.6236,1.5971,1.5794,1.5572,1.5413,1.5399,1.5164,1.5006,1.5006,1.5006,1.5006,1.5006,1.5006,1.5006,1.5006,1.5006,1.5006,1.5006,1.5119,1.5221,1.5379,1.5503,1.5604,1.5703,1.5614,1.5491,1.2774,1.2454,0.0,0.0,1.0634,0.0,0.9572,0.0,0.0,0.0,0.0,0.0,0.0,0.0,0.0,0.0,0.0,0.0,0.0,0.0,0.0,0.0,0.0,0.0,0.0,0.0,0.9412,1.0149,0.0,0.0,0.0,0.0,1.3253,1.38,1.4018,1.4551,1.5401,1.5585,1.6114,1.7005,1.7219,1.7306,1.7306,1.7306,1.7306,1.7306,1.7306,1.7334,1.7379,1.7407,1.7434,1.7434,1.7434,1.7407,1.7379,1.7334,1.7306,1.7306,1.7306,1.7306,1.7306,1.7306,1.7306,1.7306,1.7306,1.7306,1.7334,1.7451,1.7523,1.759,1.7684,1.7645,1.7562,1.7496,1.7407,1.7323,1.7479,1.7534,1.7617,1.7755,1.781,1.7838,1.7838,1.7838,1.7616,1.702,1.6669,1.6457,1.6435,1.6286,1.6096,1.5875,1.566,1.5452,1.5267,1.5244,1.5244,1.5244,1.5244,1.5244,1.5244,1.5244,1.5266,1.5323,1.5345,1.5458,1.5603,1.5659,1.5738,1.5792,1.5792,1.5726]}]]